Time,TemperatureF,DewpointF,PressureIn,WindDirection,WindDirectionDegrees,WindSpeedMPH,WindSpeedGustMPH,Humidity,HourlyPrecipIn,Conditions,Clouds,dailyrainin,SoftwareType,DateUTC
2013-12-12 00:00:00,27.0,24.7,30.37,NNE,24,0.0,0.0,91,0.00,,---,0.00,VWS V14.01,2013-12-12 05:00:00,
2013-12-12 00:01:00,27.0,24.7,30.37,NNE,25,0.0,0.0,91,0.00,,---,0.00,VWS V14.01,2013-12-12 05:01:00,
2013-12-12 00:02:00,27.0,24.7,30.37,NNE,24,0.0,0.0,91,0.00,,---,0.00,VWS V14.01,2013-12-12 05:02:00,
2013-12-12 00:03:00,27.0,24.7,30.37,NNE,25,0.0,1.0,91,0.00,,---,0.00,VWS V14.01,2013-12-12 05:03:00,
2013-12-12 00:04:00,27.0,24.7,30.37,NNE,25,0.0,0.0,91,0.00,,---,0.00,VWS V14.01,2013-12-12 05:04:00,
2013-12-12 00:05:00,27.0,24.7,30.37,NNE,24,0.0,0.0,91,0.00,,---,0.00,VWS V14.01,2013-12-12 05:05:00,
2013-12-12 00:06:00,27.0,24.5,30.37,NNE,23,0.0,1.0,90,0.00,,---,0.00,VWS V14.01,2013-12-12 05:06:00,
2013-12-12 00:07:00,27.0,24.5,30.37,NNE,23,1.0,1.0,90,0.00,,---,0.00,VWS V14.01,2013-12-12 05:07:00,
2013-12-12 00:08:00,27.0,24.5,30.37,NNE,23,0.0,1.0,90,0.00,,---,0.00,VWS V14.01,2013-12-12 05:08:00,
2013-12-12 00:09:00,27.0,24.5,30.37,NNE,23,0.0,1.0,90,0.00,,---,0.00,VWS V14.01,2013-12-12 05:09:00,
2013-12-12 00:10:00,27.0,24.5,30.37,NNE,23,0.0,1.0,90,0.00,,---,0.00,VWS V14.01,2013-12-12 05:10:00,
2013-12-12 00:11:00,27.0,24.5,30.37,NNE,23,0.0,0.0,90,0.00,,---,0.00,VWS V14.01,2013-12-12 05:11:00,
2013-12-12 00:12:00,27.0,24.5,30.37,NNE,23,0.0,1.0,90,0.00,,---,0.00,VWS V14.01,2013-12-12 05:12:00,
2013-12-12 00:13:00,27.0,24.5,30.37,NNE,23,0.0,1.0,90,0.00,,---,0.00,VWS V14.01,2013-12-12 05:13:00,
2013-12-12 00:14:00,27.0,24.5,30.37,NNE,23,1.0,1.0,90,0.00,,---,0.00,VWS V14.01,2013-12-12 05:14:00,
2013-12-12 00:15:00,27.0,24.5,30.37,NNE,23,0.0,1.0,90,0.00,,---,0.00,VWS V14.01,2013-12-12 05:15:00,
2013-12-12 00:16:00,27.0,24.5,30.37,NNE,23,0.0,1.0,90,0.00,,---,0.00,VWS V14.01,2013-12-12 05:16:00,
2013-12-12 00:17:00,27.0,24.5,30.37,North,6,1.0,1.0,90,0.00,,---,0.00,VWS V14.01,2013-12-12 05:17:00,
2013-12-12 00:18:00,27.0,24.5,30.37,North,6,2.0,2.0,90,0.00,,---,0.00,VWS V14.01,2013-12-12 05:18:00,
2013-12-12 00:19:00,27.0,24.5,30.37,North,6,0.0,2.0,90,0.00,,---,0.00,VWS V14.01,2013-12-12 05:19:00,
2013-12-12 00:20:00,27.0,24.5,30.37,North,6,1.0,1.0,90,0.00,,---,0.00,VWS V14.01,2013-12-12 05:20:00,
2013-12-12 00:21:00,27.0,24.5,30.37,North,6,0.0,1.0,90,0.00,,---,0.00,VWS V14.01,2013-12-12 05:21:00,
2013-12-12 00:22:00,27.0,24.5,30.38,North,6,0.0,0.0,90,0.00,,---,0.00,VWS V14.01,2013-12-12 05:22:00,
2013-12-12 00:23:00,27.0,24.5,30.38,North,6,0.0,1.0,90,0.00,,---,0.00,VWS V14.01,2013-12-12 05:23:00,
2013-12-12 00:24:00,27.1,24.3,30.37,North,6,0.0,0.0,89,0.00,,---,0.00,VWS V14.01,2013-12-12 05:24:00,
2013-12-12 00:25:00,27.0,24.5,30.38,North,6,0.0,0.0,90,0.00,,---,0.00,VWS V14.01,2013-12-12 05:25:00,
2013-12-12 00:26:00,26.9,24.4,30.38,North,6,0.0,0.0,90,0.00,,---,0.00,VWS V14.01,2013-12-12 05:26:00,
2013-12-12 00:27:00,27.0,24.5,30.38,North,6,0.0,1.0,90,0.00,,---,0.00,VWS V14.01,2013-12-12 05:27:00,
2013-12-12 00:28:00,27.0,24.5,30.38,North,6,0.0,0.0,90,0.00,,---,0.00,VWS V14.01,2013-12-12 05:28:00,
2013-12-12 00:29:00,26.9,24.4,30.37,North,6,0.0,0.0,90,0.00,,---,0.00,VWS V14.01,2013-12-12 05:29:00,
2013-12-12 00:30:00,26.9,24.4,30.38,North,6,0.0,0.0,90,0.00,,---,0.00,VWS V14.01,2013-12-12 05:30:00,
2013-12-12 00:31:00,27.2,24.4,30.38,North,10,0.0,1.0,89,0.00,,---,0.00,VWS V14.01,2013-12-12 05:31:00,
2013-12-12 00:32:00,26.9,24.4,30.37,North,11,1.0,1.0,90,0.00,,---,0.00,VWS V14.01,2013-12-12 05:32:00,
2013-12-12 00:33:00,27.0,24.5,30.37,North,10,0.0,1.0,90,0.00,,---,0.00,VWS V14.01,2013-12-12 05:33:00,
2013-12-12 00:34:00,27.1,24.3,30.38,North,10,0.0,1.0,89,0.00,,---,0.00,VWS V14.01,2013-12-12 05:34:00,
2013-12-12 00:35:00,27.2,24.4,30.38,North,10,0.0,1.0,89,0.00,,---,0.00,VWS V14.01,2013-12-12 05:35:00,
2013-12-12 00:36:00,27.7,24.6,30.38,NNE,23,0.0,0.0,88,0.00,,---,0.00,VWS V14.01,2013-12-12 05:36:00,
2013-12-12 00:37:00,27.4,24.6,30.38,North,10,0.0,0.0,89,0.00,,---,0.00,VWS V14.01,2013-12-12 05:37:00,
2013-12-12 00:38:00,27.5,24.4,30.38,North,10,0.0,0.0,88,0.00,,---,0.00,VWS V14.01,2013-12-12 05:38:00,
2013-12-12 00:39:00,27.6,24.5,30.38,North,10,0.0,0.0,88,0.00,,---,0.00,VWS V14.01,2013-12-12 05:39:00,
2013-12-12 00:40:00,27.7,24.6,30.38,NNE,23,0.0,0.0,88,0.00,,---,0.00,VWS V14.01,2013-12-12 05:40:00,
2013-12-12 00:41:00,28.0,24.4,30.38,ENE,65,0.0,1.0,86,0.00,,---,0.00,VWS V14.01,2013-12-12 05:41:00,
2013-12-12 00:42:00,27.8,24.4,30.38,ENE,65,0.0,1.0,87,0.00,,---,0.00,VWS V14.01,2013-12-12 05:42:00,
2013-12-12 00:43:00,27.9,24.5,30.38,ENE,67,0.0,1.0,87,0.00,,---,0.00,VWS V14.01,2013-12-12 05:43:00,
2013-12-12 00:44:00,27.9,24.5,30.38,ENE,66,0.0,0.0,87,0.00,,---,0.00,VWS V14.01,2013-12-12 05:44:00,
2013-12-12 00:45:00,28.0,24.4,30.38,ENE,67,0.0,1.0,86,0.00,,---,0.00,VWS V14.01,2013-12-12 05:45:00,
2013-12-12 00:46:00,28.0,24.6,30.38,SSW,208,0.0,1.0,87,0.00,,---,0.00,VWS V14.01,2013-12-12 05:46:00,
2013-12-12 00:47:00,28.1,24.5,30.38,East,81,0.0,1.0,86,0.00,,---,0.00,VWS V14.01,2013-12-12 05:47:00,
2013-12-12 00:48:00,28.1,24.5,30.38,SE,136,1.0,1.0,86,0.00,,---,0.00,VWS V14.01,2013-12-12 05:48:00,
2013-12-12 00:49:00,28.0,24.4,30.38,SSE,162,1.0,2.0,86,0.00,,---,0.00,VWS V14.01,2013-12-12 05:49:00,
2013-12-12 00:50:00,28.0,24.6,30.38,SSW,201,0.0,1.0,87,0.00,,---,0.00,VWS V14.01,2013-12-12 05:50:00,
2013-12-12 00:51:00,27.6,24.5,30.38,SSE,162,0.0,1.0,88,0.00,,---,0.00,VWS V14.01,2013-12-12 05:51:00,
2013-12-12 00:52:00,27.8,24.4,30.38,SSE,162,1.0,1.0,87,0.00,,---,0.00,VWS V14.01,2013-12-12 05:52:00,
2013-12-12 00:53:00,27.7,24.3,30.38,SSE,162,0.0,1.0,87,0.00,,---,0.00,VWS V14.01,2013-12-12 05:53:00,
2013-12-12 00:54:00,27.7,24.3,30.38,SSE,162,0.0,0.0,87,0.00,,---,0.00,VWS V14.01,2013-12-12 05:54:00,
2013-12-12 00:55:00,27.6,24.5,30.38,SSE,162,0.0,1.0,88,0.00,,---,0.00,VWS V14.01,2013-12-12 05:55:00,
2013-12-12 00:56:00,27.3,24.5,30.38,SSE,162,0.0,0.0,89,0.00,,---,0.00,VWS V14.01,2013-12-12 05:56:00,
2013-12-12 00:57:00,27.4,24.3,30.38,SSE,162,0.0,0.0,88,0.00,,---,0.00,VWS V14.01,2013-12-12 05:57:00,
2013-12-12 00:58:00,27.3,24.2,30.38,SSE,162,0.0,0.0,88,0.00,,---,0.00,VWS V14.01,2013-12-12 05:58:00,
2013-12-12 00:59:00,27.3,24.2,30.38,SSE,162,0.0,0.0,88,0.00,,---,0.00,VWS V14.01,2013-12-12 05:59:00,
2013-12-12 01:00:00,27.3,24.5,30.38,SSE,162,0.0,0.0,89,0.00,,---,0.00,VWS V14.01,2013-12-12 06:00:00,
2013-12-12 01:01:00,27.2,24.4,30.38,SSE,162,0.0,0.0,89,0.00,,---,0.00,VWS V14.01,2013-12-12 06:01:00,
2013-12-12 01:02:00,27.0,24.2,30.38,SE,135,0.0,1.0,89,0.00,,---,0.00,VWS V14.01,2013-12-12 06:02:00,
2013-12-12 01:03:00,27.1,24.3,30.38,SSE,162,0.0,0.0,89,0.00,,---,0.00,VWS V14.01,2013-12-12 06:03:00,
2013-12-12 01:04:00,27.1,24.3,30.38,SSE,160,1.0,1.0,89,0.00,,---,0.00,VWS V14.01,2013-12-12 06:04:00,
2013-12-12 01:05:00,27.0,24.2,30.38,SE,135,0.0,1.0,89,0.00,,---,0.00,VWS V14.01,2013-12-12 06:05:00,
2013-12-12 01:06:00,27.0,24.2,30.38,SE,135,0.0,1.0,89,0.00,,---,0.00,VWS V14.01,2013-12-12 06:06:00,
2013-12-12 01:07:00,26.8,24.0,30.38,SE,140,0.0,0.0,89,0.00,,---,0.00,VWS V14.01,2013-12-12 06:07:00,
2013-12-12 01:08:00,26.9,24.1,30.38,SE,135,0.0,0.0,89,0.00,,---,0.00,VWS V14.01,2013-12-12 06:08:00,
2013-12-12 01:09:00,26.9,24.1,30.38,SE,139,0.0,0.0,89,0.00,,---,0.00,VWS V14.01,2013-12-12 06:09:00,
2013-12-12 01:10:00,26.8,24.0,30.38,SE,140,0.0,0.0,89,0.00,,---,0.00,VWS V14.01,2013-12-12 06:10:00,
2013-12-12 01:11:00,26.7,23.9,30.38,SE,140,0.0,1.0,89,0.00,,---,0.00,VWS V14.01,2013-12-12 06:11:00,
2013-12-12 01:12:00,26.6,24.1,30.38,SE,139,0.0,0.0,90,0.00,,---,0.00,VWS V14.01,2013-12-12 06:12:00,
2013-12-12 01:13:00,26.7,23.9,30.38,SE,140,0.0,0.0,89,0.00,,---,0.00,VWS V14.01,2013-12-12 06:13:00,
2013-12-12 01:14:00,26.6,23.8,30.38,SE,138,0.0,1.0,89,0.00,,---,0.00,VWS V14.01,2013-12-12 06:14:00,
2013-12-12 01:15:00,26.6,24.1,30.38,SE,139,0.0,0.0,90,0.00,,---,0.00,VWS V14.01,2013-12-12 06:15:00,
2013-12-12 01:16:00,26.6,24.1,30.38,SE,140,0.0,0.0,90,0.00,,---,0.00,VWS V14.01,2013-12-12 06:16:00,
2013-12-12 01:17:00,26.5,24.0,30.38,SE,139,0.0,0.0,90,0.00,,---,0.00,VWS V14.01,2013-12-12 06:17:00,
2013-12-12 01:18:00,26.5,24.0,30.38,SE,140,0.0,0.0,90,0.00,,---,0.00,VWS V14.01,2013-12-12 06:18:00,
2013-12-12 01:19:00,26.5,24.0,30.38,SE,140,0.0,0.0,90,0.00,,---,0.00,VWS V14.01,2013-12-12 06:19:00,
2013-12-12 01:20:00,26.5,24.0,30.38,SE,139,0.0,0.0,90,0.00,,---,0.00,VWS V14.01,2013-12-12 06:20:00,
2013-12-12 01:21:00,26.4,23.9,30.38,SE,139,0.0,0.0,90,0.00,,---,0.00,VWS V14.01,2013-12-12 06:21:00,
2013-12-12 01:22:00,26.3,23.8,30.38,SE,140,1.0,1.0,90,0.00,,---,0.00,VWS V14.01,2013-12-12 06:22:00,
2013-12-12 01:23:00,26.4,23.9,30.38,SE,139,0.0,0.0,90,0.00,,---,0.00,VWS V14.01,2013-12-12 06:23:00,
2013-12-12 01:24:00,26.4,23.9,30.38,SE,139,0.0,0.0,90,0.00,,---,0.00,VWS V14.01,2013-12-12 06:24:00,
2013-12-12 01:25:00,26.3,23.8,30.38,SE,140,1.0,1.0,90,0.00,,---,0.00,VWS V14.01,2013-12-12 06:25:00,
2013-12-12 01:26:00,26.3,23.8,30.38,SE,140,0.0,1.0,90,0.00,,---,0.00,VWS V14.01,2013-12-12 06:26:00,
2013-12-12 01:27:00,26.2,23.9,30.38,SE,138,0.0,0.0,91,0.00,,---,0.00,VWS V14.01,2013-12-12 06:27:00,
2013-12-12 01:28:00,26.2,23.7,30.38,SE,139,0.0,0.0,90,0.00,,---,0.00,VWS V14.01,2013-12-12 06:28:00,
2013-12-12 01:29:00,26.2,23.9,30.38,SE,138,0.0,1.0,91,0.00,,---,0.00,VWS V14.01,2013-12-12 06:29:00,
2013-12-12 01:30:00,26.2,23.9,30.38,SE,138,0.0,0.0,91,0.00,,---,0.00,VWS V14.01,2013-12-12 06:30:00,
2013-12-12 01:31:00,26.2,23.9,30.38,SE,139,0.0,0.0,91,0.00,,---,0.00,VWS V14.01,2013-12-12 06:31:00,
2013-12-12 01:32:00,26.1,23.8,30.38,SW,221,0.0,0.0,91,0.00,,---,0.00,VWS V14.01,2013-12-12 06:32:00,
2013-12-12 01:33:00,26.1,23.8,30.38,SE,140,0.0,0.0,91,0.00,,---,0.00,VWS V14.01,2013-12-12 06:33:00,
2013-12-12 01:34:00,26.1,23.8,30.38,SW,221,0.0,1.0,91,0.00,,---,0.00,VWS V14.01,2013-12-12 06:34:00,
2013-12-12 01:35:00,26.1,23.8,30.38,SW,221,0.0,0.0,91,0.00,,---,0.00,VWS V14.01,2013-12-12 06:35:00,
2013-12-12 01:36:00,26.1,23.8,30.38,SW,221,0.0,0.0,91,0.00,,---,0.00,VWS V14.01,2013-12-12 06:36:00,
2013-12-12 01:37:00,26.1,23.8,30.38,SW,221,0.0,0.0,91,0.00,,---,0.00,VWS V14.01,2013-12-12 06:37:00,
2013-12-12 01:38:00,26.1,23.8,30.38,SW,221,0.0,0.0,91,0.00,,---,0.00,VWS V14.01,2013-12-12 06:38:00,
2013-12-12 01:39:00,26.1,23.8,30.38,SW,222,0.0,0.0,91,0.00,,---,0.00,VWS V14.01,2013-12-12 06:39:00,
2013-12-12 01:40:00,26.1,23.8,30.38,SW,221,0.0,0.0,91,0.00,,---,0.00,VWS V14.01,2013-12-12 06:40:00,
2013-12-12 01:41:00,26.1,23.8,30.38,SW,222,0.0,0.0,91,0.00,,---,0.00,VWS V14.01,2013-12-12 06:41:00,
2013-12-12 01:42:00,26.1,23.8,30.38,NE,46,0.0,1.0,91,0.00,,---,0.00,VWS V14.01,2013-12-12 06:42:00,
2013-12-12 01:43:00,26.1,23.8,30.38,NE,49,0.0,1.0,91,0.00,,---,0.00,VWS V14.01,2013-12-12 06:43:00,
2013-12-12 01:44:00,26.1,23.8,30.38,NE,48,1.0,1.0,91,0.00,,---,0.00,VWS V14.01,2013-12-12 06:44:00,
2013-12-12 01:45:00,26.1,23.8,30.38,NE,46,0.0,1.0,91,0.00,,---,0.00,VWS V14.01,2013-12-12 06:45:00,
2013-12-12 01:46:00,26.1,23.8,30.38,NE,46,0.0,1.0,91,0.00,,---,0.00,VWS V14.01,2013-12-12 06:46:00,
2013-12-12 01:47:00,26.2,23.9,30.38,NE,46,0.0,0.0,91,0.00,,---,0.00,VWS V14.01,2013-12-12 06:47:00,
2013-12-12 01:48:00,26.1,23.8,30.38,NE,46,0.0,0.0,91,0.00,,---,0.00,VWS V14.01,2013-12-12 06:48:00,
2013-12-12 01:49:00,26.2,23.9,30.38,NE,46,0.0,0.0,91,0.00,,---,0.00,VWS V14.01,2013-12-12 06:49:00,
2013-12-12 01:50:00,26.2,23.9,30.38,NE,46,0.0,0.0,91,0.00,,---,0.00,VWS V14.01,2013-12-12 06:50:00,
2013-12-12 01:51:00,26.2,23.9,30.38,NE,47,0.0,1.0,91,0.00,,---,0.00,VWS V14.01,2013-12-12 06:51:00,
2013-12-12 01:52:00,26.1,23.6,30.38,NE,47,0.0,1.0,90,0.00,,---,0.00,VWS V14.01,2013-12-12 06:52:00,
2013-12-12 01:53:00,26.2,23.9,30.38,NE,47,0.0,0.0,91,0.00,,---,0.00,VWS V14.01,2013-12-12 06:53:00,
2013-12-12 01:54:00,26.2,23.9,30.38,NE,47,0.0,0.0,91,0.00,,---,0.00,VWS V14.01,2013-12-12 06:54:00,
2013-12-12 01:55:00,26.1,23.6,30.38,NE,47,0.0,1.0,90,0.00,,---,0.00,VWS V14.01,2013-12-12 06:55:00,
2013-12-12 01:56:00,26.1,23.6,30.38,NE,46,0.0,0.0,90,0.00,,---,0.00,VWS V14.01,2013-12-12 06:56:00,
2013-12-12 01:57:00,26.0,23.5,30.38,NE,47,0.0,0.0,90,0.00,,---,0.00,VWS V14.01,2013-12-12 06:57:00,
2013-12-12 01:58:00,26.1,23.6,30.38,NE,46,0.0,1.0,90,0.00,,---,0.00,VWS V14.01,2013-12-12 06:58:00,
2013-12-12 01:59:00,26.0,23.5,30.38,NE,46,0.0,0.0,90,0.00,,---,0.00,VWS V14.01,2013-12-12 06:59:00,
2013-12-12 02:00:00,26.0,23.5,30.38,NE,47,0.0,0.0,90,0.00,,---,0.00,VWS V14.01,2013-12-12 07:00:00,
2013-12-12 02:01:00,26.0,23.5,30.38,NE,46,0.0,1.0,90,0.00,,---,0.00,VWS V14.01,2013-12-12 07:01:00,
2013-12-12 02:02:00,25.9,23.4,30.38,NE,46,0.0,0.0,90,0.00,,---,0.00,VWS V14.01,2013-12-12 07:02:00,
2013-12-12 02:03:00,25.9,23.4,30.38,NE,46,0.0,0.0,90,0.00,,---,0.00,VWS V14.01,2013-12-12 07:03:00,
2013-12-12 02:04:00,25.9,23.4,30.38,NE,46,0.0,1.0,90,0.00,,---,0.00,VWS V14.01,2013-12-12 07:04:00,
2013-12-12 02:05:00,25.9,23.4,30.38,NE,46,0.0,0.0,90,0.00,,---,0.00,VWS V14.01,2013-12-12 07:05:00,
2013-12-12 02:06:00,25.9,23.4,30.38,NE,46,0.0,0.0,90,0.00,,---,0.00,VWS V14.01,2013-12-12 07:06:00,
2013-12-12 02:07:00,25.8,23.3,30.39,NE,46,1.0,1.0,90,0.00,,---,0.00,VWS V14.01,2013-12-12 07:07:00,
2013-12-12 02:08:00,25.8,23.3,30.39,NE,46,0.0,1.0,90,0.00,,---,0.00,VWS V14.01,2013-12-12 07:08:00,
2013-12-12 02:09:00,25.8,23.3,30.39,NE,46,0.0,0.0,90,0.00,,---,0.00,VWS V14.01,2013-12-12 07:09:00,
2013-12-12 02:10:00,25.8,23.3,30.39,NE,46,1.0,1.0,90,0.00,,---,0.00,VWS V14.01,2013-12-12 07:10:00,
2013-12-12 02:11:00,25.8,23.3,30.39,NE,46,0.0,1.0,90,0.00,,---,0.00,VWS V14.01,2013-12-12 07:11:00,
2013-12-12 02:12:00,25.9,23.4,30.39,NE,46,0.0,0.0,90,0.00,,---,0.00,VWS V14.01,2013-12-12 07:12:00,
2013-12-12 02:13:00,25.8,23.3,30.39,NE,46,0.0,1.0,90,0.00,,---,0.00,VWS V14.01,2013-12-12 07:13:00,
2013-12-12 02:14:00,25.8,23.3,30.39,NE,47,0.0,1.0,90,0.00,,---,0.00,VWS V14.01,2013-12-12 07:14:00,
2013-12-12 02:15:00,25.9,23.4,30.39,NE,46,0.0,0.0,90,0.00,,---,0.00,VWS V14.01,2013-12-12 07:15:00,
2013-12-12 02:16:00,26.1,23.6,30.39,NE,49,0.0,1.0,90,0.00,,---,0.00,VWS V14.01,2013-12-12 07:16:00,
2013-12-12 02:17:00,26.8,23.5,30.39,NW,326,0.0,1.0,87,0.00,,---,0.00,VWS V14.01,2013-12-12 07:17:00,
2013-12-12 02:18:00,26.4,23.6,30.39,North,8,1.0,1.0,89,0.00,,---,0.00,VWS V14.01,2013-12-12 07:18:00,
2013-12-12 02:19:00,26.6,23.5,30.39,North,1,1.0,1.0,88,0.00,,---,0.00,VWS V14.01,2013-12-12 07:19:00,
2013-12-12 02:20:00,26.8,23.5,30.39,NW,326,0.0,1.0,87,0.00,,---,0.00,VWS V14.01,2013-12-12 07:20:00,
2013-12-12 02:21:00,27.0,23.4,30.39,NW,326,0.0,0.0,86,0.00,,---,0.00,VWS V14.01,2013-12-12 07:21:00,
2013-12-12 02:22:00,28.2,23.4,30.39,NNW,341,0.0,1.0,82,0.00,,---,0.00,VWS V14.01,2013-12-12 07:22:00,
2013-12-12 02:23:00,27.5,23.3,30.39,NE,49,2.0,2.0,84,0.00,,---,0.00,VWS V14.01,2013-12-12 07:23:00,
2013-12-12 02:24:00,27.8,23.3,30.39,NNW,337,1.0,2.0,83,0.00,,---,0.00,VWS V14.01,2013-12-12 07:24:00,
2013-12-12 02:25:00,28.2,23.4,30.39,NNW,341,0.0,1.0,82,0.00,,---,0.00,VWS V14.01,2013-12-12 07:25:00,
2013-12-12 02:26:00,28.5,23.1,30.39,NNW,341,0.0,1.0,80,0.00,,---,0.00,VWS V14.01,2013-12-12 07:26:00,
2013-12-12 02:27:00,29.5,22.6,30.39,NNE,32,0.0,1.0,75,0.00,,---,0.00,VWS V14.01,2013-12-12 07:27:00,
2013-12-12 02:28:00,29.1,23.1,30.39,NNE,31,1.0,2.0,78,0.00,,---,0.00,VWS V14.01,2013-12-12 07:28:00,
2013-12-12 02:29:00,29.3,22.7,30.39,NNE,32,1.0,1.0,76,0.00,,---,0.00,VWS V14.01,2013-12-12 07:29:00,
2013-12-12 02:30:00,29.5,22.6,30.39,NNE,32,0.0,1.0,75,0.00,,---,0.00,VWS V14.01,2013-12-12 07:30:00,
2013-12-12 02:31:00,29.7,22.8,30.39,NNE,32,0.0,0.0,75,0.00,,---,0.00,VWS V14.01,2013-12-12 07:31:00,
2013-12-12 02:32:00,29.8,21.9,30.39,NNE,32,2.0,3.0,72,0.00,,---,0.00,VWS V14.01,2013-12-12 07:32:00,
2013-12-12 02:33:00,29.7,22.4,30.39,NNE,32,0.0,0.0,74,0.00,,---,0.00,VWS V14.01,2013-12-12 07:33:00,
2013-12-12 02:34:00,29.8,22.2,30.39,NNE,31,2.0,2.0,73,0.00,,---,0.00,VWS V14.01,2013-12-12 07:34:00,
2013-12-12 02:35:00,29.8,21.9,30.39,NNE,32,2.0,3.0,72,0.00,,---,0.00,VWS V14.01,2013-12-12 07:35:00,
2013-12-12 02:36:00,30.0,22.1,30.39,NE,39,1.0,3.0,72,0.00,,---,0.00,VWS V14.01,2013-12-12 07:36:00,
2013-12-12 02:37:00,30.0,22.4,30.40,NNE,18,0.0,1.0,73,0.00,,---,0.00,VWS V14.01,2013-12-12 07:37:00,
2013-12-12 02:38:00,30.1,21.9,30.39,NE,39,0.0,1.0,71,0.00,,---,0.00,VWS V14.01,2013-12-12 07:38:00,
2013-12-12 02:39:00,30.1,21.9,30.39,NE,38,0.0,1.0,71,0.00,,---,0.00,VWS V14.01,2013-12-12 07:39:00,
2013-12-12 02:40:00,30.0,22.4,30.40,NNE,18,0.0,1.0,73,0.00,,---,0.00,VWS V14.01,2013-12-12 07:40:00,
2013-12-12 02:41:00,29.8,22.9,30.40,NNE,19,0.0,1.0,75,0.00,,---,0.00,VWS V14.01,2013-12-12 07:41:00,
2013-12-12 02:42:00,28.7,23.3,30.40,NNE,20,0.0,0.0,80,0.00,,---,0.00,VWS V14.01,2013-12-12 07:42:00,
2013-12-12 02:43:00,29.1,23.1,30.40,NNE,18,0.0,0.0,78,0.00,,---,0.00,VWS V14.01,2013-12-12 07:43:00,
2013-12-12 02:44:00,28.9,23.5,30.40,NNE,20,0.0,1.0,80,0.00,,---,0.00,VWS V14.01,2013-12-12 07:44:00,
2013-12-12 02:45:00,28.7,23.3,30.40,NNE,20,0.0,0.0,80,0.00,,---,0.00,VWS V14.01,2013-12-12 07:45:00,
2013-12-12 02:46:00,28.4,23.0,30.40,NNE,20,0.0,0.0,80,0.00,,---,0.00,VWS V14.01,2013-12-12 07:46:00,
2013-12-12 02:47:00,28.0,22.6,30.40,NNE,25,0.0,1.0,80,0.00,,---,0.00,VWS V14.01,2013-12-12 07:47:00,
2013-12-12 02:48:00,28.2,22.8,30.40,NNE,20,0.0,1.0,80,0.00,,---,0.00,VWS V14.01,2013-12-12 07:48:00,
2013-12-12 02:49:00,28.1,22.7,30.40,NNE,20,0.0,0.0,80,0.00,,---,0.00,VWS V14.01,2013-12-12 07:49:00,
2013-12-12 02:50:00,28.0,22.6,30.40,NNE,25,0.0,1.0,80,0.00,,---,0.00,VWS V14.01,2013-12-12 07:50:00,
2013-12-12 02:51:00,28.0,22.3,30.40,NNE,24,0.0,0.0,79,0.00,,---,0.00,VWS V14.01,2013-12-12 07:51:00,
2013-12-12 02:52:00,27.7,22.0,30.39,NNE,25,0.0,1.0,79,0.00,,---,0.00,VWS V14.01,2013-12-12 07:52:00,
2013-12-12 02:53:00,27.9,21.9,30.40,NNE,25,0.0,0.0,78,0.00,,---,0.00,VWS V14.01,2013-12-12 07:53:00,
2013-12-12 02:54:00,27.8,22.1,30.39,NNE,24,0.0,1.0,79,0.00,,---,0.00,VWS V14.01,2013-12-12 07:54:00,
2013-12-12 02:55:00,27.7,22.0,30.39,NNE,25,0.0,1.0,79,0.00,,---,0.00,VWS V14.01,2013-12-12 07:55:00,
2013-12-12 02:56:00,27.7,22.4,30.39,NNE,25,0.0,1.0,80,0.00,,---,0.00,VWS V14.01,2013-12-12 07:56:00,
2013-12-12 02:57:00,27.3,21.7,30.39,NNE,25,0.0,0.0,79,0.00,,---,0.00,VWS V14.01,2013-12-12 07:57:00,
2013-12-12 02:58:00,27.5,22.1,30.39,NNE,25,0.0,0.0,80,0.00,,---,0.00,VWS V14.01,2013-12-12 07:58:00,
2013-12-12 02:59:00,27.4,21.8,30.39,NNE,25,0.0,1.0,79,0.00,,---,0.00,VWS V14.01,2013-12-12 07:59:00,
2013-12-12 03:00:00,27.3,21.7,30.39,NNE,25,0.0,0.0,79,0.00,,---,0.00,VWS V14.01,2013-12-12 08:00:00,
2013-12-12 03:01:00,27.3,21.7,30.39,NNE,25,0.0,0.0,79,0.00,,---,0.00,VWS V14.01,2013-12-12 08:01:00,
2013-12-12 03:02:00,27.2,21.3,30.39,NNE,24,0.0,1.0,78,0.00,,---,0.00,VWS V14.01,2013-12-12 08:02:00,
2013-12-12 03:03:00,27.2,21.6,30.39,NNE,25,1.0,1.0,79,0.00,,---,0.00,VWS V14.01,2013-12-12 08:03:00,
2013-12-12 03:04:00,27.2,21.3,30.39,NNE,24,0.0,1.0,78,0.00,,---,0.00,VWS V14.01,2013-12-12 08:04:00,
2013-12-12 03:05:00,27.2,21.3,30.39,NNE,24,0.0,1.0,78,0.00,,---,0.00,VWS V14.01,2013-12-12 08:05:00,
2013-12-12 03:06:00,27.2,21.3,30.39,NNE,24,0.0,0.0,78,0.00,,---,0.00,VWS V14.01,2013-12-12 08:06:00,
2013-12-12 03:07:00,27.3,21.1,30.39,NNE,31,0.0,0.0,77,0.00,,---,0.00,VWS V14.01,2013-12-12 08:07:00,
2013-12-12 03:08:00,27.2,21.3,30.39,NNE,31,0.0,1.0,78,0.00,,---,0.00,VWS V14.01,2013-12-12 08:08:00,
2013-12-12 03:09:00,27.3,21.4,30.39,NNE,31,0.0,0.0,78,0.00,,---,0.00,VWS V14.01,2013-12-12 08:09:00,
2013-12-12 03:10:00,27.3,21.1,30.39,NNE,31,0.0,0.0,77,0.00,,---,0.00,VWS V14.01,2013-12-12 08:10:00,
2013-12-12 03:11:00,27.3,21.4,30.39,NNE,32,0.0,0.0,78,0.00,,---,0.00,VWS V14.01,2013-12-12 08:11:00,
2013-12-12 03:12:00,27.0,22.0,30.39,NNE,31,0.0,0.0,81,0.00,,---,0.00,VWS V14.01,2013-12-12 08:12:00,
2013-12-12 03:13:00,27.2,21.3,30.39,NNE,31,0.0,1.0,78,0.00,,---,0.00,VWS V14.01,2013-12-12 08:13:00,
2013-12-12 03:14:00,27.1,21.8,30.39,NNE,32,0.0,0.0,80,0.00,,---,0.00,VWS V14.01,2013-12-12 08:14:00,
2013-12-12 03:15:00,27.0,22.0,30.39,NNE,31,0.0,0.0,81,0.00,,---,0.00,VWS V14.01,2013-12-12 08:15:00,
2013-12-12 03:16:00,26.4,22.0,30.39,NNE,32,0.0,0.0,83,0.00,,---,0.00,VWS V14.01,2013-12-12 08:16:00,
2013-12-12 03:17:00,26.7,22.0,30.39,NNE,31,0.0,0.0,82,0.00,,---,0.00,VWS V14.01,2013-12-12 08:17:00,
2013-12-12 03:18:00,26.6,21.9,30.39,NNE,31,0.0,0.0,82,0.00,,---,0.00,VWS V14.01,2013-12-12 08:18:00,
2013-12-12 03:19:00,26.5,22.0,30.39,NNE,31,0.0,0.0,83,0.00,,---,0.00,VWS V14.01,2013-12-12 08:19:00,
2013-12-12 03:20:00,26.4,22.0,30.39,NNE,32,0.0,0.0,83,0.00,,---,0.00,VWS V14.01,2013-12-12 08:20:00,
2013-12-12 03:21:00,26.0,21.6,30.39,NNE,32,0.0,0.0,83,0.00,,---,0.00,VWS V14.01,2013-12-12 08:21:00,
2013-12-12 03:22:00,26.2,21.8,30.39,NNE,31,0.0,1.0,83,0.00,,---,0.00,VWS V14.01,2013-12-12 08:22:00,
2013-12-12 03:23:00,26.1,21.6,30.39,NNE,31,0.0,0.0,83,0.00,,---,0.00,VWS V14.01,2013-12-12 08:23:00,
2013-12-12 03:24:00,26.0,21.6,30.39,NNE,32,0.0,0.0,83,0.00,,---,0.00,VWS V14.01,2013-12-12 08:24:00,
2013-12-12 03:25:00,26.0,21.6,30.39,NNE,32,0.0,0.0,83,0.00,,---,0.00,VWS V14.01,2013-12-12 08:25:00,
2013-12-12 03:26:00,25.7,21.0,30.39,NNE,31,0.0,0.0,82,0.00,,---,0.00,VWS V14.01,2013-12-12 08:26:00,
2013-12-12 03:27:00,25.8,21.4,30.39,NNE,31,0.0,1.0,83,0.00,,---,0.00,VWS V14.01,2013-12-12 08:27:00,
2013-12-12 03:28:00,25.8,21.1,30.39,NNE,32,0.0,0.0,82,0.00,,---,0.00,VWS V14.01,2013-12-12 08:28:00,
2013-12-12 03:29:00,25.7,21.0,30.39,NNE,32,0.0,1.0,82,0.00,,---,0.00,VWS V14.01,2013-12-12 08:29:00,
2013-12-12 03:30:00,25.7,21.0,30.39,NNE,32,0.0,0.0,82,0.00,,---,0.00,VWS V14.01,2013-12-12 08:30:00,
2013-12-12 03:31:00,25.5,21.4,30.39,NNE,31,0.0,0.0,84,0.00,,---,0.00,VWS V14.01,2013-12-12 08:31:00,
2013-12-12 03:32:00,25.7,21.3,30.39,NNE,31,0.0,0.0,83,0.00,,---,0.00,VWS V14.01,2013-12-12 08:32:00,
2013-12-12 03:33:00,25.6,21.2,30.39,NNE,32,0.0,1.0,83,0.00,,---,0.00,VWS V14.01,2013-12-12 08:33:00,
2013-12-12 03:34:00,25.6,21.5,30.39,NNE,32,0.0,0.0,84,0.00,,---,0.00,VWS V14.01,2013-12-12 08:34:00,
2013-12-12 03:35:00,25.5,21.4,30.39,NNE,31,0.0,0.0,84,0.00,,---,0.00,VWS V14.01,2013-12-12 08:35:00,
2013-12-12 03:36:00,25.2,21.0,30.39,NNE,32,0.0,0.0,84,0.00,,---,0.00,VWS V14.01,2013-12-12 08:36:00,
2013-12-12 03:37:00,25.4,21.2,30.39,NNE,32,0.0,0.0,84,0.00,,---,0.00,VWS V14.01,2013-12-12 08:37:00,
2013-12-12 03:38:00,25.3,21.1,30.39,NNE,32,0.0,0.0,84,0.00,,---,0.00,VWS V14.01,2013-12-12 08:38:00,
2013-12-12 03:39:00,25.3,21.1,30.39,NNE,32,0.0,1.0,84,0.00,,---,0.00,VWS V14.01,2013-12-12 08:39:00,
2013-12-12 03:40:00,25.2,21.0,30.39,NNE,32,0.0,0.0,84,0.00,,---,0.00,VWS V14.01,2013-12-12 08:40:00,
2013-12-12 03:41:00,24.9,20.8,30.39,NNE,32,0.0,0.0,84,0.00,,---,0.00,VWS V14.01,2013-12-12 08:41:00,
2013-12-12 03:42:00,25.1,21.0,30.39,NNE,32,0.0,0.0,84,0.00,,---,0.00,VWS V14.01,2013-12-12 08:42:00,
2013-12-12 03:43:00,25.0,20.9,30.39,NNE,32,0.0,0.0,84,0.00,,---,0.00,VWS V14.01,2013-12-12 08:43:00,
2013-12-12 03:44:00,25.0,20.9,30.39,NNE,31,0.0,0.0,84,0.00,,---,0.00,VWS V14.01,2013-12-12 08:44:00,
2013-12-12 03:45:00,24.9,20.8,30.39,NNE,32,0.0,0.0,84,0.00,,---,0.00,VWS V14.01,2013-12-12 08:45:00,
2013-12-12 03:46:00,24.9,21.0,30.38,NNE,32,0.0,0.0,85,0.00,,---,0.00,VWS V14.01,2013-12-12 08:46:00,
2013-12-12 03:47:00,24.9,20.8,30.39,NNE,31,0.0,0.0,84,0.00,,---,0.00,VWS V14.01,2013-12-12 08:47:00,
2013-12-12 03:48:00,24.9,20.8,30.39,NNE,32,0.0,1.0,84,0.00,,---,0.00,VWS V14.01,2013-12-12 08:48:00,
2013-12-12 03:49:00,24.9,20.8,30.39,NNE,32,0.0,0.0,84,0.00,,---,0.00,VWS V14.01,2013-12-12 08:49:00,
2013-12-12 03:50:00,24.9,21.0,30.38,NNE,32,0.0,0.0,85,0.00,,---,0.00,VWS V14.01,2013-12-12 08:50:00,
2013-12-12 03:51:00,24.9,21.0,30.38,NNE,31,0.0,0.0,85,0.00,,---,0.00,VWS V14.01,2013-12-12 08:51:00,
2013-12-12 03:52:00,24.9,21.0,30.39,NNE,31,0.0,0.0,85,0.00,,---,0.00,VWS V14.01,2013-12-12 08:52:00,
2013-12-12 03:53:00,24.9,21.0,30.39,NNE,32,0.0,0.0,85,0.00,,---,0.00,VWS V14.01,2013-12-12 08:53:00,
2013-12-12 03:54:00,24.9,21.0,30.38,NNE,31,0.0,0.0,85,0.00,,---,0.00,VWS V14.01,2013-12-12 08:54:00,
2013-12-12 03:55:00,24.8,20.9,30.39,NNE,32,0.0,0.0,85,0.00,,---,0.00,VWS V14.01,2013-12-12 08:55:00,
2013-12-12 03:56:00,24.6,21.0,30.38,NNE,32,0.0,0.0,86,0.00,,---,0.00,VWS V14.01,2013-12-12 08:56:00,
2013-12-12 03:57:00,24.8,20.9,30.39,NNE,31,0.0,0.0,85,0.00,,---,0.00,VWS V14.01,2013-12-12 08:57:00,
2013-12-12 03:58:00,24.7,21.1,30.39,NNE,32,0.0,0.0,86,0.00,,---,0.00,VWS V14.01,2013-12-12 08:58:00,
2013-12-12 03:59:00,24.7,21.1,30.38,NNE,31,0.0,0.0,86,0.00,,---,0.00,VWS V14.01,2013-12-12 08:59:00,
2013-12-12 04:00:00,24.6,21.0,30.39,NNE,31,0.0,0.0,86,0.00,,---,0.00,VWS V14.01,2013-12-12 09:00:00,
2013-12-12 04:01:00,24.3,20.7,30.38,NNE,31,0.0,0.0,86,0.00,,---,0.00,VWS V14.01,2013-12-12 09:01:00,
2013-12-12 04:02:00,24.5,20.9,30.39,NNE,32,0.0,0.0,86,0.00,,---,0.00,VWS V14.01,2013-12-12 09:02:00,
2013-12-12 04:03:00,24.4,20.8,30.38,NNE,32,0.0,0.0,86,0.00,,---,0.00,VWS V14.01,2013-12-12 09:03:00,
2013-12-12 04:04:00,24.3,20.7,30.38,NNE,32,0.0,0.0,86,0.00,,---,0.00,VWS V14.01,2013-12-12 09:04:00,
2013-12-12 04:05:00,24.3,20.7,30.38,NNE,31,0.0,0.0,86,0.00,,---,0.00,VWS V14.01,2013-12-12 09:05:00,
2013-12-12 04:06:00,24.1,20.8,30.38,NNE,32,0.0,0.0,87,0.00,,---,0.00,VWS V14.01,2013-12-12 09:06:00,
2013-12-12 04:07:00,24.2,20.6,30.38,NNE,31,0.0,0.0,86,0.00,,---,0.00,VWS V14.01,2013-12-12 09:07:00,
2013-12-12 04:08:00,24.2,20.6,30.38,NNE,32,0.0,1.0,86,0.00,,---,0.00,VWS V14.01,2013-12-12 09:08:00,
2013-12-12 04:09:00,24.2,20.9,30.38,NNE,31,0.0,0.0,87,0.00,,---,0.00,VWS V14.01,2013-12-12 09:09:00,
2013-12-12 04:10:00,24.1,20.8,30.38,NNE,31,0.0,0.0,87,0.00,,---,0.00,VWS V14.01,2013-12-12 09:10:00,
2013-12-12 04:11:00,23.8,20.5,30.38,NNE,31,0.0,0.0,87,0.00,,---,0.00,VWS V14.01,2013-12-12 09:11:00,
2013-12-12 04:12:00,24.0,20.7,30.38,NNE,32,0.0,0.0,87,0.00,,---,0.00,VWS V14.01,2013-12-12 09:12:00,
2013-12-12 04:13:00,24.0,20.7,30.38,NNE,31,0.0,0.0,87,0.00,,---,0.00,VWS V14.01,2013-12-12 09:13:00,
2013-12-12 04:14:00,23.9,20.6,30.38,NNE,31,0.0,0.0,87,0.00,,---,0.00,VWS V14.01,2013-12-12 09:14:00,
2013-12-12 04:15:00,23.8,20.5,30.39,NNE,32,0.0,0.0,87,0.00,,---,0.00,VWS V14.01,2013-12-12 09:15:00,
2013-12-12 04:16:00,23.6,20.6,30.38,NNE,32,0.0,0.0,88,0.00,,---,0.00,VWS V14.01,2013-12-12 09:16:00,
2013-12-12 04:17:00,23.7,20.7,30.38,NNE,32,0.0,0.0,88,0.00,,---,0.00,VWS V14.01,2013-12-12 09:17:00,
2013-12-12 04:18:00,23.7,20.7,30.38,NNE,32,0.0,0.0,88,0.00,,---,0.00,VWS V14.01,2013-12-12 09:18:00,
2013-12-12 04:19:00,23.7,20.7,30.38,NNE,32,0.0,0.0,88,0.00,,---,0.00,VWS V14.01,2013-12-12 09:19:00,
2013-12-12 04:20:00,23.6,20.6,30.38,NNE,31,0.0,0.0,88,0.00,,---,0.00,VWS V14.01,2013-12-12 09:20:00,
2013-12-12 04:21:00,23.5,20.7,30.38,NNE,32,0.0,0.0,89,0.00,,---,0.00,VWS V14.01,2013-12-12 09:21:00,
2013-12-12 04:22:00,23.6,20.6,30.38,NNE,31,0.0,0.0,88,0.00,,---,0.00,VWS V14.01,2013-12-12 09:22:00,
2013-12-12 04:23:00,23.6,20.6,30.38,NNE,31,0.0,0.0,88,0.00,,---,0.00,VWS V14.01,2013-12-12 09:23:00,
2013-12-12 04:24:00,23.6,20.8,30.38,NNE,32,0.0,0.0,89,0.00,,---,0.00,VWS V14.01,2013-12-12 09:24:00,
2013-12-12 04:25:00,23.5,20.7,30.38,NNE,32,0.0,0.0,89,0.00,,---,0.00,VWS V14.01,2013-12-12 09:25:00,
2013-12-12 04:26:00,23.5,20.7,30.38,NNE,31,0.0,0.0,89,0.00,,---,0.00,VWS V14.01,2013-12-12 09:26:00,
2013-12-12 04:27:00,23.5,20.7,30.38,NNE,31,0.0,0.0,89,0.00,,---,0.00,VWS V14.01,2013-12-12 09:27:00,
2013-12-12 04:28:00,23.5,20.7,30.38,NNE,31,0.0,0.0,89,0.00,,---,0.00,VWS V14.01,2013-12-12 09:28:00,
2013-12-12 04:29:00,23.5,20.7,30.38,NNE,31,0.0,0.0,89,0.00,,---,0.00,VWS V14.01,2013-12-12 09:29:00,
2013-12-12 04:30:00,23.5,20.7,30.38,NNE,31,0.0,0.0,89,0.00,,---,0.00,VWS V14.01,2013-12-12 09:30:00,
2013-12-12 04:31:00,23.4,20.6,30.38,NNE,31,0.0,0.0,89,0.00,,---,0.00,VWS V14.01,2013-12-12 09:31:00,
2013-12-12 04:32:00,23.5,20.7,30.38,NNE,31,0.0,0.0,89,0.00,,---,0.00,VWS V14.01,2013-12-12 09:32:00,
2013-12-12 04:33:00,23.5,20.7,30.38,NNE,31,0.0,0.0,89,0.00,,---,0.00,VWS V14.01,2013-12-12 09:33:00,
2013-12-12 04:34:00,23.5,20.7,30.38,NNE,32,0.0,0.0,89,0.00,,---,0.00,VWS V14.01,2013-12-12 09:34:00,
2013-12-12 04:35:00,23.4,20.6,30.38,NNE,31,0.0,0.0,89,0.00,,---,0.00,VWS V14.01,2013-12-12 09:35:00,
2013-12-12 04:36:00,23.3,20.5,30.38,NNE,32,0.0,0.0,89,0.00,,---,0.00,VWS V14.01,2013-12-12 09:36:00,
2013-12-12 04:37:00,23.4,20.6,30.38,NNE,32,0.0,0.0,89,0.00,,---,0.00,VWS V14.01,2013-12-12 09:37:00,
2013-12-12 04:38:00,23.4,20.6,30.38,NNE,32,0.0,0.0,89,0.00,,---,0.00,VWS V14.01,2013-12-12 09:38:00,
2013-12-12 04:39:00,23.4,20.6,30.38,NNE,32,0.0,0.0,89,0.00,,---,0.00,VWS V14.01,2013-12-12 09:39:00,
2013-12-12 04:40:00,23.4,20.6,30.38,NNE,32,0.0,0.0,89,0.00,,---,0.00,VWS V14.01,2013-12-12 09:40:00,
2013-12-12 04:41:00,23.2,20.7,30.38,NNE,31,0.0,0.0,90,0.00,,---,0.00,VWS V14.01,2013-12-12 09:41:00,
2013-12-12 04:42:00,23.3,20.5,30.38,NNE,31,0.0,0.0,89,0.00,,---,0.00,VWS V14.01,2013-12-12 09:42:00,
2013-12-12 04:43:00,23.3,20.5,30.38,NNE,31,0.0,0.0,89,0.00,,---,0.00,VWS V14.01,2013-12-12 09:43:00,
2013-12-12 04:44:00,23.2,20.7,30.38,NNE,32,0.0,0.0,90,0.00,,---,0.00,VWS V14.01,2013-12-12 09:44:00,
2013-12-12 04:45:00,23.2,20.7,30.38,NNE,32,0.0,0.0,90,0.00,,---,0.00,VWS V14.01,2013-12-12 09:45:00,
2013-12-12 04:46:00,23.3,20.8,30.38,NNE,31,0.0,0.0,90,0.00,,---,0.00,VWS V14.01,2013-12-12 09:46:00,
2013-12-12 04:47:00,23.2,20.7,30.38,NNE,31,0.0,0.0,90,0.00,,---,0.00,VWS V14.01,2013-12-12 09:47:00,
2013-12-12 04:48:00,23.2,20.7,30.38,NNE,31,0.0,0.0,90,0.00,,---,0.00,VWS V14.01,2013-12-12 09:48:00,
2013-12-12 04:49:00,23.2,20.7,30.38,NNE,32,0.0,0.0,90,0.00,,---,0.00,VWS V14.01,2013-12-12 09:49:00,
2013-12-12 04:50:00,23.2,20.7,30.38,NNE,32,0.0,0.0,90,0.00,,---,0.00,VWS V14.01,2013-12-12 09:50:00,
2013-12-12 04:51:00,23.2,20.7,30.38,NNE,32,0.0,0.0,90,0.00,,---,0.00,VWS V14.01,2013-12-12 09:51:00,
2013-12-12 04:52:00,23.3,20.8,30.38,NNE,32,0.0,0.0,90,0.00,,---,0.00,VWS V14.01,2013-12-12 09:52:00,
2013-12-12 04:53:00,23.3,20.8,30.38,NNE,31,0.0,0.0,90,0.00,,---,0.00,VWS V14.01,2013-12-12 09:53:00,
2013-12-12 04:54:00,23.2,20.7,30.38,NNE,32,0.0,0.0,90,0.00,,---,0.00,VWS V14.01,2013-12-12 09:54:00,
2013-12-12 04:55:00,23.2,20.7,30.38,NNE,31,0.0,0.0,90,0.00,,---,0.00,VWS V14.01,2013-12-12 09:55:00,
2013-12-12 04:56:00,23.2,20.7,30.38,NNE,31,0.0,0.0,90,0.00,,---,0.00,VWS V14.01,2013-12-12 09:56:00,
2013-12-12 04:57:00,23.2,20.7,30.38,NNE,32,0.0,0.0,90,0.00,,---,0.00,VWS V14.01,2013-12-12 09:57:00,
2013-12-12 04:58:00,23.2,20.7,30.38,NNE,31,0.0,0.0,90,0.00,,---,0.00,VWS V14.01,2013-12-12 09:58:00,
2013-12-12 04:59:00,23.2,20.7,30.38,NNE,31,0.0,0.0,90,0.00,,---,0.00,VWS V14.01,2013-12-12 09:59:00,
2013-12-12 05:00:00,23.2,20.7,30.38,NNE,32,0.0,0.0,90,0.00,,---,0.00,VWS V14.01,2013-12-12 10:00:00,
2013-12-12 05:01:00,23.1,20.6,30.38,NNE,32,0.0,0.0,90,0.00,,---,0.00,VWS V14.01,2013-12-12 10:01:00,
2013-12-12 05:02:00,23.2,20.7,30.38,NNE,31,0.0,0.0,90,0.00,,---,0.00,VWS V14.01,2013-12-12 10:02:00,
2013-12-12 05:03:00,23.2,20.7,30.38,NNE,32,0.0,0.0,90,0.00,,---,0.00,VWS V14.01,2013-12-12 10:03:00,
2013-12-12 05:04:00,23.1,20.6,30.38,NNE,31,0.0,0.0,90,0.00,,---,0.00,VWS V14.01,2013-12-12 10:04:00,
2013-12-12 05:05:00,23.1,20.6,30.38,NNE,32,0.0,0.0,90,0.00,,---,0.00,VWS V14.01,2013-12-12 10:05:00,
2013-12-12 05:06:00,22.9,20.4,30.38,NNE,31,0.0,1.0,90,0.00,,---,0.00,VWS V14.01,2013-12-12 10:06:00,
2013-12-12 05:07:00,23.0,20.5,30.38,NNE,32,1.0,1.0,90,0.00,,---,0.00,VWS V14.01,2013-12-12 10:07:00,
2013-12-12 05:08:00,22.9,20.4,30.38,NNE,32,0.0,1.0,90,0.00,,---,0.00,VWS V14.01,2013-12-12 10:08:00,
2013-12-12 05:09:00,22.9,20.4,30.38,NNE,32,0.0,1.0,90,0.00,,---,0.00,VWS V14.01,2013-12-12 10:09:00,
2013-12-12 05:10:00,22.9,20.4,30.38,NNE,31,0.0,1.0,90,0.00,,---,0.00,VWS V14.01,2013-12-12 10:10:00,
2013-12-12 05:11:00,22.9,20.4,30.38,NNE,31,0.0,0.0,90,0.00,,---,0.00,VWS V14.01,2013-12-12 10:11:00,
2013-12-12 05:12:00,22.8,20.3,30.38,NNE,32,0.0,0.0,90,0.00,,---,0.00,VWS V14.01,2013-12-12 10:12:00,
2013-12-12 05:13:00,22.9,20.4,30.38,NNE,31,0.0,0.0,90,0.00,,---,0.00,VWS V14.01,2013-12-12 10:13:00,
2013-12-12 05:14:00,22.9,20.4,30.38,NNE,31,0.0,0.0,90,0.00,,---,0.00,VWS V14.01,2013-12-12 10:14:00,
2013-12-12 05:15:00,22.9,20.4,30.38,NNE,31,0.0,0.0,90,0.00,,---,0.00,VWS V14.01,2013-12-12 10:15:00,
2013-12-12 05:16:00,22.8,20.3,30.38,NNE,31,0.0,0.0,90,0.00,,---,0.00,VWS V14.01,2013-12-12 10:16:00,
2013-12-12 05:17:00,22.8,20.3,30.38,NNE,31,0.0,0.0,90,0.00,,---,0.00,VWS V14.01,2013-12-12 10:17:00,
2013-12-12 05:18:00,22.8,20.3,30.38,NNE,31,0.0,0.0,90,0.00,,---,0.00,VWS V14.01,2013-12-12 10:18:00,
2013-12-12 05:19:00,22.8,20.3,30.38,NNE,31,0.0,0.0,90,0.00,,---,0.00,VWS V14.01,2013-12-12 10:19:00,
2013-12-12 05:20:00,22.8,20.3,30.38,NNE,31,0.0,0.0,90,0.00,,---,0.00,VWS V14.01,2013-12-12 10:20:00,
2013-12-12 05:21:00,22.6,20.1,30.38,NNE,32,0.0,0.0,90,0.00,,---,0.00,VWS V14.01,2013-12-12 10:21:00,
2013-12-12 05:22:00,22.7,20.2,30.38,NNE,32,0.0,0.0,90,0.00,,---,0.00,VWS V14.01,2013-12-12 10:22:00,
2013-12-12 05:23:00,22.7,20.2,30.38,NNE,31,0.0,0.0,90,0.00,,---,0.00,VWS V14.01,2013-12-12 10:23:00,
2013-12-12 05:24:00,22.7,20.2,30.38,NNE,32,0.0,0.0,90,0.00,,---,0.00,VWS V14.01,2013-12-12 10:24:00,
2013-12-12 05:25:00,22.6,20.1,30.38,NNE,32,0.0,0.0,90,0.00,,---,0.00,VWS V14.01,2013-12-12 10:25:00,
2013-12-12 05:26:00,22.5,20.0,30.39,NNE,31,0.0,0.0,90,0.00,,---,0.00,VWS V14.01,2013-12-12 10:26:00,
2013-12-12 05:27:00,22.6,20.1,30.39,NNE,32,0.0,1.0,90,0.00,,---,0.00,VWS V14.01,2013-12-12 10:27:00,
2013-12-12 05:28:00,22.6,20.1,30.39,NNE,31,0.0,0.0,90,0.00,,---,0.00,VWS V14.01,2013-12-12 10:28:00,
2013-12-12 05:29:00,22.6,20.1,30.39,NNE,32,0.0,1.0,90,0.00,,---,0.00,VWS V14.01,2013-12-12 10:29:00,
2013-12-12 05:30:00,22.5,20.0,30.39,NNE,32,0.0,0.0,90,0.00,,---,0.00,VWS V14.01,2013-12-12 10:30:00,
2013-12-12 05:31:00,22.5,20.3,30.39,NNE,31,0.0,0.0,91,0.00,,---,0.00,VWS V14.01,2013-12-12 10:31:00,
2013-12-12 05:32:00,22.5,20.0,30.39,NNE,31,1.0,1.0,90,0.00,,---,0.00,VWS V14.01,2013-12-12 10:32:00,
2013-12-12 05:33:00,22.5,20.0,30.39,NNE,32,0.0,1.0,90,0.00,,---,0.00,VWS V14.01,2013-12-12 10:33:00,
2013-12-12 05:34:00,22.5,20.3,30.39,NNE,32,0.0,0.0,91,0.00,,---,0.00,VWS V14.01,2013-12-12 10:34:00,
2013-12-12 05:35:00,22.5,20.3,30.39,NNE,31,0.0,0.0,91,0.00,,---,0.00,VWS V14.01,2013-12-12 10:35:00,
2013-12-12 05:36:00,22.3,20.1,30.39,NNE,31,0.0,0.0,91,0.00,,---,0.00,VWS V14.01,2013-12-12 10:36:00,
2013-12-12 05:37:00,22.4,20.2,30.39,NNE,31,0.0,0.0,91,0.00,,---,0.00,VWS V14.01,2013-12-12 10:37:00,
2013-12-12 05:38:00,22.4,20.2,30.39,NNE,32,0.0,0.0,91,0.00,,---,0.00,VWS V14.01,2013-12-12 10:38:00,
2013-12-12 05:39:00,22.4,20.2,30.39,NNE,32,0.0,0.0,91,0.00,,---,0.00,VWS V14.01,2013-12-12 10:39:00,
2013-12-12 05:40:00,22.3,20.1,30.39,NNE,32,0.0,0.0,91,0.00,,---,0.00,VWS V14.01,2013-12-12 10:40:00,
2013-12-12 05:41:00,22.3,20.1,30.39,NNE,31,0.0,0.0,91,0.00,,---,0.00,VWS V14.01,2013-12-12 10:41:00,
2013-12-12 05:42:00,22.3,20.1,30.39,NNE,32,0.0,0.0,91,0.00,,---,0.00,VWS V14.01,2013-12-12 10:42:00,
2013-12-12 05:43:00,22.3,20.1,30.39,NNE,32,0.0,0.0,91,0.00,,---,0.00,VWS V14.01,2013-12-12 10:43:00,
2013-12-12 05:44:00,22.3,20.1,30.39,NNE,31,0.0,0.0,91,0.00,,---,0.00,VWS V14.01,2013-12-12 10:44:00,
2013-12-12 05:45:00,22.2,20.0,30.39,NNE,32,0.0,0.0,91,0.00,,---,0.00,VWS V14.01,2013-12-12 10:45:00,
2013-12-12 05:46:00,22.1,19.9,30.39,NNE,32,0.0,0.0,91,0.00,,---,0.00,VWS V14.01,2013-12-12 10:46:00,
2013-12-12 05:47:00,22.2,20.0,30.39,NNE,31,0.0,0.0,91,0.00,,---,0.00,VWS V14.01,2013-12-12 10:47:00,
2013-12-12 05:48:00,22.1,19.9,30.39,NNE,32,0.0,0.0,91,0.00,,---,0.00,VWS V14.01,2013-12-12 10:48:00,
2013-12-12 05:49:00,22.1,19.9,30.39,NNE,31,0.0,0.0,91,0.00,,---,0.00,VWS V14.01,2013-12-12 10:49:00,
2013-12-12 05:50:00,22.1,19.9,30.39,NNE,31,0.0,0.0,91,0.00,,---,0.00,VWS V14.01,2013-12-12 10:50:00,
2013-12-12 05:51:00,22.0,19.8,30.39,NNE,31,0.0,0.0,91,0.00,,---,0.00,VWS V14.01,2013-12-12 10:51:00,
2013-12-12 05:52:00,22.1,19.9,30.39,NNE,31,0.0,0.0,91,0.00,,---,0.00,VWS V14.01,2013-12-12 10:52:00,
2013-12-12 05:53:00,22.1,19.9,30.39,NNE,31,0.0,0.0,91,0.00,,---,0.00,VWS V14.01,2013-12-12 10:53:00,
2013-12-12 05:54:00,22.0,19.8,30.39,NNE,31,0.0,0.0,91,0.00,,---,0.00,VWS V14.01,2013-12-12 10:54:00,
2013-12-12 05:55:00,22.0,19.8,30.39,NNE,31,0.0,0.0,91,0.00,,---,0.00,VWS V14.01,2013-12-12 10:55:00,
2013-12-12 05:56:00,21.9,19.7,30.39,NNE,31,0.0,0.0,91,0.00,,---,0.00,VWS V14.01,2013-12-12 10:56:00,
2013-12-12 05:57:00,22.0,19.8,30.39,NNE,32,0.0,0.0,91,0.00,,---,0.00,VWS V14.01,2013-12-12 10:57:00,
2013-12-12 05:58:00,21.9,19.7,30.39,NNE,31,0.0,0.0,91,0.00,,---,0.00,VWS V14.01,2013-12-12 10:58:00,
2013-12-12 05:59:00,21.9,19.7,30.39,NNE,32,0.0,0.0,91,0.00,,---,0.00,VWS V14.01,2013-12-12 10:59:00,
2013-12-12 06:00:00,21.9,19.7,30.39,NNE,31,0.0,0.0,91,0.00,,---,0.00,VWS V14.01,2013-12-12 11:00:00,
2013-12-12 06:01:00,21.9,19.7,30.39,NNE,31,0.0,0.0,91,0.00,,---,0.00,VWS V14.01,2013-12-12 11:01:00,
2013-12-12 06:02:00,21.9,19.7,30.39,NNE,31,0.0,0.0,91,0.00,,---,0.00,VWS V14.01,2013-12-12 11:02:00,
2013-12-12 06:03:00,21.9,19.7,30.39,NNE,32,0.0,0.0,91,0.00,,---,0.00,VWS V14.01,2013-12-12 11:03:00,
2013-12-12 06:04:00,21.9,19.7,30.39,NNE,31,0.0,1.0,91,0.00,,---,0.00,VWS V14.01,2013-12-12 11:04:00,
2013-12-12 06:05:00,21.9,19.7,30.39,NNE,32,0.0,0.0,91,0.00,,---,0.00,VWS V14.01,2013-12-12 11:05:00,
2013-12-12 06:06:00,21.9,19.7,30.40,NNE,32,0.0,0.0,91,0.00,,---,0.00,VWS V14.01,2013-12-12 11:06:00,
2013-12-12 06:07:00,21.9,19.7,30.40,NNE,32,1.0,1.0,91,0.00,,---,0.00,VWS V14.01,2013-12-12 11:07:00,
2013-12-12 06:08:00,21.9,19.7,30.40,NNE,32,0.0,1.0,91,0.00,,---,0.00,VWS V14.01,2013-12-12 11:08:00,
2013-12-12 06:09:00,21.9,19.7,30.40,NNE,31,0.0,0.0,91,0.00,,---,0.00,VWS V14.01,2013-12-12 11:09:00,
2013-12-12 06:10:00,21.9,19.7,30.39,NNE,32,0.0,0.0,91,0.00,,---,0.00,VWS V14.01,2013-12-12 11:10:00,
2013-12-12 06:11:00,21.8,19.6,30.40,NNE,31,0.0,0.0,91,0.00,,---,0.00,VWS V14.01,2013-12-12 11:11:00,
2013-12-12 06:12:00,21.8,19.6,30.39,NNE,31,0.0,0.0,91,0.00,,---,0.00,VWS V14.01,2013-12-12 11:12:00,
2013-12-12 06:13:00,21.8,19.6,30.40,NNE,32,0.0,0.0,91,0.00,,---,0.00,VWS V14.01,2013-12-12 11:13:00,
2013-12-12 06:14:00,21.8,19.6,30.40,NNE,31,0.0,0.0,91,0.00,,---,0.00,VWS V14.01,2013-12-12 11:14:00,
2013-12-12 06:15:00,21.8,19.6,30.40,NNE,32,0.0,0.0,91,0.00,,---,0.00,VWS V14.01,2013-12-12 11:15:00,
2013-12-12 06:16:00,21.7,19.7,30.40,NNE,31,0.0,0.0,92,0.00,,---,0.00,VWS V14.01,2013-12-12 11:16:00,
2013-12-12 06:17:00,21.7,19.5,30.40,NNE,32,0.0,0.0,91,0.00,,---,0.00,VWS V14.01,2013-12-12 11:17:00,
2013-12-12 06:18:00,21.7,19.5,30.40,NNE,32,0.0,0.0,91,0.00,,---,0.00,VWS V14.01,2013-12-12 11:18:00,
2013-12-12 06:19:00,21.7,19.7,30.40,NNE,31,0.0,0.0,92,0.00,,---,0.00,VWS V14.01,2013-12-12 11:19:00,
2013-12-12 06:20:00,21.7,19.7,30.40,NNE,32,0.0,0.0,92,0.00,,---,0.00,VWS V14.01,2013-12-12 11:20:00,
2013-12-12 06:21:00,21.6,19.6,30.40,NNE,32,0.0,0.0,92,0.00,,---,0.00,VWS V14.01,2013-12-12 11:21:00,
2013-12-12 06:22:00,21.7,19.7,30.40,NNE,32,0.0,0.0,92,0.00,,---,0.00,VWS V14.01,2013-12-12 11:22:00,
2013-12-12 06:23:00,21.6,19.6,30.40,NNE,32,0.0,0.0,92,0.00,,---,0.00,VWS V14.01,2013-12-12 11:23:00,
2013-12-12 06:24:00,21.6,19.6,30.40,NNE,31,0.0,0.0,92,0.00,,---,0.00,VWS V14.01,2013-12-12 11:24:00,
2013-12-12 06:25:00,21.6,19.6,30.40,NNE,31,0.0,0.0,92,0.00,,---,0.00,VWS V14.01,2013-12-12 11:25:00,
2013-12-12 06:26:00,21.5,19.5,30.40,NNE,32,1.0,1.0,92,0.00,,---,0.00,VWS V14.01,2013-12-12 11:26:00,
2013-12-12 06:27:00,21.6,19.6,30.40,NNE,31,0.0,0.0,92,0.00,,---,0.00,VWS V14.01,2013-12-12 11:27:00,
2013-12-12 06:28:00,21.5,19.5,30.40,NNE,31,0.0,1.0,92,0.00,,---,0.00,VWS V14.01,2013-12-12 11:28:00,
2013-12-12 06:29:00,21.5,19.5,30.40,NNE,32,1.0,1.0,92,0.00,,---,0.00,VWS V14.01,2013-12-12 11:29:00,
2013-12-12 06:30:00,21.5,19.5,30.40,NNE,32,0.0,1.0,92,0.00,,---,0.00,VWS V14.01,2013-12-12 11:30:00,
2013-12-12 06:31:00,21.5,19.5,30.41,NNE,31,0.0,0.0,92,0.00,,---,0.00,VWS V14.01,2013-12-12 11:31:00,
2013-12-12 06:32:00,21.5,19.5,30.41,NNE,32,0.0,1.0,92,0.00,,---,0.00,VWS V14.01,2013-12-12 11:32:00,
2013-12-12 06:33:00,21.5,19.5,30.41,NNE,32,1.0,1.0,92,0.00,,---,0.00,VWS V14.01,2013-12-12 11:33:00,
2013-12-12 06:34:00,21.5,19.5,30.41,NNE,32,0.0,1.0,92,0.00,,---,0.00,VWS V14.01,2013-12-12 11:34:00,
2013-12-12 06:35:00,21.5,19.5,30.41,NNE,31,0.0,0.0,92,0.00,,---,0.00,VWS V14.01,2013-12-12 11:35:00,
2013-12-12 06:36:00,21.5,19.5,30.41,NNE,32,0.0,0.0,92,0.00,,---,0.00,VWS V14.01,2013-12-12 11:36:00,
2013-12-12 06:37:00,21.5,19.5,30.41,NNE,32,0.0,1.0,92,0.00,,---,0.00,VWS V14.01,2013-12-12 11:37:00,
2013-12-12 06:38:00,21.5,19.5,30.41,NNE,31,0.0,0.0,92,0.00,,---,0.00,VWS V14.01,2013-12-12 11:38:00,
2013-12-12 06:39:00,21.5,19.5,30.41,NNE,32,0.0,0.0,92,0.00,,---,0.00,VWS V14.01,2013-12-12 11:39:00,
2013-12-12 06:40:00,21.5,19.5,30.41,NNE,32,0.0,0.0,92,0.00,,---,0.00,VWS V14.01,2013-12-12 11:40:00,
2013-12-12 06:41:00,21.6,19.6,30.42,NNE,32,0.0,0.0,92,0.00,,---,0.00,VWS V14.01,2013-12-12 11:41:00,
2013-12-12 06:42:00,21.5,19.5,30.41,NNE,32,0.0,0.0,92,0.00,,---,0.00,VWS V14.01,2013-12-12 11:42:00,
2013-12-12 06:43:00,21.5,19.5,30.42,NNE,32,0.0,0.0,92,0.00,,---,0.00,VWS V14.01,2013-12-12 11:43:00,
2013-12-12 06:44:00,21.6,19.6,30.42,NNE,32,0.0,0.0,92,0.00,,---,0.00,VWS V14.01,2013-12-12 11:44:00,
2013-12-12 06:45:00,21.5,19.5,30.42,NNE,31,0.0,0.0,92,0.00,,---,0.00,VWS V14.01,2013-12-12 11:45:00,
2013-12-12 06:46:00,21.4,19.4,30.42,NNE,32,0.0,0.0,92,0.00,,---,0.00,VWS V14.01,2013-12-12 11:46:00,
2013-12-12 06:47:00,21.5,19.5,30.42,NNE,32,0.0,0.0,92,0.00,,---,0.00,VWS V14.01,2013-12-12 11:47:00,
2013-12-12 06:48:00,21.5,19.5,30.42,NNE,32,0.0,0.0,92,0.00,,---,0.00,VWS V14.01,2013-12-12 11:48:00,
2013-12-12 06:49:00,21.5,19.5,30.42,NNE,32,0.0,0.0,92,0.00,,---,0.00,VWS V14.01,2013-12-12 11:49:00,
2013-12-12 06:50:00,21.4,19.4,30.42,NNE,32,0.0,0.0,92,0.00,,---,0.00,VWS V14.01,2013-12-12 11:50:00,
2013-12-12 06:51:00,21.1,19.1,30.42,NNE,32,0.0,0.0,92,0.00,,---,0.00,VWS V14.01,2013-12-12 11:51:00,
2013-12-12 06:52:00,21.3,19.3,30.42,NNE,32,0.0,0.0,92,0.00,,---,0.00,VWS V14.01,2013-12-12 11:52:00,
2013-12-12 06:53:00,21.2,19.2,30.42,NNE,32,0.0,0.0,92,0.00,,---,0.00,VWS V14.01,2013-12-12 11:53:00,
2013-12-12 06:54:00,21.2,19.2,30.42,NNE,32,0.0,0.0,92,0.00,,---,0.00,VWS V14.01,2013-12-12 11:54:00,
2013-12-12 06:55:00,21.1,19.1,30.42,NNE,31,0.0,0.0,92,0.00,,---,0.00,VWS V14.01,2013-12-12 11:55:00,
2013-12-12 06:56:00,20.9,19.0,30.42,NNE,32,0.0,0.0,92,0.00,,---,0.00,VWS V14.01,2013-12-12 11:56:00,
2013-12-12 06:57:00,21.0,19.0,30.42,NNE,32,0.0,0.0,92,0.00,,---,0.00,VWS V14.01,2013-12-12 11:57:00,
2013-12-12 06:58:00,21.0,19.0,30.42,NNE,32,0.0,0.0,92,0.00,,---,0.00,VWS V14.01,2013-12-12 11:58:00,
2013-12-12 06:59:00,20.9,19.0,30.42,NNE,31,0.0,0.0,92,0.00,,---,0.00,VWS V14.01,2013-12-12 11:59:00,
2013-12-12 07:00:00,20.9,19.0,30.43,NNE,31,0.0,0.0,92,0.00,,---,0.00,VWS V14.01,2013-12-12 12:00:00,
2013-12-12 07:01:00,20.9,19.0,30.43,NNE,32,0.0,0.0,92,0.00,,---,0.00,VWS V14.01,2013-12-12 12:01:00,
2013-12-12 07:02:00,20.9,19.0,30.43,NNE,31,0.0,0.0,92,0.00,,---,0.00,VWS V14.01,2013-12-12 12:02:00,
2013-12-12 07:03:00,20.9,19.0,30.43,NNE,31,0.0,0.0,92,0.00,,---,0.00,VWS V14.01,2013-12-12 12:03:00,
2013-12-12 07:04:00,20.9,19.0,30.43,NNE,31,0.0,0.0,92,0.00,,---,0.00,VWS V14.01,2013-12-12 12:04:00,
2013-12-12 07:05:00,20.8,18.9,30.43,NNE,32,0.0,0.0,92,0.00,,---,0.00,VWS V14.01,2013-12-12 12:05:00,
2013-12-12 07:06:00,20.7,18.8,30.43,NNE,31,0.0,0.0,92,0.00,,---,0.00,VWS V14.01,2013-12-12 12:06:00,
2013-12-12 07:07:00,20.8,18.9,30.43,NNE,32,0.0,0.0,92,0.00,,---,0.00,VWS V14.01,2013-12-12 12:07:00,
2013-12-12 07:08:00,20.7,18.8,30.43,NNE,31,0.0,0.0,92,0.00,,---,0.00,VWS V14.01,2013-12-12 12:08:00,
2013-12-12 07:09:00,20.7,18.8,30.43,NNE,31,0.0,0.0,92,0.00,,---,0.00,VWS V14.01,2013-12-12 12:09:00,
2013-12-12 07:10:00,20.7,18.8,30.43,NNE,32,0.0,0.0,92,0.00,,---,0.00,VWS V14.01,2013-12-12 12:10:00,
2013-12-12 07:11:00,20.5,18.5,30.43,NNE,31,0.0,0.0,92,0.00,,---,0.00,VWS V14.01,2013-12-12 12:11:00,
2013-12-12 07:12:00,20.6,18.6,30.43,NNE,31,0.0,0.0,92,0.00,,---,0.00,VWS V14.01,2013-12-12 12:12:00,
2013-12-12 07:13:00,20.6,18.6,30.43,NNE,32,0.0,0.0,92,0.00,,---,0.00,VWS V14.01,2013-12-12 12:13:00,
2013-12-12 07:14:00,20.6,18.6,30.43,NNE,32,0.0,1.0,92,0.00,,---,0.00,VWS V14.01,2013-12-12 12:14:00,
2013-12-12 07:15:00,20.6,18.6,30.43,NNE,31,0.0,0.0,92,0.00,,---,0.00,VWS V14.01,2013-12-12 12:15:00,
2013-12-12 07:16:00,20.5,18.5,30.43,NNE,31,0.0,0.0,92,0.00,,---,0.00,VWS V14.01,2013-12-12 12:16:00,
2013-12-12 07:17:00,20.5,18.5,30.43,NNE,31,0.0,0.0,92,0.00,,---,0.00,VWS V14.01,2013-12-12 12:17:00,
2013-12-12 07:18:00,20.5,18.5,30.43,NNE,31,0.0,0.0,92,0.00,,---,0.00,VWS V14.01,2013-12-12 12:18:00,
2013-12-12 07:19:00,20.5,18.5,30.43,NNE,31,0.0,0.0,92,0.00,,---,0.00,VWS V14.01,2013-12-12 12:19:00,
2013-12-12 07:20:00,20.5,18.5,30.43,NNE,32,0.0,0.0,92,0.00,,---,0.00,VWS V14.01,2013-12-12 12:20:00,
2013-12-12 07:21:00,20.5,18.5,30.43,NNE,31,0.0,0.0,92,0.00,,---,0.00,VWS V14.01,2013-12-12 12:21:00,
2013-12-12 07:22:00,20.5,18.5,30.44,NNE,31,0.0,0.0,92,0.00,,---,0.00,VWS V14.01,2013-12-12 12:22:00,
2013-12-12 07:23:00,20.5,18.5,30.44,NNE,32,0.0,0.0,92,0.00,,---,0.00,VWS V14.01,2013-12-12 12:23:00,
2013-12-12 07:24:00,20.4,18.5,30.43,NNE,32,0.0,1.0,92,0.00,,---,0.00,VWS V14.01,2013-12-12 12:24:00,
2013-12-12 07:25:00,20.5,18.5,30.44,NNE,32,0.0,0.0,92,0.00,,---,0.00,VWS V14.01,2013-12-12 12:25:00,
2013-12-12 07:26:00,20.5,18.8,30.44,NNE,31,0.0,0.0,93,0.00,,---,0.00,VWS V14.01,2013-12-12 12:26:00,
2013-12-12 07:27:00,20.5,18.8,30.44,NNE,32,0.0,0.0,93,0.00,,---,0.00,VWS V14.01,2013-12-12 12:27:00,
2013-12-12 07:28:00,20.5,18.8,30.44,NNE,32,0.0,0.0,93,0.00,,---,0.00,VWS V14.01,2013-12-12 12:28:00,
2013-12-12 07:29:00,20.5,18.8,30.44,NNE,32,0.0,0.0,93,0.00,,---,0.00,VWS V14.01,2013-12-12 12:29:00,
2013-12-12 07:30:00,20.5,18.8,30.44,NNE,31,0.0,0.0,93,0.00,,---,0.00,VWS V14.01,2013-12-12 12:30:00,
2013-12-12 07:31:00,20.5,18.8,30.44,NNE,31,0.0,0.0,93,0.00,,---,0.00,VWS V14.01,2013-12-12 12:31:00,
2013-12-12 07:32:00,20.5,18.8,30.44,NNE,31,0.0,1.0,93,0.00,,---,0.00,VWS V14.01,2013-12-12 12:32:00,
2013-12-12 07:33:00,20.5,18.8,30.44,NNE,32,0.0,0.0,93,0.00,,---,0.00,VWS V14.01,2013-12-12 12:33:00,
2013-12-12 07:34:00,20.5,18.8,30.44,NNE,32,0.0,0.0,93,0.00,,---,0.00,VWS V14.01,2013-12-12 12:34:00,
2013-12-12 07:35:00,20.4,18.7,30.44,NNE,31,0.0,0.0,93,0.00,,---,0.00,VWS V14.01,2013-12-12 12:35:00,
2013-12-12 07:36:00,20.5,18.8,30.45,NNE,32,0.0,0.0,93,0.00,,---,0.00,VWS V14.01,2013-12-12 12:36:00,
2013-12-12 07:37:00,20.5,18.8,30.45,NNE,31,0.0,0.0,93,0.00,,---,0.00,VWS V14.01,2013-12-12 12:37:00,
2013-12-12 07:38:00,20.4,18.7,30.45,NNE,32,0.0,0.0,93,0.00,,---,0.00,VWS V14.01,2013-12-12 12:38:00,
2013-12-12 07:39:00,20.4,18.7,30.45,NNE,32,0.0,0.0,93,0.00,,---,0.00,VWS V14.01,2013-12-12 12:39:00,
2013-12-12 07:40:00,20.4,18.7,30.45,NNE,31,0.0,0.0,93,0.00,,---,0.00,VWS V14.01,2013-12-12 12:40:00,
2013-12-12 07:41:00,20.4,18.7,30.45,NNE,32,0.0,0.0,93,0.00,,---,0.00,VWS V14.01,2013-12-12 12:41:00,
2013-12-12 07:42:00,20.5,18.8,30.45,NNE,32,0.0,0.0,93,0.00,,---,0.00,VWS V14.01,2013-12-12 12:42:00,
2013-12-12 07:43:00,20.4,18.7,30.45,NNE,31,0.0,0.0,93,0.00,,---,0.00,VWS V14.01,2013-12-12 12:43:00,
2013-12-12 07:44:00,20.5,18.8,30.45,NNE,32,0.0,0.0,93,0.00,,---,0.00,VWS V14.01,2013-12-12 12:44:00,
2013-12-12 07:45:00,20.4,18.7,30.45,NNE,32,0.0,0.0,93,0.00,,---,0.00,VWS V14.01,2013-12-12 12:45:00,
2013-12-12 07:46:00,20.4,18.7,30.45,NNE,31,0.0,0.0,93,0.00,,---,0.00,VWS V14.01,2013-12-12 12:46:00,
2013-12-12 07:47:00,20.4,18.7,30.45,NNE,32,0.0,0.0,93,0.00,,---,0.00,VWS V14.01,2013-12-12 12:47:00,
2013-12-12 07:48:00,20.4,18.7,30.45,NNE,31,0.0,0.0,93,0.00,,---,0.00,VWS V14.01,2013-12-12 12:48:00,
2013-12-12 07:49:00,20.5,18.8,30.45,NNE,32,0.0,0.0,93,0.00,,---,0.00,VWS V14.01,2013-12-12 12:49:00,
2013-12-12 07:50:00,20.4,18.7,30.45,NNE,31,0.0,0.0,93,0.00,,---,0.00,VWS V14.01,2013-12-12 12:50:00,
2013-12-12 07:51:00,20.6,18.9,30.45,NNE,32,0.0,0.0,93,0.00,,---,0.00,VWS V14.01,2013-12-12 12:51:00,
2013-12-12 07:52:00,20.5,18.8,30.45,NNE,31,0.0,0.0,93,0.00,,---,0.00,VWS V14.01,2013-12-12 12:52:00,
2013-12-12 07:53:00,20.5,18.8,30.45,NNE,32,0.0,1.0,93,0.00,,---,0.00,VWS V14.01,2013-12-12 12:53:00,
2013-12-12 07:54:00,20.6,18.9,30.45,NNE,32,0.0,0.0,93,0.00,,---,0.00,VWS V14.01,2013-12-12 12:54:00,
2013-12-12 07:55:00,20.6,18.9,30.45,NNE,31,0.0,0.0,93,0.00,,---,0.00,VWS V14.01,2013-12-12 12:55:00,
2013-12-12 07:56:00,20.6,18.9,30.45,NNE,31,0.0,0.0,93,0.00,,---,0.00,VWS V14.01,2013-12-12 12:56:00,
2013-12-12 07:57:00,20.6,18.9,30.45,NNE,31,0.0,0.0,93,0.00,,---,0.00,VWS V14.01,2013-12-12 12:57:00,
2013-12-12 07:58:00,20.6,18.9,30.45,NNE,31,0.0,0.0,93,0.00,,---,0.00,VWS V14.01,2013-12-12 12:58:00,
2013-12-12 07:59:00,20.6,18.9,30.45,NNE,31,0.0,0.0,93,0.00,,---,0.00,VWS V14.01,2013-12-12 12:59:00,
2013-12-12 08:00:00,20.6,18.9,30.45,NNE,31,0.0,0.0,93,0.00,,---,0.00,VWS V14.01,2013-12-12 13:00:00,
2013-12-12 08:01:00,20.7,19.0,30.45,NNE,32,0.0,0.0,93,0.00,,---,0.00,VWS V14.01,2013-12-12 13:01:00,
2013-12-12 08:02:00,20.6,18.9,30.45,NNE,31,0.0,0.0,93,0.00,,---,0.00,VWS V14.01,2013-12-12 13:02:00,
2013-12-12 08:03:00,20.7,19.0,30.45,NNE,32,0.0,0.0,93,0.00,,---,0.00,VWS V14.01,2013-12-12 13:03:00,
2013-12-12 08:04:00,20.7,19.0,30.45,NNE,31,0.0,0.0,93,0.00,,---,0.00,VWS V14.01,2013-12-12 13:04:00,
2013-12-12 08:05:00,20.7,19.0,30.45,NNE,32,0.0,0.0,93,0.00,,---,0.00,VWS V14.01,2013-12-12 13:05:00,
2013-12-12 08:06:00,20.6,18.9,30.45,NNE,32,0.0,0.0,93,0.00,,---,0.00,VWS V14.01,2013-12-12 13:06:00,
2013-12-12 08:07:00,20.8,19.1,30.46,NNE,32,0.0,1.0,93,0.00,,---,0.00,VWS V14.01,2013-12-12 13:07:00,
2013-12-12 08:08:00,20.7,19.0,30.46,NNE,32,0.0,1.0,93,0.00,,---,0.00,VWS V14.01,2013-12-12 13:08:00,
2013-12-12 08:09:00,20.7,19.0,30.46,NNE,31,0.0,1.0,93,0.00,,---,0.00,VWS V14.01,2013-12-12 13:09:00,
2013-12-12 08:10:00,20.8,19.1,30.46,NNE,32,0.0,1.0,93,0.00,,---,0.00,VWS V14.01,2013-12-12 13:10:00,
2013-12-12 08:11:00,20.8,19.1,30.46,NNE,32,0.0,1.0,93,0.00,,---,0.00,VWS V14.01,2013-12-12 13:11:00,
2013-12-12 08:12:00,21.1,19.4,30.46,NNE,32,0.0,1.0,93,0.00,,---,0.00,VWS V14.01,2013-12-12 13:12:00,
2013-12-12 08:13:00,20.9,19.2,30.46,NNE,32,0.0,0.0,93,0.00,,---,0.00,VWS V14.01,2013-12-12 13:13:00,
2013-12-12 08:14:00,21.0,19.3,30.46,NNE,32,0.0,1.0,93,0.00,,---,0.00,VWS V14.01,2013-12-12 13:14:00,
2013-12-12 08:15:00,21.1,19.4,30.46,NNE,32,0.0,1.0,93,0.00,,---,0.00,VWS V14.01,2013-12-12 13:15:00,
2013-12-12 08:16:00,21.2,19.5,30.46,NNE,32,0.0,1.0,93,0.00,,---,0.00,VWS V14.01,2013-12-12 13:16:00,
2013-12-12 08:17:00,21.5,19.8,30.46,NNE,31,0.0,0.0,93,0.00,,---,0.00,VWS V14.01,2013-12-12 13:17:00,
2013-12-12 08:18:00,21.3,19.6,30.46,NNE,32,0.0,0.0,93,0.00,,---,0.00,VWS V14.01,2013-12-12 13:18:00,
2013-12-12 08:19:00,21.4,19.7,30.46,NNE,31,0.0,0.0,93,0.00,,---,0.00,VWS V14.01,2013-12-12 13:19:00,
2013-12-12 08:20:00,21.5,19.8,30.46,NNE,32,0.0,0.0,93,0.00,,---,0.00,VWS V14.01,2013-12-12 13:20:00,
2013-12-12 08:21:00,21.5,19.8,30.46,NNE,32,0.0,0.0,93,0.00,,---,0.00,VWS V14.01,2013-12-12 13:21:00,
2013-12-12 08:22:00,21.7,20.0,30.46,NNE,32,0.0,0.0,93,0.00,,---,0.00,VWS V14.01,2013-12-12 13:22:00,
2013-12-12 08:23:00,21.5,19.8,30.46,NNE,31,0.0,0.0,93,0.00,,---,0.00,VWS V14.01,2013-12-12 13:23:00,
2013-12-12 08:24:00,21.6,19.9,30.46,NNE,32,0.0,0.0,93,0.00,,---,0.00,VWS V14.01,2013-12-12 13:24:00,
2013-12-12 08:25:00,21.7,20.0,30.46,NNE,31,0.0,0.0,93,0.00,,---,0.00,VWS V14.01,2013-12-12 13:25:00,
2013-12-12 08:26:00,21.8,20.1,30.46,NNE,32,0.0,0.0,93,0.00,,---,0.00,VWS V14.01,2013-12-12 13:26:00,
2013-12-12 08:27:00,22.3,20.6,30.46,NNE,31,0.0,1.0,93,0.00,,---,0.00,VWS V14.01,2013-12-12 13:27:00,
2013-12-12 08:28:00,22.0,20.3,30.46,NNE,32,0.0,0.0,93,0.00,,---,0.00,VWS V14.01,2013-12-12 13:28:00,
2013-12-12 08:29:00,22.1,20.4,30.46,NNE,31,0.0,0.0,93,0.00,,---,0.00,VWS V14.01,2013-12-12 13:29:00,
2013-12-12 08:30:00,22.2,20.5,30.46,NNE,32,0.0,0.0,93,0.00,,---,0.00,VWS V14.01,2013-12-12 13:30:00,
2013-12-12 08:31:00,22.3,20.6,30.46,NNE,31,0.0,1.0,93,0.00,,---,0.00,VWS V14.01,2013-12-12 13:31:00,
2013-12-12 08:32:00,22.9,21.4,30.46,NNE,32,0.0,0.0,94,0.00,,---,0.00,VWS V14.01,2013-12-12 13:32:00,
2013-12-12 08:33:00,22.6,21.1,30.46,NNE,32,0.0,0.0,94,0.00,,---,0.00,VWS V14.01,2013-12-12 13:33:00,
2013-12-12 08:34:00,22.8,21.3,30.46,NNE,31,0.0,0.0,94,0.00,,---,0.00,VWS V14.01,2013-12-12 13:34:00,
2013-12-12 08:35:00,22.9,21.4,30.47,NNE,31,0.0,0.0,94,0.00,,---,0.00,VWS V14.01,2013-12-12 13:35:00,
2013-12-12 08:36:00,22.9,21.4,30.46,NNE,31,0.0,0.0,94,0.00,,---,0.00,VWS V14.01,2013-12-12 13:36:00,
2013-12-12 08:37:00,23.4,21.7,30.47,NNE,31,0.0,1.0,93,0.00,,---,0.00,VWS V14.01,2013-12-12 13:37:00,
2013-12-12 08:38:00,23.2,21.5,30.46,NNE,31,0.0,0.0,93,0.00,,---,0.00,VWS V14.01,2013-12-12 13:38:00,
2013-12-12 08:39:00,23.2,21.5,30.47,NNE,31,0.0,0.0,93,0.00,,---,0.00,VWS V14.01,2013-12-12 13:39:00,
2013-12-12 08:40:00,23.4,21.7,30.47,NNE,31,0.0,0.0,93,0.00,,---,0.00,VWS V14.01,2013-12-12 13:40:00,
2013-12-12 08:41:00,23.4,21.7,30.47,NNE,31,0.0,1.0,93,0.00,,---,0.00,VWS V14.01,2013-12-12 13:41:00,
2013-12-12 08:42:00,23.6,21.9,30.47,NNE,32,0.0,0.0,93,0.00,,---,0.00,VWS V14.01,2013-12-12 13:42:00,
2013-12-12 08:43:00,23.5,21.8,30.47,NNE,31,0.0,0.0,93,0.00,,---,0.00,VWS V14.01,2013-12-12 13:43:00,
2013-12-12 08:44:00,23.6,21.9,30.47,NNE,32,0.0,0.0,93,0.00,,---,0.00,VWS V14.01,2013-12-12 13:44:00,
2013-12-12 08:45:00,23.6,21.9,30.47,NNE,32,0.0,0.0,93,0.00,,---,0.00,VWS V14.01,2013-12-12 13:45:00,
2013-12-12 08:46:00,23.6,21.9,30.47,NNE,32,0.0,0.0,93,0.00,,---,0.00,VWS V14.01,2013-12-12 13:46:00,
2013-12-12 08:47:00,23.9,22.2,30.47,NNE,31,0.0,0.0,93,0.00,,---,0.00,VWS V14.01,2013-12-12 13:47:00,
2013-12-12 08:48:00,23.7,22.0,30.47,NNE,31,0.0,0.0,93,0.00,,---,0.00,VWS V14.01,2013-12-12 13:48:00,
2013-12-12 08:49:00,23.8,22.1,30.47,NNE,32,0.0,0.0,93,0.00,,---,0.00,VWS V14.01,2013-12-12 13:49:00,
2013-12-12 08:50:00,23.9,22.2,30.47,NNE,31,0.0,0.0,93,0.00,,---,0.00,VWS V14.01,2013-12-12 13:50:00,
2013-12-12 08:51:00,24.0,22.3,30.47,NNE,31,0.0,0.0,93,0.00,,---,0.00,VWS V14.01,2013-12-12 13:51:00,
2013-12-12 08:52:00,24.5,22.8,30.47,NNE,32,0.0,0.0,93,0.00,,---,0.00,VWS V14.01,2013-12-12 13:52:00,
2013-12-12 08:53:00,24.1,22.4,30.47,NNE,32,0.0,0.0,93,0.00,,---,0.00,VWS V14.01,2013-12-12 13:53:00,
2013-12-12 08:54:00,24.2,22.5,30.47,NNE,32,0.0,0.0,93,0.00,,---,0.00,VWS V14.01,2013-12-12 13:54:00,
2013-12-12 08:55:00,24.4,22.7,30.47,NNE,31,0.0,0.0,93,0.00,,---,0.00,VWS V14.01,2013-12-12 13:55:00,
2013-12-12 08:56:00,24.6,22.9,30.47,NNE,31,0.0,0.0,93,0.00,,---,0.00,VWS V14.01,2013-12-12 13:56:00,
2013-12-12 08:57:00,25.3,23.3,30.47,NNE,31,0.0,0.0,92,0.00,,---,0.00,VWS V14.01,2013-12-12 13:57:00,
2013-12-12 08:58:00,24.8,23.1,30.47,NNE,31,0.0,1.0,93,0.00,,---,0.00,VWS V14.01,2013-12-12 13:58:00,
2013-12-12 08:59:00,25.1,23.4,30.47,NNE,32,0.0,1.0,93,0.00,,---,0.00,VWS V14.01,2013-12-12 13:59:00,
2013-12-12 09:00:00,25.2,23.2,30.47,NNE,31,0.0,0.0,92,0.00,,---,0.00,VWS V14.01,2013-12-12 14:00:00,
2013-12-12 09:01:00,25.3,23.3,30.47,NNE,31,0.0,0.0,92,0.00,,---,0.00,VWS V14.01,2013-12-12 14:01:00,
2013-12-12 09:02:00,25.4,23.4,30.47,NNE,31,0.0,0.0,92,0.00,,---,0.00,VWS V14.01,2013-12-12 14:02:00,
2013-12-12 09:03:00,25.5,23.2,30.47,NNE,31,0.0,0.0,91,0.00,,---,0.00,VWS V14.01,2013-12-12 14:03:00,
2013-12-12 09:04:00,25.6,23.3,30.47,NNE,32,0.0,0.0,91,0.00,,---,0.00,VWS V14.01,2013-12-12 14:04:00,
2013-12-12 09:05:00,25.7,23.4,30.47,NNE,31,0.0,0.0,91,0.00,,---,0.00,VWS V14.01,2013-12-12 14:05:00,
2013-12-12 09:06:00,25.8,23.5,30.47,NNE,32,0.0,0.0,91,0.00,,---,0.00,VWS V14.01,2013-12-12 14:06:00,
2013-12-12 09:07:00,26.4,23.6,30.47,NNE,32,0.0,0.0,89,0.00,,---,0.00,VWS V14.01,2013-12-12 14:07:00,
2013-12-12 09:08:00,26.0,23.5,30.47,NNE,31,0.0,0.0,90,0.00,,---,0.00,VWS V14.01,2013-12-12 14:08:00,
2013-12-12 09:09:00,26.1,23.6,30.47,NNE,32,0.0,0.0,90,0.00,,---,0.00,VWS V14.01,2013-12-12 14:09:00,
2013-12-12 09:10:00,26.2,23.4,30.47,NNE,31,0.0,0.0,89,0.00,,---,0.00,VWS V14.01,2013-12-12 14:10:00,
2013-12-12 09:11:00,26.4,23.6,30.47,NNE,32,0.0,0.0,89,0.00,,---,0.00,VWS V14.01,2013-12-12 14:11:00,
2013-12-12 09:12:00,26.5,23.7,30.47,NNE,32,0.0,0.0,89,0.00,,---,0.00,VWS V14.01,2013-12-12 14:12:00,
2013-12-12 09:13:00,27.1,24.3,30.48,NNE,31,0.0,0.0,89,0.00,,---,0.00,VWS V14.01,2013-12-12 14:13:00,
2013-12-12 09:14:00,26.8,24.0,30.47,NNE,32,0.0,0.0,89,0.00,,---,0.00,VWS V14.01,2013-12-12 14:14:00,
2013-12-12 09:15:00,26.9,24.1,30.47,NNE,31,0.0,0.0,89,0.00,,---,0.00,VWS V14.01,2013-12-12 14:15:00,
2013-12-12 09:16:00,27.1,24.3,30.47,NNE,31,0.0,0.0,89,0.00,,---,0.00,VWS V14.01,2013-12-12 14:16:00,
2013-12-12 09:17:00,27.4,24.6,30.48,NNE,32,1.0,1.0,89,0.00,,---,0.00,VWS V14.01,2013-12-12 14:17:00,
2013-12-12 09:18:00,28.2,24.3,30.48,NE,51,0.0,0.0,85,0.00,,---,0.00,VWS V14.01,2013-12-12 14:18:00,
2013-12-12 09:19:00,27.7,24.6,30.47,NE,51,0.0,1.0,88,0.00,,---,0.00,VWS V14.01,2013-12-12 14:19:00,
2013-12-12 09:20:00,28.0,24.4,30.47,NE,51,0.0,1.0,86,0.00,,---,0.00,VWS V14.01,2013-12-12 14:20:00,
2013-12-12 09:21:00,28.2,24.3,30.47,NE,51,0.0,0.0,85,0.00,,---,0.00,VWS V14.01,2013-12-12 14:21:00,
2013-12-12 09:22:00,28.5,24.3,30.48,NE,51,0.0,1.0,84,0.00,,---,0.00,VWS V14.01,2013-12-12 14:22:00,
2013-12-12 09:23:00,29.9,24.2,30.48,SE,141,0.0,0.0,79,0.00,,---,0.00,VWS V14.01,2013-12-12 14:23:00,
2013-12-12 09:24:00,29.2,24.7,30.47,SE,141,0.0,1.0,83,0.00,,---,0.00,VWS V14.01,2013-12-12 14:24:00,
2013-12-12 09:25:00,29.5,24.4,30.47,SE,141,0.0,1.0,81,0.00,,---,0.00,VWS V14.01,2013-12-12 14:25:00,
2013-12-12 09:26:00,29.9,24.2,30.47,SE,141,0.0,1.0,79,0.00,,---,0.00,VWS V14.01,2013-12-12 14:26:00,
2013-12-12 09:27:00,30.2,24.2,30.48,SE,141,0.0,1.0,78,0.00,,---,0.00,VWS V14.01,2013-12-12 14:27:00,
2013-12-12 09:28:00,31.4,23.4,30.47,ENE,65,1.0,1.0,72,0.00,,---,0.00,VWS V14.01,2013-12-12 14:28:00,
2013-12-12 09:29:00,30.9,24.9,30.47,SE,141,0.0,1.0,78,0.00,,---,0.00,VWS V14.01,2013-12-12 14:29:00,
2013-12-12 09:30:00,31.2,23.9,30.47,NE,51,1.0,1.0,74,0.00,,---,0.00,VWS V14.01,2013-12-12 14:30:00,
2013-12-12 09:31:00,31.4,23.4,30.47,ENE,65,1.0,1.0,72,0.00,,---,0.00,VWS V14.01,2013-12-12 14:31:00,
2013-12-12 09:32:00,31.7,23.0,30.48,ENE,65,0.0,1.0,70,0.00,,---,0.00,VWS V14.01,2013-12-12 14:32:00,
2013-12-12 09:33:00,32.6,24.2,30.48,NE,45,1.0,1.0,71,0.00,,---,0.00,VWS V14.01,2013-12-12 14:33:00,
2013-12-12 09:34:00,32.2,25.2,30.48,ENE,65,0.0,0.0,75,0.00,,---,0.00,VWS V14.01,2013-12-12 14:34:00,
2013-12-12 09:35:00,32.4,25.0,30.48,ENE,65,0.0,1.0,74,0.00,,---,0.00,VWS V14.01,2013-12-12 14:35:00,
2013-12-12 09:36:00,32.6,24.2,30.48,NE,46,1.0,2.0,71,0.00,,---,0.00,VWS V14.01,2013-12-12 14:36:00,
2013-12-12 09:37:00,32.8,23.1,30.48,NE,45,0.0,1.0,67,0.00,,---,0.00,VWS V14.01,2013-12-12 14:37:00,
2013-12-12 09:38:00,33.5,23.0,30.48,NE,43,1.0,1.0,65,0.00,,---,0.00,VWS V14.01,2013-12-12 14:38:00,
2013-12-12 09:39:00,33.2,24.1,30.48,NE,45,0.0,1.0,69,0.00,,---,0.00,VWS V14.01,2013-12-12 14:39:00,
2013-12-12 09:40:00,33.4,23.6,30.48,NE,45,1.0,1.0,67,0.00,,---,0.00,VWS V14.01,2013-12-12 14:40:00,
2013-12-12 09:41:00,33.5,23.0,30.48,NE,46,1.0,2.0,65,0.00,,---,0.00,VWS V14.01,2013-12-12 14:41:00,
2013-12-12 09:42:00,33.7,22.1,30.48,NNE,32,1.0,2.0,62,0.00,,---,0.00,VWS V14.01,2013-12-12 14:42:00,
2013-12-12 09:43:00,34.4,22.4,30.48,West,280,0.0,0.0,61,0.00,,---,0.00,VWS V14.01,2013-12-12 14:43:00,
2013-12-12 09:44:00,34.0,21.6,30.48,West,276,0.0,1.0,60,0.00,,---,0.00,VWS V14.01,2013-12-12 14:44:00,
2013-12-12 09:45:00,34.2,21.8,30.48,West,277,1.0,1.0,60,0.00,,---,0.00,VWS V14.01,2013-12-12 14:45:00,
2013-12-12 09:46:00,34.4,22.4,30.48,West,280,0.0,1.0,61,0.00,,---,0.00,VWS V14.01,2013-12-12 14:46:00,
2013-12-12 09:47:00,34.6,22.9,30.48,West,280,0.0,0.0,62,0.00,,---,0.00,VWS V14.01,2013-12-12 14:47:00,
2013-12-12 09:48:00,35.1,20.6,30.48,WNW,300,2.0,2.0,55,0.00,,---,0.00,VWS V14.01,2013-12-12 14:48:00,
2013-12-12 09:49:00,34.8,21.1,30.48,East,80,1.0,1.0,57,0.00,,---,0.00,VWS V14.01,2013-12-12 14:49:00,
2013-12-12 09:50:00,34.9,20.4,30.48,NE,55,1.0,2.0,55,0.00,,---,0.00,VWS V14.01,2013-12-12 14:50:00,
2013-12-12 09:51:00,35.1,20.6,30.48,WNW,300,2.0,2.0,55,0.00,,---,0.00,VWS V14.01,2013-12-12 14:51:00,
2013-12-12 09:52:00,35.2,21.1,30.48,West,274,0.0,2.0,56,0.00,,---,0.00,VWS V14.01,2013-12-12 14:52:00,
2013-12-12 09:53:00,35.6,21.9,30.48,West,270,1.0,1.0,57,0.00,,---,0.00,VWS V14.01,2013-12-12 14:53:00,
2013-12-12 09:54:00,35.4,20.4,30.48,WNW,285,0.0,2.0,54,0.00,,---,0.00,VWS V14.01,2013-12-12 14:54:00,
2013-12-12 09:55:00,35.5,21.0,30.48,WNW,285,0.0,0.0,55,0.00,,---,0.00,VWS V14.01,2013-12-12 14:55:00,
2013-12-12 09:56:00,35.6,21.9,30.48,West,270,1.0,2.0,57,0.00,,---,0.00,VWS V14.01,2013-12-12 14:56:00,
2013-12-12 09:57:00,35.7,21.1,30.48,WSW,256,1.0,2.0,55,0.00,,---,0.00,VWS V14.01,2013-12-12 14:57:00,
2013-12-12 09:58:00,36.2,22.9,30.48,East,94,0.0,0.0,58,0.00,,---,0.00,VWS V14.01,2013-12-12 14:58:00,
2013-12-12 09:59:00,35.9,21.3,30.48,East,93,0.0,1.0,55,0.00,,---,0.00,VWS V14.01,2013-12-12 14:59:00,
2013-12-12 10:00:00,36.0,22.7,30.48,East,93,0.0,0.0,58,0.00,,---,0.00,VWS V14.01,2013-12-12 15:00:00,
2013-12-12 10:01:00,36.2,22.9,30.48,East,93,0.0,0.0,58,0.00,,---,0.00,VWS V14.01,2013-12-12 15:01:00,
2013-12-12 10:02:00,36.7,21.2,30.48,West,263,1.0,1.0,53,0.00,,---,0.00,VWS V14.01,2013-12-12 15:02:00,
2013-12-12 10:03:00,36.5,22.3,30.48,NNW,329,0.0,1.0,56,0.00,,---,0.00,VWS V14.01,2013-12-12 15:03:00,
2013-12-12 10:04:00,36.6,22.0,30.48,NNW,336,0.0,1.0,55,0.00,,---,0.00,VWS V14.01,2013-12-12 15:04:00,
2013-12-12 10:05:00,36.7,21.2,30.48,West,276,0.0,2.0,53,0.00,,---,0.00,VWS V14.01,2013-12-12 15:05:00,
2013-12-12 10:06:00,36.7,21.2,30.48,West,263,1.0,1.0,53,0.00,,---,0.00,VWS V14.01,2013-12-12 15:06:00,
2013-12-12 10:07:00,36.8,21.7,30.48,West,263,0.0,1.0,54,0.00,,---,0.00,VWS V14.01,2013-12-12 15:07:00,
2013-12-12 10:08:00,37.1,20.2,30.48,NE,51,1.0,1.0,50,0.00,,---,0.00,VWS V14.01,2013-12-12 15:08:00,
2013-12-12 10:09:00,37.0,21.5,30.48,NNE,30,1.0,1.0,53,0.00,,---,0.00,VWS V14.01,2013-12-12 15:09:00,
2013-12-12 10:10:00,37.0,20.6,30.48,NNE,27,0.0,1.0,51,0.00,,---,0.00,VWS V14.01,2013-12-12 15:10:00,
2013-12-12 10:11:00,37.1,20.2,30.48,NNE,32,1.0,1.0,50,0.00,,---,0.00,VWS V14.01,2013-12-12 15:11:00,
2013-12-12 10:12:00,37.4,22.7,30.48,SW,215,0.0,0.0,55,0.00,,---,0.00,VWS V14.01,2013-12-12 15:12:00,
2013-12-12 10:13:00,37.2,21.2,30.48,North,349,0.0,2.0,52,0.00,,---,0.00,VWS V14.01,2013-12-12 15:13:00,
2013-12-12 10:14:00,37.2,21.2,30.48,NE,35,1.0,1.0,52,0.00,,---,0.00,VWS V14.01,2013-12-12 15:14:00,
2013-12-12 10:15:00,37.3,21.8,30.48,NW,319,0.0,1.0,53,0.00,,---,0.00,VWS V14.01,2013-12-12 15:15:00,
2013-12-12 10:16:00,37.4,22.7,30.48,SW,215,0.0,0.0,55,0.00,,---,0.00,VWS V14.01,2013-12-12 15:16:00,
2013-12-12 10:17:00,37.5,21.5,30.48,SSW,211,0.0,0.0,52,0.00,,---,0.00,VWS V14.01,2013-12-12 15:17:00,
2013-12-12 10:18:00,37.9,20.0,30.48,ENE,63,1.0,1.0,48,0.00,,---,0.00,VWS V14.01,2013-12-12 15:18:00,
2013-12-12 10:19:00,37.8,21.3,30.48,WNW,291,2.0,2.0,51,0.00,,---,0.00,VWS V14.01,2013-12-12 15:19:00,
2013-12-12 10:20:00,37.9,20.0,30.48,WNW,295,0.0,2.0,48,0.00,,---,0.00,VWS V14.01,2013-12-12 15:20:00,
2013-12-12 10:21:00,37.9,20.0,30.48,ENE,62,1.0,1.0,48,0.00,,---,0.00,VWS V14.01,2013-12-12 15:21:00,
2013-12-12 10:22:00,38.2,20.7,30.48,West,266,1.0,1.0,49,0.00,,---,0.00,VWS V14.01,2013-12-12 15:22:00,
2013-12-12 10:23:00,37.9,20.0,30.48,NE,50,0.0,1.0,48,0.00,,---,0.00,VWS V14.01,2013-12-12 15:23:00,
2013-12-12 10:24:00,38.0,20.1,30.48,NE,49,0.0,0.0,48,0.00,,---,0.00,VWS V14.01,2013-12-12 15:24:00,
2013-12-12 10:25:00,38.1,20.6,30.48,WSW,242,1.0,1.0,49,0.00,,---,0.00,VWS V14.01,2013-12-12 15:25:00,
2013-12-12 10:26:00,38.2,20.7,30.48,West,265,1.0,1.0,49,0.00,,---,0.00,VWS V14.01,2013-12-12 15:26:00,
2013-12-12 10:27:00,38.3,20.4,30.48,South,169,1.0,1.0,48,0.00,,---,0.00,VWS V14.01,2013-12-12 15:27:00,
2013-12-12 10:28:00,38.2,19.3,30.48,West,271,1.0,1.0,46,0.00,,---,0.00,VWS V14.01,2013-12-12 15:28:00,
2013-12-12 10:29:00,38.3,19.9,30.48,WNW,297,1.0,1.0,47,0.00,,---,0.00,VWS V14.01,2013-12-12 15:29:00,
2013-12-12 10:30:00,38.3,19.4,30.48,NW,311,3.0,4.0,46,0.00,,---,0.00,VWS V14.01,2013-12-12 15:30:00,
2013-12-12 10:31:00,38.2,19.3,30.48,West,271,1.0,3.0,46,0.00,,---,0.00,VWS V14.01,2013-12-12 15:31:00,
2013-12-12 10:32:00,38.2,19.3,30.48,WNW,288,1.0,2.0,46,0.00,,---,0.00,VWS V14.01,2013-12-12 15:32:00,
2013-12-12 10:33:00,38.1,19.7,30.48,NW,311,1.0,2.0,47,0.00,,---,0.00,VWS V14.01,2013-12-12 15:33:00,
2013-12-12 10:34:00,38.1,18.6,30.48,West,276,1.0,2.0,45,0.00,,---,0.00,VWS V14.01,2013-12-12 15:34:00,
2013-12-12 10:35:00,38.1,20.2,30.48,WNW,283,0.0,2.0,48,0.00,,---,0.00,VWS V14.01,2013-12-12 15:35:00,
2013-12-12 10:36:00,38.1,19.7,30.48,NW,311,2.0,2.0,47,0.00,,---,0.00,VWS V14.01,2013-12-12 15:36:00,
2013-12-12 10:37:00,38.1,18.6,30.48,West,260,2.0,2.0,45,0.00,,---,0.00,VWS V14.01,2013-12-12 15:37:00,
2013-12-12 10:38:00,37.9,18.0,30.48,West,270,0.0,0.0,44,0.00,,---,0.00,VWS V14.01,2013-12-12 15:38:00,
2013-12-12 10:39:00,38.1,18.1,30.48,NW,316,3.0,3.0,44,0.00,,---,0.00,VWS V14.01,2013-12-12 15:39:00,
2013-12-12 10:40:00,38.0,17.5,30.48,West,264,1.0,3.0,43,0.00,,---,0.00,VWS V14.01,2013-12-12 15:40:00,
2013-12-12 10:41:00,37.9,18.0,30.48,West,270,0.0,1.0,44,0.00,,---,0.00,VWS V14.01,2013-12-12 15:41:00,
2013-12-12 10:42:00,38.0,18.0,30.48,WSW,241,2.0,3.0,44,0.00,,---,0.00,VWS V14.01,2013-12-12 15:42:00,
2013-12-12 10:43:00,38.3,19.4,30.48,SW,231,1.0,1.0,46,0.00,,---,0.00,VWS V14.01,2013-12-12 15:43:00,
2013-12-12 10:44:00,38.1,18.1,30.48,WNW,293,1.0,1.0,44,0.00,,---,0.00,VWS V14.01,2013-12-12 15:44:00,
2013-12-12 10:45:00,38.2,19.3,30.49,SW,224,1.0,2.0,46,0.00,,---,0.00,VWS V14.01,2013-12-12 15:45:00,
2013-12-12 10:46:00,38.3,19.4,30.48,SW,231,1.0,3.0,46,0.00,,---,0.00,VWS V14.01,2013-12-12 15:46:00,
2013-12-12 10:47:00,38.4,18.9,30.48,NNW,333,0.0,2.0,45,0.00,,---,0.00,VWS V14.01,2013-12-12 15:47:00,
2013-12-12 10:48:00,38.7,18.7,30.48,WSW,258,1.0,1.0,44,0.00,,---,0.00,VWS V14.01,2013-12-12 15:48:00,
2013-12-12 10:49:00,38.5,18.5,30.48,WNW,287,1.0,3.0,44,0.00,,---,0.00,VWS V14.01,2013-12-12 15:49:00,
2013-12-12 10:50:00,38.6,19.1,30.48,West,278,1.0,2.0,45,0.00,,---,0.00,VWS V14.01,2013-12-12 15:50:00,
2013-12-12 10:51:00,38.7,18.7,30.48,WSW,258,1.0,1.0,44,0.00,,---,0.00,VWS V14.01,2013-12-12 15:51:00,
2013-12-12 10:52:00,38.8,19.8,30.48,WNW,294,1.0,3.0,46,0.00,,---,0.00,VWS V14.01,2013-12-12 15:52:00,
2013-12-12 10:53:00,38.8,17.7,30.48,WSW,245,1.0,1.0,42,0.00,,---,0.00,VWS V14.01,2013-12-12 15:53:00,
2013-12-12 10:54:00,38.9,18.3,30.48,WSW,248,2.0,3.0,43,0.00,,---,0.00,VWS V14.01,2013-12-12 15:54:00,
2013-12-12 10:55:00,38.8,18.2,30.48,SSW,193,2.0,4.0,43,0.00,,---,0.00,VWS V14.01,2013-12-12 15:55:00,
2013-12-12 10:56:00,38.8,17.7,30.48,WSW,238,1.0,3.0,42,0.00,,---,0.00,VWS V14.01,2013-12-12 15:56:00,
2013-12-12 10:57:00,38.9,19.4,30.48,North,359,1.0,2.0,45,0.00,,---,0.00,VWS V14.01,2013-12-12 15:57:00,
2013-12-12 10:58:00,39.5,17.8,30.48,WNW,290,4.0,4.0,41,0.00,,---,0.00,VWS V14.01,2013-12-12 15:58:00,
2013-12-12 10:59:00,39.3,20.3,30.48,West,270,1.0,1.0,46,0.00,,---,0.00,VWS V14.01,2013-12-12 15:59:00,
2013-12-12 11:00:00,39.5,18.3,30.48,WNW,295,1.0,2.0,42,0.00,,---,0.00,VWS V14.01,2013-12-12 16:00:00,
2013-12-12 11:01:00,39.5,17.8,30.48,WNW,290,4.0,4.0,41,0.00,,---,0.00,VWS V14.01,2013-12-12 16:01:00,
2013-12-12 11:02:00,39.3,16.4,30.48,WNW,291,1.0,4.0,39,0.00,,---,0.00,VWS V14.01,2013-12-12 16:02:00,
2013-12-12 11:03:00,39.0,17.3,30.48,NW,315,1.0,1.0,41,0.00,,---,0.00,VWS V14.01,2013-12-12 16:03:00,
2013-12-12 11:04:00,39.1,15.6,30.48,NW,311,1.0,4.0,38,0.00,,---,0.00,VWS V14.01,2013-12-12 16:04:00,
2013-12-12 11:05:00,39.0,16.2,30.48,NW,324,0.0,1.0,39,0.00,,---,0.00,VWS V14.01,2013-12-12 16:05:00,
2013-12-12 11:06:00,39.0,17.3,30.48,NW,315,1.0,2.0,41,0.00,,---,0.00,VWS V14.01,2013-12-12 16:06:00,
2013-12-12 11:07:00,39.1,16.8,30.48,NW,315,0.0,1.0,40,0.00,,---,0.00,VWS V14.01,2013-12-12 16:07:00,
2013-12-12 11:08:00,39.7,17.4,30.48,WNW,288,2.0,2.0,40,0.00,,---,0.00,VWS V14.01,2013-12-12 16:08:00,
2013-12-12 11:09:00,39.3,17.6,30.48,NW,314,0.0,1.0,41,0.00,,---,0.00,VWS V14.01,2013-12-12 16:09:00,
2013-12-12 11:10:00,39.6,17.9,30.48,SSW,208,1.0,2.0,41,0.00,,---,0.00,VWS V14.01,2013-12-12 16:10:00,
2013-12-12 11:11:00,39.7,17.4,30.48,WNW,288,2.0,4.0,40,0.00,,---,0.00,VWS V14.01,2013-12-12 16:11:00,
2013-12-12 11:12:00,40.3,17.3,30.47,WSW,243,3.0,7.0,39,0.00,,---,0.00,VWS V14.01,2013-12-12 16:12:00,
2013-12-12 11:13:00,39.9,17.0,30.48,NW,314,1.0,2.0,39,0.00,,---,0.00,VWS V14.01,2013-12-12 16:13:00,
2013-12-12 11:14:00,40.1,17.7,30.48,NW,314,0.0,1.0,40,0.00,,---,0.00,VWS V14.01,2013-12-12 16:14:00,
2013-12-12 11:15:00,40.2,18.4,30.48,SSW,212,2.0,3.0,41,0.00,,---,0.00,VWS V14.01,2013-12-12 16:15:00,
2013-12-12 11:16:00,40.3,17.3,30.47,WSW,243,3.0,7.0,39,0.00,,---,0.00,VWS V14.01,2013-12-12 16:16:00,
2013-12-12 11:17:00,40.4,17.4,30.47,SW,224,2.0,3.0,39,0.00,,---,0.00,VWS V14.01,2013-12-12 16:17:00,
2013-12-12 11:18:00,40.3,16.1,30.48,WNW,285,2.0,3.0,37,0.00,,---,0.00,VWS V14.01,2013-12-12 16:18:00,
2013-12-12 11:19:00,40.3,16.7,30.48,WNW,303,3.0,5.0,38,0.00,,---,0.00,VWS V14.01,2013-12-12 16:19:00,
2013-12-12 11:20:00,40.3,16.1,30.47,North,357,0.0,3.0,37,0.00,,---,0.00,VWS V14.01,2013-12-12 16:20:00,
2013-12-12 11:21:00,40.3,16.1,30.48,WNW,300,3.0,3.0,37,0.00,,---,0.00,VWS V14.01,2013-12-12 16:21:00,
2013-12-12 11:22:00,40.0,14.6,30.47,WNW,288,0.0,2.0,35,0.00,,---,0.00,VWS V14.01,2013-12-12 16:22:00,
2013-12-12 11:23:00,40.3,15.5,30.48,SW,225,3.0,4.0,36,0.00,,---,0.00,VWS V14.01,2013-12-12 16:23:00,
2013-12-12 11:24:00,40.2,14.8,30.47,WNW,291,3.0,4.0,35,0.00,,---,0.00,VWS V14.01,2013-12-12 16:24:00,
2013-12-12 11:25:00,40.1,14.7,30.47,West,276,2.0,5.0,35,0.00,,---,0.00,VWS V14.01,2013-12-12 16:25:00,
2013-12-12 11:26:00,40.0,14.6,30.47,WNW,288,0.0,2.0,35,0.00,,---,0.00,VWS V14.01,2013-12-12 16:26:00,
2013-12-12 11:27:00,40.5,15.7,30.47,North,356,1.0,3.0,36,0.00,,---,0.00,VWS V14.01,2013-12-12 16:27:00,
2013-12-12 11:28:00,40.2,16.0,30.47,ENE,75,2.0,2.0,37,0.00,,---,0.00,VWS V14.01,2013-12-12 16:28:00,
2013-12-12 11:29:00,40.4,16.2,30.47,ENE,61,1.0,3.0,37,0.00,,---,0.00,VWS V14.01,2013-12-12 16:29:00,
2013-12-12 11:30:00,40.4,15.6,30.47,NW,315,3.0,5.0,36,0.00,,---,0.00,VWS V14.01,2013-12-12 16:30:00,
2013-12-12 11:31:00,40.5,15.7,30.47,North,356,1.0,3.0,36,0.00,,---,0.00,VWS V14.01,2013-12-12 16:31:00,
2013-12-12 11:32:00,41.0,16.7,30.46,SE,136,1.0,2.0,37,0.00,,---,0.00,VWS V14.01,2013-12-12 16:32:00,
2013-12-12 11:33:00,40.7,15.2,30.47,West,281,0.0,1.0,35,0.00,,---,0.00,VWS V14.01,2013-12-12 16:33:00,
2013-12-12 11:34:00,40.8,15.9,30.47,NE,53,1.0,1.0,36,0.00,,---,0.00,VWS V14.01,2013-12-12 16:34:00,
2013-12-12 11:35:00,40.9,15.4,30.47,WSW,250,1.0,2.0,35,0.00,,---,0.00,VWS V14.01,2013-12-12 16:35:00,
2013-12-12 11:36:00,41.0,16.7,30.46,SE,136,1.0,2.0,37,0.00,,---,0.00,VWS V14.01,2013-12-12 16:36:00,
2013-12-12 11:37:00,41.4,15.8,30.47,NW,304,1.0,1.0,35,0.00,,---,0.00,VWS V14.01,2013-12-12 16:37:00,
2013-12-12 11:38:00,41.2,15.6,30.47,NNE,15,1.0,3.0,35,0.00,,---,0.00,VWS V14.01,2013-12-12 16:38:00,
2013-12-12 11:39:00,41.3,15.7,30.47,WNW,300,1.0,2.0,35,0.00,,---,0.00,VWS V14.01,2013-12-12 16:39:00,
2013-12-12 11:40:00,41.3,14.4,30.47,NNE,15,1.0,2.0,33,0.00,,---,0.00,VWS V14.01,2013-12-12 16:40:00,
2013-12-12 11:41:00,41.4,15.8,30.46,NW,305,1.0,2.0,35,0.00,,---,0.00,VWS V14.01,2013-12-12 16:41:00,
2013-12-12 11:42:00,41.5,14.6,30.46,WNW,298,2.0,3.0,33,0.00,,---,0.00,VWS V14.01,2013-12-12 16:42:00,
2013-12-12 11:43:00,41.5,14.6,30.47,West,280,0.0,1.0,33,0.00,,---,0.00,VWS V14.01,2013-12-12 16:43:00,
2013-12-12 11:44:00,41.5,15.2,30.46,South,191,3.0,4.0,34,0.00,,---,0.00,VWS V14.01,2013-12-12 16:44:00,
2013-12-12 11:45:00,41.5,15.2,30.46,NW,313,0.0,3.0,34,0.00,,---,0.00,VWS V14.01,2013-12-12 16:45:00,
2013-12-12 11:46:00,41.5,14.6,30.46,WNW,298,2.0,3.0,33,0.00,,---,0.00,VWS V14.01,2013-12-12 16:46:00,
2013-12-12 11:47:00,41.0,13.4,30.46,East,89,1.0,3.0,32,0.00,,---,0.00,VWS V14.01,2013-12-12 16:47:00,
2013-12-12 11:48:00,41.3,13.7,30.46,SSW,201,2.0,3.0,32,0.00,,---,0.00,VWS V14.01,2013-12-12 16:48:00,
2013-12-12 11:49:00,41.1,13.5,30.46,SSE,164,2.0,3.0,32,0.00,,---,0.00,VWS V14.01,2013-12-12 16:49:00,
2013-12-12 11:50:00,41.1,13.5,30.46,SE,146,1.0,2.0,32,0.00,,---,0.00,VWS V14.01,2013-12-12 16:50:00,
2013-12-12 11:51:00,41.0,13.4,30.46,East,89,1.0,3.0,32,0.00,,---,0.00,VWS V14.01,2013-12-12 16:51:00,
2013-12-12 11:52:00,41.1,14.9,30.46,NNE,16,1.0,3.0,34,0.00,,---,0.00,VWS V14.01,2013-12-12 16:52:00,
2013-12-12 11:53:00,40.9,13.3,30.46,ESE,121,1.0,2.0,32,0.00,,---,0.00,VWS V14.01,2013-12-12 16:53:00,
2013-12-12 11:54:00,41.0,13.4,30.46,SSE,166,0.0,1.0,32,0.00,,---,0.00,VWS V14.01,2013-12-12 16:54:00,
2013-12-12 11:55:00,41.0,14.1,30.46,South,169,0.0,0.0,33,0.00,,---,0.00,VWS V14.01,2013-12-12 16:55:00,
2013-12-12 11:56:00,41.1,14.9,30.46,NNE,16,1.0,3.0,34,0.00,,---,0.00,VWS V14.01,2013-12-12 16:56:00,
2013-12-12 11:57:00,41.7,14.0,30.45,NW,324,1.0,3.0,32,0.00,,---,0.00,VWS V14.01,2013-12-12 16:57:00,
2013-12-12 11:58:00,41.5,15.2,30.45,West,266,0.0,1.0,34,0.00,,---,0.00,VWS V14.01,2013-12-12 16:58:00,
2013-12-12 11:59:00,41.7,15.4,30.45,North,8,1.0,2.0,34,0.00,,---,0.00,VWS V14.01,2013-12-12 16:59:00,
2013-12-12 12:00:00,41.7,14.0,30.45,SW,233,2.0,3.0,32,0.00,,---,0.00,VWS V14.01,2013-12-12 17:00:00,
2013-12-12 12:01:00,41.7,14.0,30.45,North,360,2.0,3.0,32,0.00,,---,0.00,VWS V14.01,2013-12-12 17:01:00,
2013-12-12 12:02:00,41.8,15.5,30.45,NNE,13,3.0,3.0,34,0.00,,---,0.00,VWS V14.01,2013-12-12 17:02:00,
2013-12-12 12:03:00,41.7,13.3,30.45,ENE,65,1.0,2.0,31,0.00,,---,0.00,VWS V14.01,2013-12-12 17:03:00,
2013-12-12 12:04:00,41.6,13.9,30.45,ENE,65,0.0,1.0,32,0.00,,---,0.00,VWS V14.01,2013-12-12 17:04:00,
2013-12-12 12:05:00,41.6,15.3,30.45,North,11,0.0,1.0,34,0.00,,---,0.00,VWS V14.01,2013-12-12 17:05:00,
2013-12-12 12:06:00,41.8,15.5,30.45,NNE,16,3.0,3.0,34,0.00,,---,0.00,VWS V14.01,2013-12-12 17:06:00,
2013-12-12 12:07:00,41.9,13.5,30.45,West,276,1.0,3.0,31,0.00,,---,0.00,VWS V14.01,2013-12-12 17:07:00,
2013-12-12 12:08:00,41.9,13.5,30.45,North,352,0.0,2.0,31,0.00,,---,0.00,VWS V14.01,2013-12-12 17:08:00,
2013-12-12 12:09:00,42.0,14.3,30.45,East,84,2.0,2.0,32,0.00,,---,0.00,VWS V14.01,2013-12-12 17:09:00,
2013-12-12 12:10:00,41.9,13.5,30.45,NW,320,2.0,4.0,31,0.00,,---,0.00,VWS V14.01,2013-12-12 17:10:00,
2013-12-12 12:11:00,41.9,13.5,30.45,West,276,2.0,3.0,31,0.00,,---,0.00,VWS V14.01,2013-12-12 17:11:00,
2013-12-12 12:12:00,42.3,14.6,30.45,NW,319,2.0,3.0,32,0.00,,---,0.00,VWS V14.01,2013-12-12 17:12:00,
2013-12-12 12:13:00,42.0,15.0,30.45,NNW,345,3.0,4.0,33,0.00,,---,0.00,VWS V14.01,2013-12-12 17:13:00,
2013-12-12 12:14:00,42.1,13.7,30.45,SSE,166,2.0,3.0,31,0.00,,---,0.00,VWS V14.01,2013-12-12 17:14:00,
2013-12-12 12:15:00,42.3,15.3,30.45,WSW,241,2.0,2.0,33,0.00,,---,0.00,VWS V14.01,2013-12-12 17:15:00,
2013-12-12 12:16:00,42.3,14.6,30.45,NW,316,2.0,3.0,32,0.00,,---,0.00,VWS V14.01,2013-12-12 17:16:00,
2013-12-12 12:17:00,42.4,13.9,30.45,SSW,206,2.0,3.0,31,0.00,,---,0.00,VWS V14.01,2013-12-12 17:17:00,
2013-12-12 12:18:00,42.3,13.1,30.45,SW,218,2.0,5.0,30,0.00,,---,0.00,VWS V14.01,2013-12-12 17:18:00,
2013-12-12 12:19:00,42.3,14.6,30.45,WSW,253,1.0,2.0,32,0.00,,---,0.00,VWS V14.01,2013-12-12 17:19:00,
2013-12-12 12:20:00,42.3,14.6,30.45,WSW,244,1.0,2.0,32,0.00,,---,0.00,VWS V14.01,2013-12-12 17:20:00,
2013-12-12 12:21:00,42.4,13.9,30.45,South,190,2.0,3.0,31,0.00,,---,0.00,VWS V14.01,2013-12-12 17:21:00,
2013-12-12 12:22:00,42.6,14.8,30.45,SSW,207,1.0,4.0,32,0.00,,---,0.00,VWS V14.01,2013-12-12 17:22:00,
2013-12-12 12:23:00,42.4,13.2,30.44,WNW,297,2.0,4.0,30,0.00,,---,0.00,VWS V14.01,2013-12-12 17:23:00,
2013-12-12 12:24:00,42.5,14.7,30.45,SW,235,3.0,5.0,32,0.00,,---,0.00,VWS V14.01,2013-12-12 17:24:00,
2013-12-12 12:25:00,42.5,14.0,30.45,SW,219,4.0,4.0,31,0.00,,---,0.00,VWS V14.01,2013-12-12 17:25:00,
2013-12-12 12:26:00,42.6,14.8,30.45,SSW,207,1.0,4.0,32,0.00,,---,0.00,VWS V14.01,2013-12-12 17:26:00,
2013-12-12 12:27:00,42.7,11.9,30.44,SW,224,1.0,4.0,28,0.00,,---,0.00,VWS V14.01,2013-12-12 17:27:00,
2013-12-12 12:28:00,42.8,15.7,30.45,SW,218,2.0,4.0,33,0.00,,---,0.00,VWS V14.01,2013-12-12 17:28:00,
2013-12-12 12:29:00,42.7,13.4,30.45,West,263,2.0,3.0,30,0.00,,---,0.00,VWS V14.01,2013-12-12 17:29:00,
2013-12-12 12:30:00,42.7,12.7,30.44,SSW,207,2.0,4.0,29,0.00,,---,0.00,VWS V14.01,2013-12-12 17:30:00,
2013-12-12 12:31:00,42.7,11.9,30.44,SW,228,1.0,4.0,28,0.00,,---,0.00,VWS V14.01,2013-12-12 17:31:00,
2013-12-12 12:32:00,42.9,15.8,30.44,SW,235,0.0,2.0,33,0.00,,---,0.00,VWS V14.01,2013-12-12 17:32:00,
2013-12-12 12:33:00,42.6,13.4,30.44,WNW,283,0.0,2.0,30,0.00,,---,0.00,VWS V14.01,2013-12-12 17:33:00,
2013-12-12 12:34:00,42.7,13.4,30.44,ESE,113,1.0,1.0,30,0.00,,---,0.00,VWS V14.01,2013-12-12 17:34:00,
2013-12-12 12:35:00,42.7,13.4,30.44,NE,56,1.0,2.0,30,0.00,,---,0.00,VWS V14.01,2013-12-12 17:35:00,
2013-12-12 12:36:00,42.9,15.8,30.44,SW,235,0.0,2.0,33,0.00,,---,0.00,VWS V14.01,2013-12-12 17:36:00,
2013-12-12 12:37:00,43.7,12.8,30.44,NNE,20,1.0,3.0,28,0.00,,---,0.00,VWS V14.01,2013-12-12 17:37:00,
2013-12-12 12:38:00,43.3,14.0,30.44,NNE,33,1.0,2.0,30,0.00,,---,0.00,VWS V14.01,2013-12-12 17:38:00,
2013-12-12 12:39:00,43.4,13.3,30.44,WSW,242,0.0,3.0,29,0.00,,---,0.00,VWS V14.01,2013-12-12 17:39:00,
2013-12-12 12:40:00,43.5,13.4,30.44,NE,34,3.0,3.0,29,0.00,,---,0.00,VWS V14.01,2013-12-12 17:40:00,
2013-12-12 12:41:00,43.7,12.8,30.44,NNE,21,1.0,3.0,28,0.00,,---,0.00,VWS V14.01,2013-12-12 17:41:00,
2013-12-12 12:42:00,43.5,13.4,30.44,NNE,18,1.0,4.0,29,0.00,,---,0.00,VWS V14.01,2013-12-12 17:42:00,
2013-12-12 12:43:00,43.8,13.6,30.44,NNE,16,1.0,2.0,29,0.00,,---,0.00,VWS V14.01,2013-12-12 17:43:00,
2013-12-12 12:44:00,43.8,12.0,30.44,ENE,65,2.0,2.0,27,0.00,,---,0.00,VWS V14.01,2013-12-12 17:44:00,
2013-12-12 12:45:00,43.6,12.7,30.44,ENE,60,3.0,4.0,28,0.00,,---,0.00,VWS V14.01,2013-12-12 17:45:00,
2013-12-12 12:46:00,43.5,13.4,30.44,NNE,18,1.0,4.0,29,0.00,,---,0.00,VWS V14.01,2013-12-12 17:46:00,
2013-12-12 12:47:00,43.8,12.8,30.43,East,83,5.0,5.0,28,0.00,,---,0.00,VWS V14.01,2013-12-12 17:47:00,
2013-12-12 12:48:00,43.4,13.3,30.44,NE,50,2.0,3.0,29,0.00,,---,0.00,VWS V14.01,2013-12-12 17:48:00,
2013-12-12 12:49:00,43.5,14.1,30.44,WSW,252,2.0,2.0,30,0.00,,---,0.00,VWS V14.01,2013-12-12 17:49:00,
2013-12-12 12:50:00,43.7,13.5,30.44,WSW,251,1.0,2.0,29,0.00,,---,0.00,VWS V14.01,2013-12-12 17:50:00,
2013-12-12 12:51:00,43.8,12.8,30.43,East,87,4.0,5.0,28,0.00,,---,0.00,VWS V14.01,2013-12-12 17:51:00,
2013-12-12 12:52:00,44.2,13.2,30.43,East,84,1.0,4.0,28,0.00,,---,0.00,VWS V14.01,2013-12-12 17:52:00,
2013-12-12 12:53:00,44.0,13.0,30.43,NE,46,2.0,3.0,28,0.00,,---,0.00,VWS V14.01,2013-12-12 17:53:00,
2013-12-12 12:54:00,44.0,13.0,30.43,NW,322,1.0,4.0,28,0.00,,---,0.00,VWS V14.01,2013-12-12 17:54:00,
2013-12-12 12:55:00,44.1,13.9,30.43,ENE,72,2.0,2.0,29,0.00,,---,0.00,VWS V14.01,2013-12-12 17:55:00,
2013-12-12 12:56:00,44.2,13.2,30.43,ESE,103,1.0,4.0,28,0.00,,---,0.00,VWS V14.01,2013-12-12 17:56:00,
2013-12-12 12:57:00,44.4,13.4,30.43,WNW,300,4.0,4.0,28,0.00,,---,0.00,VWS V14.01,2013-12-12 17:57:00,
2013-12-12 12:58:00,44.2,13.2,30.43,WNW,294,2.0,2.0,28,0.00,,---,0.00,VWS V14.01,2013-12-12 17:58:00,
2013-12-12 12:59:00,44.2,13.2,30.43,North,354,1.0,4.0,28,0.00,,---,0.00,VWS V14.01,2013-12-12 17:59:00,
2013-12-12 13:00:00,44.3,13.3,30.43,NNW,327,1.0,4.0,28,0.00,,---,0.00,VWS V14.01,2013-12-12 18:00:00,
2013-12-12 13:01:00,44.4,13.4,30.43,NNW,339,4.0,4.0,28,0.00,,---,0.00,VWS V14.01,2013-12-12 18:01:00,
2013-12-12 13:02:00,44.0,13.8,30.43,SSE,166,3.0,4.0,29,0.00,,---,0.00,VWS V14.01,2013-12-12 18:02:00,
2013-12-12 13:03:00,44.3,13.3,30.43,NW,316,5.0,6.0,28,0.00,,---,0.00,VWS V14.01,2013-12-12 18:03:00,
2013-12-12 13:04:00,44.1,13.1,30.43,SE,129,2.0,5.0,28,0.00,,---,0.00,VWS V14.01,2013-12-12 18:04:00,
2013-12-12 13:05:00,44.0,13.8,30.43,SE,141,1.0,3.0,29,0.00,,---,0.00,VWS V14.01,2013-12-12 18:05:00,
2013-12-12 13:06:00,44.0,13.8,30.43,South,179,4.0,4.0,29,0.00,,---,0.00,VWS V14.01,2013-12-12 18:06:00,
2013-12-12 13:07:00,44.2,12.4,30.43,ESE,119,3.0,4.0,27,0.00,,---,0.00,VWS V14.01,2013-12-12 18:07:00,
2013-12-12 13:08:00,44.1,13.9,30.43,SSE,149,1.0,2.0,29,0.00,,---,0.00,VWS V14.01,2013-12-12 18:08:00,
2013-12-12 13:09:00,44.2,16.2,30.43,SSW,201,2.0,4.0,32,0.00,,---,0.00,VWS V14.01,2013-12-12 18:09:00,
2013-12-12 13:10:00,44.2,13.2,30.43,SE,132,1.0,3.0,28,0.00,,---,0.00,VWS V14.01,2013-12-12 18:10:00,
2013-12-12 13:11:00,44.2,12.4,30.43,South,170,3.0,4.0,27,0.00,,---,0.00,VWS V14.01,2013-12-12 18:11:00,
2013-12-12 13:12:00,44.9,14.6,30.43,SSW,210,1.0,1.0,29,0.00,,---,0.00,VWS V14.01,2013-12-12 18:12:00,
2013-12-12 13:13:00,44.3,13.3,30.43,South,174,1.0,1.0,28,0.00,,---,0.00,VWS V14.01,2013-12-12 18:13:00,
2013-12-12 13:14:00,44.5,15.8,30.43,SSE,162,1.0,1.0,31,0.00,,---,0.00,VWS V14.01,2013-12-12 18:14:00,
2013-12-12 13:15:00,44.7,15.2,30.43,NNE,27,0.0,5.0,30,0.00,,---,0.00,VWS V14.01,2013-12-12 18:15:00,
2013-12-12 13:16:00,44.9,14.6,30.43,SSW,210,1.0,1.0,29,0.00,,---,0.00,VWS V14.01,2013-12-12 18:16:00,
2013-12-12 13:17:00,45.4,14.2,30.43,NW,314,1.0,2.0,28,0.00,,---,0.00,VWS V14.01,2013-12-12 18:17:00,
2013-12-12 13:18:00,45.2,14.9,30.43,ENE,60,0.0,1.0,29,0.00,,---,0.00,VWS V14.01,2013-12-12 18:18:00,
2013-12-12 13:19:00,45.3,14.1,30.43,North,9,1.0,3.0,28,0.00,,---,0.00,VWS V14.01,2013-12-12 18:19:00,
2013-12-12 13:20:00,45.3,14.1,30.43,NE,45,1.0,2.0,28,0.00,,---,0.00,VWS V14.01,2013-12-12 18:20:00,
2013-12-12 13:21:00,45.4,14.2,30.43,NW,313,1.0,2.0,28,0.00,,---,0.00,VWS V14.01,2013-12-12 18:21:00,
2013-12-12 13:22:00,45.3,13.3,30.43,NNW,331,1.0,2.0,27,0.00,,---,0.00,VWS V14.01,2013-12-12 18:22:00,
2013-12-12 13:23:00,45.4,13.4,30.43,South,172,1.0,3.0,27,0.00,,---,0.00,VWS V14.01,2013-12-12 18:23:00,
2013-12-12 13:24:00,45.4,14.2,30.43,WSW,253,1.0,3.0,28,0.00,,---,0.00,VWS V14.01,2013-12-12 18:24:00,
2013-12-12 13:25:00,45.4,15.0,30.43,NW,307,2.0,3.0,29,0.00,,---,0.00,VWS V14.01,2013-12-12 18:25:00,
2013-12-12 13:26:00,45.3,13.3,30.43,NNW,330,1.0,2.0,27,0.00,,---,0.00,VWS V14.01,2013-12-12 18:26:00,
2013-12-12 13:27:00,45.1,13.1,30.43,WNW,300,2.0,4.0,27,0.00,,---,0.00,VWS V14.01,2013-12-12 18:27:00,
2013-12-12 13:28:00,45.1,13.1,30.43,WSW,242,1.0,1.0,27,0.00,,---,0.00,VWS V14.01,2013-12-12 18:28:00,
2013-12-12 13:29:00,45.1,14.8,30.43,East,98,1.0,3.0,29,0.00,,---,0.00,VWS V14.01,2013-12-12 18:29:00,
2013-12-12 13:30:00,45.1,14.8,30.43,WNW,295,3.0,3.0,29,0.00,,---,0.00,VWS V14.01,2013-12-12 18:30:00,
2013-12-12 13:31:00,45.1,13.1,30.43,WNW,297,2.0,4.0,27,0.00,,---,0.00,VWS V14.01,2013-12-12 18:31:00,
2013-12-12 13:32:00,45.0,13.9,30.43,South,170,3.0,4.0,28,0.00,,---,0.00,VWS V14.01,2013-12-12 18:32:00,
2013-12-12 13:33:00,44.9,14.6,30.43,North,350,0.0,2.0,29,0.00,,---,0.00,VWS V14.01,2013-12-12 18:33:00,
2013-12-12 13:34:00,44.9,13.0,30.43,SSE,163,2.0,3.0,27,0.00,,---,0.00,VWS V14.01,2013-12-12 18:34:00,
2013-12-12 13:35:00,44.9,14.6,30.43,SE,145,4.0,4.0,29,0.00,,---,0.00,VWS V14.01,2013-12-12 18:35:00,
2013-12-12 13:36:00,45.0,13.9,30.43,SSW,197,3.0,4.0,28,0.00,,---,0.00,VWS V14.01,2013-12-12 18:36:00,
2013-12-12 13:37:00,44.7,12.8,30.42,WSW,243,2.0,3.0,27,0.00,,---,0.00,VWS V14.01,2013-12-12 18:37:00,
2013-12-12 13:38:00,44.9,13.0,30.42,ESE,110,4.0,4.0,27,0.00,,---,0.00,VWS V14.01,2013-12-12 18:38:00,
2013-12-12 13:39:00,44.9,13.8,30.43,South,188,4.0,6.0,28,0.00,,---,0.00,VWS V14.01,2013-12-12 18:39:00,
2013-12-12 13:40:00,44.8,13.7,30.42,WSW,255,3.0,6.0,28,0.00,,---,0.00,VWS V14.01,2013-12-12 18:40:00,
2013-12-12 13:41:00,44.7,12.8,30.42,WSW,243,3.0,3.0,27,0.00,,---,0.00,VWS V14.01,2013-12-12 18:41:00,
2013-12-12 13:42:00,44.5,12.6,30.42,SW,228,0.0,4.0,27,0.00,,---,0.00,VWS V14.01,2013-12-12 18:42:00,
2013-12-12 13:43:00,44.5,13.4,30.42,SSW,207,2.0,3.0,28,0.00,,---,0.00,VWS V14.01,2013-12-12 18:43:00,
2013-12-12 13:44:00,44.6,14.3,30.42,South,172,2.0,2.0,29,0.00,,---,0.00,VWS V14.01,2013-12-12 18:44:00,
2013-12-12 13:45:00,44.6,12.7,30.42,SSW,200,2.0,4.0,27,0.00,,---,0.00,VWS V14.01,2013-12-12 18:45:00,
2013-12-12 13:46:00,44.5,12.6,30.42,SSE,151,1.0,4.0,27,0.00,,---,0.00,VWS V14.01,2013-12-12 18:46:00,
2013-12-12 13:47:00,44.3,12.4,30.42,East,82,1.0,2.0,27,0.00,,---,0.00,VWS V14.01,2013-12-12 18:47:00,
2013-12-12 13:48:00,44.4,14.1,30.42,SW,235,2.0,2.0,29,0.00,,---,0.00,VWS V14.01,2013-12-12 18:48:00,
2013-12-12 13:49:00,44.4,12.5,30.42,SW,219,1.0,4.0,27,0.00,,---,0.00,VWS V14.01,2013-12-12 18:49:00,
2013-12-12 13:50:00,44.4,12.5,30.42,East,82,2.0,2.0,27,0.00,,---,0.00,VWS V14.01,2013-12-12 18:50:00,
2013-12-12 13:51:00,44.4,12.5,30.42,East,82,0.0,2.0,27,0.00,,---,0.00,VWS V14.01,2013-12-12 18:51:00,
2013-12-12 13:52:00,44.5,15.0,30.42,NNE,33,3.0,3.0,30,0.00,,---,0.00,VWS V14.01,2013-12-12 18:52:00,
2013-12-12 13:53:00,44.5,13.4,30.42,West,271,1.0,2.0,28,0.00,,---,0.00,VWS V14.01,2013-12-12 18:53:00,
2013-12-12 13:54:00,44.5,12.6,30.42,SSW,207,2.0,2.0,27,0.00,,---,0.00,VWS V14.01,2013-12-12 18:54:00,
2013-12-12 13:55:00,44.5,12.6,30.42,SSW,198,0.0,2.0,27,0.00,,---,0.00,VWS V14.01,2013-12-12 18:55:00,
2013-12-12 13:56:00,44.5,15.0,30.42,NNE,33,3.0,3.0,30,0.00,,---,0.00,VWS V14.01,2013-12-12 18:56:00,
2013-12-12 13:57:00,44.7,14.4,30.42,NNE,18,2.0,2.0,29,0.00,,---,0.00,VWS V14.01,2013-12-12 18:57:00,
2013-12-12 13:58:00,44.6,14.3,30.42,NE,46,0.0,1.0,29,0.00,,---,0.00,VWS V14.01,2013-12-12 18:58:00,
2013-12-12 13:59:00,44.6,13.5,30.42,ESE,105,2.0,2.0,28,0.00,,---,0.00,VWS V14.01,2013-12-12 18:59:00,
2013-12-12 14:00:00,44.6,14.3,30.42,NNE,30,2.0,2.0,29,0.00,,---,0.00,VWS V14.01,2013-12-12 19:00:00,
2013-12-12 14:01:00,44.7,14.4,30.42,North,350,1.0,2.0,29,0.00,,---,0.00,VWS V14.01,2013-12-12 19:01:00,
2013-12-12 14:02:00,45.1,14.0,30.42,SW,218,2.0,4.0,28,0.00,,---,0.00,VWS V14.01,2013-12-12 19:02:00,
2013-12-12 14:03:00,44.8,13.7,30.42,WSW,248,2.0,2.0,28,0.00,,---,0.00,VWS V14.01,2013-12-12 19:03:00,
2013-12-12 14:04:00,44.9,13.8,30.42,NNW,328,1.0,2.0,28,0.00,,---,0.00,VWS V14.01,2013-12-12 19:04:00,
2013-12-12 14:05:00,45.0,13.9,30.42,SSE,162,3.0,3.0,28,0.00,,---,0.00,VWS V14.01,2013-12-12 19:05:00,
2013-12-12 14:06:00,45.1,14.0,30.42,SW,226,2.0,4.0,28,0.00,,---,0.00,VWS V14.01,2013-12-12 19:06:00,
2013-12-12 14:07:00,45.2,14.1,30.42,West,278,1.0,2.0,28,0.00,,---,0.00,VWS V14.01,2013-12-12 19:07:00,
2013-12-12 14:08:00,45.1,13.1,30.42,SW,226,2.0,2.0,27,0.00,,---,0.00,VWS V14.01,2013-12-12 19:08:00,
2013-12-12 14:09:00,45.1,13.1,30.42,West,278,1.0,2.0,27,0.00,,---,0.00,VWS V14.01,2013-12-12 19:09:00,
2013-12-12 14:10:00,45.2,13.2,30.42,SW,219,2.0,4.0,27,0.00,,---,0.00,VWS V14.01,2013-12-12 19:10:00,
2013-12-12 14:11:00,45.2,14.1,30.42,WSW,242,1.0,2.0,28,0.00,,---,0.00,VWS V14.01,2013-12-12 19:11:00,
2013-12-12 14:12:00,44.9,13.8,30.42,SSE,166,2.0,2.0,28,0.00,,---,0.00,VWS V14.01,2013-12-12 19:12:00,
2013-12-12 14:13:00,45.2,13.2,30.42,NW,307,3.0,4.0,27,0.00,,---,0.00,VWS V14.01,2013-12-12 19:13:00,
2013-12-12 14:14:00,45.1,12.3,30.42,ENE,60,2.0,4.0,26,0.00,,---,0.00,VWS V14.01,2013-12-12 19:14:00,
2013-12-12 14:15:00,45.0,10.4,30.42,ENE,60,0.0,2.0,24,0.00,,---,0.00,VWS V14.01,2013-12-12 19:15:00,
2013-12-12 14:16:00,44.9,13.8,30.42,SSE,155,2.0,2.0,28,0.00,,---,0.00,VWS V14.01,2013-12-12 19:16:00,
2013-12-12 14:17:00,45.1,12.3,30.42,WNW,285,1.0,3.0,26,0.00,,---,0.00,VWS V14.01,2013-12-12 19:17:00,
2013-12-12 14:18:00,45.1,12.3,30.42,WSW,239,1.0,2.0,26,0.00,,---,0.00,VWS V14.01,2013-12-12 19:18:00,
2013-12-12 14:19:00,45.2,11.5,30.42,NW,304,2.0,2.0,25,0.00,,---,0.00,VWS V14.01,2013-12-12 19:19:00,
2013-12-12 14:20:00,45.1,11.4,30.42,South,181,3.0,3.0,25,0.00,,---,0.00,VWS V14.01,2013-12-12 19:20:00,
2013-12-12 14:21:00,45.1,12.3,30.42,WNW,290,2.0,3.0,26,0.00,,---,0.00,VWS V14.01,2013-12-12 19:21:00,
2013-12-12 14:22:00,44.8,11.1,30.42,SSW,207,1.0,1.0,25,0.00,,---,0.00,VWS V14.01,2013-12-12 19:22:00,
2013-12-12 14:23:00,45.0,12.2,30.42,SW,220,0.0,3.0,26,0.00,,---,0.00,VWS V14.01,2013-12-12 19:23:00,
2013-12-12 14:24:00,45.0,12.2,30.42,NW,311,1.0,3.0,26,0.00,,---,0.00,VWS V14.01,2013-12-12 19:24:00,
2013-12-12 14:25:00,44.9,11.2,30.41,West,271,1.0,2.0,25,0.00,,---,0.00,VWS V14.01,2013-12-12 19:25:00,
2013-12-12 14:26:00,44.8,11.1,30.42,SSW,192,1.0,1.0,25,0.00,,---,0.00,VWS V14.01,2013-12-12 19:26:00,
2013-12-12 14:27:00,45.2,12.4,30.41,SE,134,3.0,3.0,26,0.00,,---,0.00,VWS V14.01,2013-12-12 19:27:00,
2013-12-12 14:28:00,44.9,12.1,30.41,SSE,153,0.0,1.0,26,0.00,,---,0.00,VWS V14.01,2013-12-12 19:28:00,
2013-12-12 14:29:00,45.1,13.1,30.41,SSE,162,2.0,5.0,27,0.00,,---,0.00,VWS V14.01,2013-12-12 19:29:00,
2013-12-12 14:30:00,45.1,12.3,30.41,ESE,117,3.0,6.0,26,0.00,,---,0.00,VWS V14.01,2013-12-12 19:30:00,
2013-12-12 14:31:00,45.2,12.4,30.41,SE,143,3.0,3.0,26,0.00,,---,0.00,VWS V14.01,2013-12-12 19:31:00,
2013-12-12 14:32:00,45.1,12.3,30.41,WSW,241,1.0,3.0,26,0.00,,---,0.00,VWS V14.01,2013-12-12 19:32:00,
2013-12-12 14:33:00,45.2,11.5,30.41,WSW,240,1.0,3.0,25,0.00,,---,0.00,VWS V14.01,2013-12-12 19:33:00,
2013-12-12 14:34:00,45.2,11.5,30.41,West,279,1.0,2.0,25,0.00,,---,0.00,VWS V14.01,2013-12-12 19:34:00,
2013-12-12 14:35:00,45.1,12.3,30.41,West,280,0.0,1.0,26,0.00,,---,0.00,VWS V14.01,2013-12-12 19:35:00,
2013-12-12 14:36:00,45.2,12.4,30.41,WSW,240,1.0,3.0,26,0.00,,---,0.00,VWS V14.01,2013-12-12 19:36:00,
2013-12-12 14:37:00,45.2,11.5,30.41,WNW,302,0.0,1.0,25,0.00,,---,0.00,VWS V14.01,2013-12-12 19:37:00,
2013-12-12 14:38:00,45.2,11.5,30.42,NW,304,2.0,2.0,25,0.00,,---,0.00,VWS V14.01,2013-12-12 19:38:00,
2013-12-12 14:39:00,45.2,11.5,30.42,NW,316,0.0,2.0,25,0.00,,---,0.00,VWS V14.01,2013-12-12 19:39:00,
2013-12-12 14:40:00,45.2,11.5,30.41,WNW,301,1.0,2.0,25,0.00,,---,0.00,VWS V14.01,2013-12-12 19:40:00,
2013-12-12 14:41:00,45.2,11.5,30.41,WNW,302,0.0,1.0,25,0.00,,---,0.00,VWS V14.01,2013-12-12 19:41:00,
2013-12-12 14:42:00,45.9,13.0,30.42,South,188,3.0,4.0,26,0.00,,---,0.00,VWS V14.01,2013-12-12 19:42:00,
2013-12-12 14:43:00,45.5,13.5,30.41,NW,316,0.0,1.0,27,0.00,,---,0.00,VWS V14.01,2013-12-12 19:43:00,
2013-12-12 14:44:00,45.7,12.8,30.42,SW,236,3.0,4.0,26,0.00,,---,0.00,VWS V14.01,2013-12-12 19:44:00,
2013-12-12 14:45:00,45.8,12.0,30.41,WSW,240,1.0,3.0,25,0.00,,---,0.00,VWS V14.01,2013-12-12 19:45:00,
2013-12-12 14:46:00,45.9,13.0,30.42,SW,224,4.0,4.0,26,0.00,,---,0.00,VWS V14.01,2013-12-12 19:46:00,
2013-12-12 14:47:00,45.7,12.8,30.42,SW,232,1.0,2.0,26,0.00,,---,0.00,VWS V14.01,2013-12-12 19:47:00,
2013-12-12 14:48:00,45.9,12.1,30.42,West,266,4.0,5.0,25,0.00,,---,0.00,VWS V14.01,2013-12-12 19:48:00,
2013-12-12 14:49:00,45.9,12.1,30.41,WSW,248,3.0,4.0,25,0.00,,---,0.00,VWS V14.01,2013-12-12 19:49:00,
2013-12-12 14:50:00,45.7,11.9,30.42,WSW,255,2.0,5.0,25,0.00,,---,0.00,VWS V14.01,2013-12-12 19:50:00,
2013-12-12 14:51:00,45.7,12.8,30.42,SW,233,1.0,2.0,26,0.00,,---,0.00,VWS V14.01,2013-12-12 19:51:00,
2013-12-12 14:52:00,45.6,12.7,30.42,SW,214,1.0,2.0,26,0.00,,---,0.00,VWS V14.01,2013-12-12 19:52:00,
2013-12-12 14:53:00,45.6,11.8,30.42,NW,307,2.0,2.0,25,0.00,,---,0.00,VWS V14.01,2013-12-12 19:53:00,
2013-12-12 14:54:00,45.5,11.7,30.42,NW,307,0.0,2.0,25,0.00,,---,0.00,VWS V14.01,2013-12-12 19:54:00,
2013-12-12 14:55:00,45.6,12.7,30.42,WSW,252,2.0,2.0,26,0.00,,---,0.00,VWS V14.01,2013-12-12 19:55:00,
2013-12-12 14:56:00,45.7,12.8,30.42,WSW,257,1.0,2.0,26,0.00,,---,0.00,VWS V14.01,2013-12-12 19:56:00,
2013-12-12 14:57:00,45.8,12.0,30.42,WNW,284,2.0,2.0,25,0.00,,---,0.00,VWS V14.01,2013-12-12 19:57:00,
2013-12-12 14:58:00,45.7,11.9,30.42,NW,313,1.0,3.0,25,0.00,,---,0.00,VWS V14.01,2013-12-12 19:58:00,
2013-12-12 14:59:00,45.7,11.9,30.42,NW,312,0.0,1.0,25,0.00,,---,0.00,VWS V14.01,2013-12-12 19:59:00,
2013-12-12 15:00:00,45.8,11.1,30.42,NNW,345,1.0,1.0,24,0.00,,---,0.00,VWS V14.01,2013-12-12 20:00:00,
2013-12-12 15:01:00,45.8,12.0,30.42,WNW,285,2.0,2.0,25,0.00,,---,0.00,VWS V14.01,2013-12-12 20:01:00,
2013-12-12 15:02:00,46.0,13.9,30.42,NW,305,1.0,1.0,27,0.00,,---,0.00,VWS V14.01,2013-12-12 20:02:00,
2013-12-12 15:03:00,45.9,12.1,30.42,WNW,303,0.0,1.0,25,0.00,,---,0.00,VWS V14.01,2013-12-12 20:03:00,
2013-12-12 15:04:00,45.9,12.1,30.42,North,359,2.0,3.0,25,0.00,,---,0.00,VWS V14.01,2013-12-12 20:04:00,
2013-12-12 15:05:00,46.0,13.9,30.42,WSW,240,0.0,3.0,27,0.00,,---,0.00,VWS V14.01,2013-12-12 20:05:00,
2013-12-12 15:06:00,46.1,14.0,30.42,NW,306,2.0,2.0,27,0.00,,---,0.00,VWS V14.01,2013-12-12 20:06:00,
2013-12-12 15:07:00,46.0,11.2,30.42,West,280,0.0,2.0,24,0.00,,---,0.00,VWS V14.01,2013-12-12 20:07:00,
2013-12-12 15:08:00,46.0,12.2,30.42,SSE,166,2.0,3.0,25,0.00,,---,0.00,VWS V14.01,2013-12-12 20:08:00,
2013-12-12 15:09:00,46.0,12.2,30.42,NW,323,2.0,3.0,25,0.00,,---,0.00,VWS V14.01,2013-12-12 20:09:00,
2013-12-12 15:10:00,46.0,11.2,30.42,WNW,298,2.0,2.0,24,0.00,,---,0.00,VWS V14.01,2013-12-12 20:10:00,
2013-12-12 15:11:00,45.9,11.2,30.42,WSW,241,1.0,2.0,24,0.00,,---,0.00,VWS V14.01,2013-12-12 20:11:00,
2013-12-12 15:12:00,46.2,11.4,30.41,WNW,283,1.0,1.0,24,0.00,,---,0.00,VWS V14.01,2013-12-12 20:12:00,
2013-12-12 15:13:00,46.0,13.1,30.41,SW,224,4.0,4.0,26,0.00,,---,0.00,VWS V14.01,2013-12-12 20:13:00,
2013-12-12 15:14:00,46.1,12.2,30.41,ENE,63,2.0,4.0,25,0.00,,---,0.00,VWS V14.01,2013-12-12 20:14:00,
2013-12-12 15:15:00,46.1,11.3,30.41,NW,313,1.0,3.0,24,0.00,,---,0.00,VWS V14.01,2013-12-12 20:15:00,
2013-12-12 15:16:00,46.2,11.4,30.41,WNW,285,1.0,1.0,24,0.00,,---,0.00,VWS V14.01,2013-12-12 20:16:00,
2013-12-12 15:17:00,46.4,8.6,30.41,WNW,289,7.0,7.0,21,0.00,,---,0.00,VWS V14.01,2013-12-12 20:17:00,
2013-12-12 15:18:00,46.4,10.6,30.41,West,278,1.0,4.0,23,0.00,,---,0.00,VWS V14.01,2013-12-12 20:18:00,
2013-12-12 15:19:00,46.5,9.7,30.42,WNW,300,1.0,3.0,22,0.00,,---,0.00,VWS V14.01,2013-12-12 20:19:00,
2013-12-12 15:20:00,46.4,7.5,30.42,SSW,195,1.0,3.0,20,0.00,,---,0.00,VWS V14.01,2013-12-12 20:20:00,
2013-12-12 15:21:00,46.4,8.6,30.41,WNW,290,6.0,7.0,21,0.00,,---,0.00,VWS V14.01,2013-12-12 20:21:00,
2013-12-12 15:22:00,46.3,7.4,30.42,NNW,335,0.0,3.0,20,0.00,,---,0.00,VWS V14.01,2013-12-12 20:22:00,
2013-12-12 15:23:00,46.2,6.2,30.41,WSW,242,2.0,3.0,19,0.00,,---,0.00,VWS V14.01,2013-12-12 20:23:00,
2013-12-12 15:24:00,46.3,7.4,30.41,West,264,3.0,3.0,20,0.00,,---,0.00,VWS V14.01,2013-12-12 20:24:00,
2013-12-12 15:25:00,46.3,7.4,30.42,WNW,294,2.0,4.0,20,0.00,,---,0.00,VWS V14.01,2013-12-12 20:25:00,
2013-12-12 15:26:00,46.4,7.5,30.42,WSW,249,1.0,3.0,20,0.00,,---,0.00,VWS V14.01,2013-12-12 20:26:00,
2013-12-12 15:27:00,46.1,7.3,30.42,WNW,283,1.0,3.0,20,0.00,,---,0.00,VWS V14.01,2013-12-12 20:27:00,
2013-12-12 15:28:00,46.4,6.4,30.42,NW,311,3.0,9.0,19,0.00,,---,0.00,VWS V14.01,2013-12-12 20:28:00,
2013-12-12 15:29:00,46.2,5.1,30.42,SSW,197,1.0,3.0,18,0.00,,---,0.00,VWS V14.01,2013-12-12 20:29:00,
2013-12-12 15:30:00,46.2,6.2,30.42,NW,325,3.0,5.0,19,0.00,,---,0.00,VWS V14.01,2013-12-12 20:30:00,
2013-12-12 15:31:00,46.1,7.3,30.42,ESE,122,1.0,3.0,20,0.00,,---,0.00,VWS V14.01,2013-12-12 20:31:00,
2013-12-12 15:32:00,46.1,7.3,30.42,NW,310,0.0,2.0,20,0.00,,---,0.00,VWS V14.01,2013-12-12 20:32:00,
2013-12-12 15:33:00,46.1,6.2,30.42,West,271,1.0,6.0,19,0.00,,---,0.00,VWS V14.01,2013-12-12 20:33:00,
2013-12-12 15:34:00,46.0,6.1,30.42,North,6,1.0,4.0,19,0.00,,---,0.00,VWS V14.01,2013-12-12 20:34:00,
2013-12-12 15:35:00,46.0,6.1,30.42,North,359,1.0,2.0,19,0.00,,---,0.00,VWS V14.01,2013-12-12 20:35:00,
2013-12-12 15:36:00,46.1,7.3,30.42,NW,311,0.0,2.0,20,0.00,,---,0.00,VWS V14.01,2013-12-12 20:36:00,
2013-12-12 15:37:00,46.1,7.3,30.42,WNW,283,2.0,4.0,20,0.00,,---,0.00,VWS V14.01,2013-12-12 20:37:00,
2013-12-12 15:38:00,46.1,7.3,30.41,WNW,291,1.0,4.0,20,0.00,,---,0.00,VWS V14.01,2013-12-12 20:38:00,
2013-12-12 15:39:00,46.1,8.4,30.42,West,280,0.0,3.0,21,0.00,,---,0.00,VWS V14.01,2013-12-12 20:39:00,
2013-12-12 15:40:00,46.2,7.4,30.42,NW,325,1.0,3.0,20,0.00,,---,0.00,VWS V14.01,2013-12-12 20:40:00,
2013-12-12 15:41:00,46.1,7.3,30.42,WNW,283,1.0,4.0,20,0.00,,---,0.00,VWS V14.01,2013-12-12 20:41:00,
2013-12-12 15:42:00,45.9,8.2,30.42,West,275,1.0,1.0,21,0.00,,---,0.00,VWS V14.01,2013-12-12 20:42:00,
2013-12-12 15:43:00,46.1,8.4,30.42,West,263,2.0,4.0,21,0.00,,---,0.00,VWS V14.01,2013-12-12 20:43:00,
2013-12-12 15:44:00,46.0,8.3,30.42,WNW,285,2.0,3.0,21,0.00,,---,0.00,VWS V14.01,2013-12-12 20:44:00,
2013-12-12 15:45:00,46.0,8.3,30.42,West,271,1.0,3.0,21,0.00,,---,0.00,VWS V14.01,2013-12-12 20:45:00,
2013-12-12 15:46:00,45.9,8.2,30.42,West,274,1.0,1.0,21,0.00,,---,0.00,VWS V14.01,2013-12-12 20:46:00,
2013-12-12 15:47:00,45.8,8.1,30.42,WNW,286,2.0,4.0,21,0.00,,---,0.00,VWS V14.01,2013-12-12 20:47:00,
2013-12-12 15:48:00,45.9,8.2,30.42,North,3,0.0,2.0,21,0.00,,---,0.00,VWS V14.01,2013-12-12 20:48:00,
2013-12-12 15:49:00,45.8,8.1,30.42,West,281,1.0,2.0,21,0.00,,---,0.00,VWS V14.01,2013-12-12 20:49:00,
2013-12-12 15:50:00,45.8,9.1,30.42,West,264,3.0,4.0,22,0.00,,---,0.00,VWS V14.01,2013-12-12 20:50:00,
2013-12-12 15:51:00,45.8,8.1,30.42,WNW,288,1.0,4.0,21,0.00,,---,0.00,VWS V14.01,2013-12-12 20:51:00,
2013-12-12 15:52:00,45.5,8.9,30.42,NNW,330,1.0,5.0,22,0.00,,---,0.00,VWS V14.01,2013-12-12 20:52:00,
2013-12-12 15:53:00,45.7,9.1,30.42,North,350,2.0,4.0,22,0.00,,---,0.00,VWS V14.01,2013-12-12 20:53:00,
2013-12-12 15:54:00,45.7,9.1,30.42,NNE,27,3.0,3.0,22,0.00,,---,0.00,VWS V14.01,2013-12-12 20:54:00,
2013-12-12 15:55:00,45.6,9.9,30.42,NNE,33,2.0,4.0,23,0.00,,---,0.00,VWS V14.01,2013-12-12 20:55:00,
2013-12-12 15:56:00,45.5,8.9,30.42,NNW,330,1.0,5.0,22,0.00,,---,0.00,VWS V14.01,2013-12-12 20:56:00,
2013-12-12 15:57:00,45.3,7.7,30.42,WNW,293,2.0,2.0,21,0.00,,---,0.00,VWS V14.01,2013-12-12 20:57:00,
2013-12-12 15:58:00,45.3,9.7,30.42,NW,319,2.0,2.0,23,0.00,,---,0.00,VWS V14.01,2013-12-12 20:58:00,
2013-12-12 15:59:00,45.3,8.7,30.42,West,276,1.0,2.0,22,0.00,,---,0.00,VWS V14.01,2013-12-12 20:59:00,
2013-12-12 16:00:00,45.3,7.7,30.42,WNW,298,1.0,1.0,21,0.00,,---,0.00,VWS V14.01,2013-12-12 21:00:00,
2013-12-12 16:01:00,45.3,7.7,30.42,WNW,293,2.0,2.0,21,0.00,,---,0.00,VWS V14.01,2013-12-12 21:01:00,
2013-12-12 16:02:00,45.3,8.7,30.42,WSW,251,1.0,2.0,22,0.00,,---,0.00,VWS V14.01,2013-12-12 21:02:00,
2013-12-12 16:03:00,45.3,9.7,30.42,West,270,0.0,1.0,23,0.00,,---,0.00,VWS V14.01,2013-12-12 21:03:00,
2013-12-12 16:04:00,45.3,9.7,30.42,WNW,284,0.0,1.0,23,0.00,,---,0.00,VWS V14.01,2013-12-12 21:04:00,
2013-12-12 16:05:00,45.3,9.7,30.42,West,267,1.0,2.0,23,0.00,,---,0.00,VWS V14.01,2013-12-12 21:05:00,
2013-12-12 16:06:00,45.3,8.7,30.42,WSW,252,1.0,2.0,22,0.00,,---,0.00,VWS V14.01,2013-12-12 21:06:00,
2013-12-12 16:07:00,44.9,9.4,30.42,West,276,0.0,2.0,23,0.00,,---,0.00,VWS V14.01,2013-12-12 21:07:00,
2013-12-12 16:08:00,45.2,8.6,30.42,WNW,286,2.0,3.0,22,0.00,,---,0.00,VWS V14.01,2013-12-12 21:08:00,
2013-12-12 16:09:00,45.1,8.5,30.42,West,276,1.0,2.0,22,0.00,,---,0.00,VWS V14.01,2013-12-12 21:09:00,
2013-12-12 16:10:00,45.0,9.4,30.42,NW,309,2.0,2.0,23,0.00,,---,0.00,VWS V14.01,2013-12-12 21:10:00,
2013-12-12 16:11:00,44.9,9.4,30.42,West,276,0.0,2.0,23,0.00,,---,0.00,VWS V14.01,2013-12-12 21:11:00,
2013-12-12 16:12:00,44.6,10.1,30.43,West,278,0.0,3.0,24,0.00,,---,0.00,VWS V14.01,2013-12-12 21:12:00,
2013-12-12 16:13:00,44.7,10.1,30.42,West,262,1.0,2.0,24,0.00,,---,0.00,VWS V14.01,2013-12-12 21:13:00,
2013-12-12 16:14:00,44.7,8.2,30.42,West,271,0.0,1.0,22,0.00,,---,0.00,VWS V14.01,2013-12-12 21:14:00,
2013-12-12 16:15:00,44.6,10.1,30.43,NE,46,1.0,1.0,24,0.00,,---,0.00,VWS V14.01,2013-12-12 21:15:00,
2013-12-12 16:16:00,44.6,10.1,30.43,West,278,0.0,3.0,24,0.00,,---,0.00,VWS V14.01,2013-12-12 21:16:00,
2013-12-12 16:17:00,44.6,11.0,30.43,NE,41,1.0,1.0,25,0.00,,---,0.00,VWS V14.01,2013-12-12 21:17:00,
2013-12-12 16:18:00,44.5,10.0,30.43,ENE,63,0.0,1.0,24,0.00,,---,0.00,VWS V14.01,2013-12-12 21:18:00,
2013-12-12 16:19:00,44.5,10.0,30.43,NE,41,0.0,1.0,24,0.00,,---,0.00,VWS V14.01,2013-12-12 21:19:00,
2013-12-12 16:20:00,44.6,11.0,30.43,NE,41,0.0,1.0,25,0.00,,---,0.00,VWS V14.01,2013-12-12 21:20:00,
2013-12-12 16:21:00,44.5,10.9,30.43,NE,41,1.0,1.0,25,0.00,,---,0.00,VWS V14.01,2013-12-12 21:21:00,
2013-12-12 16:22:00,44.2,9.7,30.43,ESE,110,0.0,1.0,24,0.00,,---,0.00,VWS V14.01,2013-12-12 21:22:00,
2013-12-12 16:23:00,44.5,9.0,30.43,West,281,1.0,5.0,23,0.00,,---,0.00,VWS V14.01,2013-12-12 21:23:00,
2013-12-12 16:24:00,44.4,8.9,30.43,WNW,297,0.0,2.0,23,0.00,,---,0.00,VWS V14.01,2013-12-12 21:24:00,
2013-12-12 16:25:00,44.0,10.4,30.43,NNW,343,0.0,1.0,25,0.00,,---,0.00,VWS V14.01,2013-12-12 21:25:00,
2013-12-12 16:26:00,44.2,9.7,30.43,ESE,111,0.0,1.0,24,0.00,,---,0.00,VWS V14.01,2013-12-12 21:26:00,
2013-12-12 16:27:00,44.1,8.7,30.43,WSW,248,1.0,1.0,23,0.00,,---,0.00,VWS V14.01,2013-12-12 21:27:00,
2013-12-12 16:28:00,44.1,9.6,30.43,NNW,343,1.0,3.0,24,0.00,,---,0.00,VWS V14.01,2013-12-12 21:28:00,
2013-12-12 16:29:00,43.9,10.4,30.43,NNE,19,2.0,2.0,25,0.00,,---,0.00,VWS V14.01,2013-12-12 21:29:00,
2013-12-12 16:30:00,43.5,10.0,30.43,NE,56,2.0,3.0,25,0.00,,---,0.00,VWS V14.01,2013-12-12 21:30:00,
2013-12-12 16:31:00,43.7,8.3,30.43,NNW,348,1.0,3.0,23,0.00,,---,0.00,VWS V14.01,2013-12-12 21:31:00,
2013-12-12 16:32:00,43.7,9.3,30.43,NW,321,1.0,3.0,24,0.00,,---,0.00,VWS V14.01,2013-12-12 21:32:00,
2013-12-12 16:33:00,43.6,10.1,30.43,NNE,18,3.0,3.0,25,0.00,,---,0.00,VWS V14.01,2013-12-12 21:33:00,
2013-12-12 16:34:00,43.5,9.1,30.43,North,11,1.0,4.0,24,0.00,,---,0.00,VWS V14.01,2013-12-12 21:34:00,
2013-12-12 16:35:00,43.1,10.6,30.43,NNE,26,1.0,1.0,26,0.00,,---,0.00,VWS V14.01,2013-12-12 21:35:00,
2013-12-12 16:36:00,43.3,8.9,30.42,NE,35,1.0,2.0,24,0.00,,---,0.00,VWS V14.01,2013-12-12 21:36:00,
2013-12-12 16:37:00,43.2,8.9,30.43,NNW,343,0.0,3.0,24,0.00,,---,0.00,VWS V14.01,2013-12-12 21:37:00,
2013-12-12 16:38:00,43.1,10.6,30.43,NNE,27,1.0,1.0,26,0.00,,---,0.00,VWS V14.01,2013-12-12 21:38:00,
2013-12-12 16:39:00,43.1,9.7,30.43,North,3,4.0,4.0,25,0.00,,---,0.00,VWS V14.01,2013-12-12 21:39:00,
2013-12-12 16:40:00,42.8,10.3,30.43,NNW,345,1.0,1.0,26,0.00,,---,0.00,VWS V14.01,2013-12-12 21:40:00,
2013-12-12 16:41:00,42.9,8.6,30.43,WNW,283,0.0,2.0,24,0.00,,---,0.00,VWS V14.01,2013-12-12 21:41:00,
2013-12-12 16:42:00,42.8,10.3,30.43,West,266,2.0,2.0,26,0.00,,---,0.00,VWS V14.01,2013-12-12 21:42:00,
2013-12-12 16:43:00,42.8,9.4,30.43,NNW,345,1.0,3.0,25,0.00,,---,0.00,VWS V14.01,2013-12-12 21:43:00,
2013-12-12 16:44:00,42.7,10.2,30.43,ENE,78,1.0,1.0,26,0.00,,---,0.00,VWS V14.01,2013-12-12 21:44:00,
2013-12-12 16:45:00,42.4,10.8,30.43,West,266,1.0,1.0,27,0.00,,---,0.00,VWS V14.01,2013-12-12 21:45:00,
2013-12-12 16:46:00,42.6,10.1,30.43,West,269,1.0,2.0,26,0.00,,---,0.00,VWS V14.01,2013-12-12 21:46:00,
2013-12-12 16:47:00,42.6,11.0,30.43,NE,46,2.0,2.0,27,0.00,,---,0.00,VWS V14.01,2013-12-12 21:47:00,
2013-12-12 16:48:00,42.5,10.9,30.43,ENE,72,1.0,2.0,27,0.00,,---,0.00,VWS V14.01,2013-12-12 21:48:00,
2013-12-12 16:49:00,42.4,10.8,30.43,West,266,1.0,1.0,27,0.00,,---,0.00,VWS V14.01,2013-12-12 21:49:00,
2013-12-12 16:50:00,41.8,11.1,30.43,NE,55,0.0,0.0,28,0.00,,---,0.00,VWS V14.01,2013-12-12 21:50:00,
2013-12-12 16:51:00,42.1,11.4,30.43,ENE,72,1.0,2.0,28,0.00,,---,0.00,VWS V14.01,2013-12-12 21:51:00,
2013-12-12 16:52:00,42.0,10.5,30.43,ENE,72,0.0,1.0,27,0.00,,---,0.00,VWS V14.01,2013-12-12 21:52:00,
2013-12-12 16:53:00,41.9,11.2,30.43,NE,55,0.0,2.0,28,0.00,,---,0.00,VWS V14.01,2013-12-12 21:53:00,
2013-12-12 16:54:00,41.8,11.1,30.43,NE,55,0.0,0.0,28,0.00,,---,0.00,VWS V14.01,2013-12-12 21:54:00,
2013-12-12 16:55:00,41.2,11.4,30.43,NE,53,1.0,1.0,29,0.00,,---,0.00,VWS V14.01,2013-12-12 21:55:00,
2013-12-12 16:56:00,41.5,11.6,30.43,NE,55,0.0,1.0,29,0.00,,---,0.00,VWS V14.01,2013-12-12 21:56:00,
2013-12-12 16:57:00,41.3,11.4,30.43,NE,53,0.0,1.0,29,0.00,,---,0.00,VWS V14.01,2013-12-12 21:57:00,
2013-12-12 16:58:00,41.2,11.4,30.43,NE,53,1.0,1.0,29,0.00,,---,0.00,VWS V14.01,2013-12-12 21:58:00,
2013-12-12 16:59:00,41.1,11.3,30.43,NE,49,1.0,2.0,29,0.00,,---,0.00,VWS V14.01,2013-12-12 21:59:00,
2013-12-12 17:00:00,40.6,11.6,30.43,NE,43,1.0,1.0,30,0.00,,---,0.00,VWS V14.01,2013-12-12 22:00:00,
2013-12-12 17:01:00,40.9,11.9,30.43,NE,40,2.0,2.0,30,0.00,,---,0.00,VWS V14.01,2013-12-12 22:01:00,
2013-12-12 17:02:00,40.8,11.8,30.43,ENE,63,1.0,2.0,30,0.00,,---,0.00,VWS V14.01,2013-12-12 22:02:00,
2013-12-12 17:03:00,40.7,11.7,30.43,NE,43,1.0,3.0,30,0.00,,---,0.00,VWS V14.01,2013-12-12 22:03:00,
2013-12-12 17:04:00,40.6,11.6,30.43,NNE,23,2.0,2.0,30,0.00,,---,0.00,VWS V14.01,2013-12-12 22:04:00,
2013-12-12 17:05:00,40.1,12.6,30.43,NNE,30,0.0,0.0,32,0.00,,---,0.00,VWS V14.01,2013-12-12 22:05:00,
2013-12-12 17:06:00,40.3,11.4,30.43,NNE,30,1.0,2.0,30,0.00,,---,0.00,VWS V14.01,2013-12-12 22:06:00,
2013-12-12 17:07:00,40.2,12.0,30.43,NNE,30,0.0,1.0,31,0.00,,---,0.00,VWS V14.01,2013-12-12 22:07:00,
2013-12-12 17:08:00,40.1,12.6,30.43,NNE,30,0.0,1.0,32,0.00,,---,0.00,VWS V14.01,2013-12-12 22:08:00,
2013-12-12 17:09:00,39.9,12.4,30.43,NNE,30,0.0,0.0,32,0.00,,---,0.00,VWS V14.01,2013-12-12 22:09:00,
2013-12-12 17:10:00,39.5,12.8,30.43,NNW,328,0.0,1.0,33,0.00,,---,0.00,VWS V14.01,2013-12-12 22:10:00,
2013-12-12 17:11:00,39.7,11.6,30.43,NNE,33,0.0,1.0,31,0.00,,---,0.00,VWS V14.01,2013-12-12 22:11:00,
2013-12-12 17:12:00,39.6,12.2,30.43,NNE,33,0.0,2.0,32,0.00,,---,0.00,VWS V14.01,2013-12-12 22:12:00,
2013-12-12 17:13:00,39.5,12.8,30.43,NW,326,1.0,2.0,33,0.00,,---,0.00,VWS V14.01,2013-12-12 22:13:00,
2013-12-12 17:14:00,39.3,12.6,30.43,NNE,30,1.0,1.0,33,0.00,,---,0.00,VWS V14.01,2013-12-12 22:14:00,
2013-12-12 17:15:00,38.9,11.6,30.43,NE,36,0.0,0.0,32,0.00,,---,0.00,VWS V14.01,2013-12-12 22:15:00,
2013-12-12 17:16:00,39.1,12.4,30.43,NNE,30,1.0,1.0,33,0.00,,---,0.00,VWS V14.01,2013-12-12 22:16:00,
2013-12-12 17:17:00,39.1,11.8,30.43,NE,36,1.0,2.0,32,0.00,,---,0.00,VWS V14.01,2013-12-12 22:17:00,
2013-12-12 17:18:00,39.0,11.7,30.43,NE,35,0.0,1.0,32,0.00,,---,0.00,VWS V14.01,2013-12-12 22:18:00,
2013-12-12 17:19:00,38.9,12.3,30.43,NE,35,0.0,0.0,33,0.00,,---,0.00,VWS V14.01,2013-12-12 22:19:00,
2013-12-12 17:20:00,38.5,13.2,30.43,NE,36,0.0,0.0,35,0.00,,---,0.00,VWS V14.01,2013-12-12 22:20:00,
2013-12-12 17:21:00,38.7,13.4,30.43,NE,35,0.0,1.0,35,0.00,,---,0.00,VWS V14.01,2013-12-12 22:21:00,
2013-12-12 17:22:00,38.6,13.3,30.43,NE,36,0.0,0.0,35,0.00,,---,0.00,VWS V14.01,2013-12-12 22:22:00,
2013-12-12 17:23:00,38.5,13.2,30.43,NE,36,0.0,0.0,35,0.00,,---,0.00,VWS V14.01,2013-12-12 22:23:00,
2013-12-12 17:24:00,38.3,13.7,30.43,NE,35,0.0,0.0,36,0.00,,---,0.00,VWS V14.01,2013-12-12 22:24:00,
2013-12-12 17:25:00,37.7,13.8,30.43,West,280,0.0,0.0,37,0.00,,---,0.00,VWS V14.01,2013-12-12 22:25:00,
2013-12-12 17:26:00,38.0,13.4,30.43,West,277,0.0,1.0,36,0.00,,---,0.00,VWS V14.01,2013-12-12 22:26:00,
2013-12-12 17:27:00,37.9,15.2,30.43,West,280,0.0,0.0,39,0.00,,---,0.00,VWS V14.01,2013-12-12 22:27:00,
2013-12-12 17:28:00,37.7,13.8,30.43,West,280,0.0,0.0,37,0.00,,---,0.00,VWS V14.01,2013-12-12 22:28:00,
2013-12-12 17:29:00,37.6,13.7,30.43,West,280,0.0,1.0,37,0.00,,---,0.00,VWS V14.01,2013-12-12 22:29:00,
2013-12-12 17:30:00,37.2,15.1,30.43,East,96,0.0,0.0,40,0.00,,---,0.00,VWS V14.01,2013-12-12 22:30:00,
2013-12-12 17:31:00,37.4,14.1,30.43,East,96,0.0,1.0,38,0.00,,---,0.00,VWS V14.01,2013-12-12 22:31:00,
2013-12-12 17:32:00,37.3,14.0,30.43,East,96,0.0,0.0,38,0.00,,---,0.00,VWS V14.01,2013-12-12 22:32:00,
2013-12-12 17:33:00,37.2,15.1,30.43,East,96,0.0,0.0,40,0.00,,---,0.00,VWS V14.01,2013-12-12 22:33:00,
2013-12-12 17:34:00,37.2,14.5,30.43,East,96,0.0,0.0,39,0.00,,---,0.00,VWS V14.01,2013-12-12 22:34:00,
2013-12-12 17:35:00,36.7,14.7,30.43,East,96,0.0,0.0,40,0.00,,---,0.00,VWS V14.01,2013-12-12 22:35:00,
2013-12-12 17:36:00,36.9,14.3,30.43,East,96,0.0,0.0,39,0.00,,---,0.00,VWS V14.01,2013-12-12 22:36:00,
2013-12-12 17:37:00,36.8,14.2,30.43,East,96,0.0,0.0,39,0.00,,---,0.00,VWS V14.01,2013-12-12 22:37:00,
2013-12-12 17:38:00,36.7,14.7,30.43,East,96,0.0,0.0,40,0.00,,---,0.00,VWS V14.01,2013-12-12 22:38:00,
2013-12-12 17:39:00,36.6,14.0,30.43,East,96,0.0,0.0,39,0.00,,---,0.00,VWS V14.01,2013-12-12 22:39:00,
2013-12-12 17:40:00,36.1,13.6,30.43,East,96,0.0,0.0,39,0.00,,---,0.00,VWS V14.01,2013-12-12 22:40:00,
2013-12-12 17:41:00,36.4,13.8,30.43,East,96,0.0,0.0,39,0.00,,---,0.00,VWS V14.01,2013-12-12 22:41:00,
2013-12-12 17:42:00,36.3,13.7,30.43,East,96,0.0,1.0,39,0.00,,---,0.00,VWS V14.01,2013-12-12 22:42:00,
2013-12-12 17:43:00,36.2,13.6,30.43,East,96,0.0,0.0,39,0.00,,---,0.00,VWS V14.01,2013-12-12 22:43:00,
2013-12-12 17:44:00,36.0,13.5,30.43,East,96,0.0,0.0,39,0.00,,---,0.00,VWS V14.01,2013-12-12 22:44:00,
2013-12-12 17:45:00,35.6,13.1,30.44,East,96,0.0,0.0,39,0.00,,---,0.00,VWS V14.01,2013-12-12 22:45:00,
2013-12-12 17:46:00,35.8,13.3,30.44,East,96,0.0,0.0,39,0.00,,---,0.00,VWS V14.01,2013-12-12 22:46:00,
2013-12-12 17:47:00,35.7,13.2,30.44,East,96,0.0,0.0,39,0.00,,---,0.00,VWS V14.01,2013-12-12 22:47:00,
2013-12-12 17:48:00,35.6,13.1,30.44,East,96,0.0,0.0,39,0.00,,---,0.00,VWS V14.01,2013-12-12 22:48:00,
2013-12-12 17:49:00,35.5,13.0,30.44,East,96,0.0,0.0,39,0.00,,---,0.00,VWS V14.01,2013-12-12 22:49:00,
2013-12-12 17:50:00,35.3,12.8,30.44,East,96,0.0,0.0,39,0.00,,---,0.00,VWS V14.01,2013-12-12 22:50:00,
2013-12-12 17:51:00,35.3,12.8,30.44,East,96,0.0,0.0,39,0.00,,---,0.00,VWS V14.01,2013-12-12 22:51:00,
2013-12-12 17:52:00,35.3,12.2,30.44,East,96,0.0,0.0,38,0.00,,---,0.00,VWS V14.01,2013-12-12 22:52:00,
2013-12-12 17:53:00,35.3,12.8,30.44,East,96,0.0,1.0,39,0.00,,---,0.00,VWS V14.01,2013-12-12 22:53:00,
2013-12-12 17:54:00,35.2,12.1,30.44,East,96,0.0,0.0,38,0.00,,---,0.00,VWS V14.01,2013-12-12 22:54:00,
2013-12-12 17:55:00,35.1,13.2,30.44,East,96,0.0,0.0,40,0.00,,---,0.00,VWS V14.01,2013-12-12 22:55:00,
2013-12-12 17:56:00,35.2,12.7,30.44,East,96,0.0,0.0,39,0.00,,---,0.00,VWS V14.01,2013-12-12 22:56:00,
2013-12-12 17:57:00,35.2,13.3,30.44,East,96,0.0,0.0,40,0.00,,---,0.00,VWS V14.01,2013-12-12 22:57:00,
2013-12-12 17:58:00,35.1,13.8,30.44,East,96,0.0,0.0,41,0.00,,---,0.00,VWS V14.01,2013-12-12 22:58:00,
2013-12-12 17:59:00,35.1,13.2,30.44,East,96,0.0,0.0,40,0.00,,---,0.00,VWS V14.01,2013-12-12 22:59:00,
2013-12-12 18:00:00,35.1,12.6,30.44,NNE,30,1.0,1.0,39,0.00,,---,0.00,VWS V14.01,2013-12-12 23:00:00,
2013-12-12 18:01:00,35.0,12.6,30.44,NNE,28,2.0,2.0,39,0.00,,---,0.00,VWS V14.01,2013-12-12 23:01:00,
2013-12-12 18:02:00,35.1,12.6,30.44,NNE,30,1.0,2.0,39,0.00,,---,0.00,VWS V14.01,2013-12-12 23:02:00,
2013-12-12 18:03:00,35.1,12.6,30.44,NNE,30,1.0,1.0,39,0.00,,---,0.00,VWS V14.01,2013-12-12 23:03:00,
2013-12-12 18:04:00,35.2,12.7,30.44,NNE,30,0.0,1.0,39,0.00,,---,0.00,VWS V14.01,2013-12-12 23:04:00,
2013-12-12 18:05:00,35.3,14.0,30.44,NNE,32,0.0,1.0,41,0.00,,---,0.00,VWS V14.01,2013-12-12 23:05:00,
2013-12-12 18:06:00,35.3,12.8,30.44,NNE,33,0.0,1.0,39,0.00,,---,0.00,VWS V14.01,2013-12-12 23:06:00,
2013-12-12 18:07:00,35.3,14.0,30.44,NNE,33,0.0,0.0,41,0.00,,---,0.00,VWS V14.01,2013-12-12 23:07:00,
2013-12-12 18:08:00,35.3,14.0,30.44,NNE,32,0.0,0.0,41,0.00,,---,0.00,VWS V14.01,2013-12-12 23:08:00,
2013-12-12 18:09:00,35.2,14.4,30.44,NNE,32,0.0,1.0,42,0.00,,---,0.00,VWS V14.01,2013-12-12 23:09:00,
2013-12-12 18:10:00,34.5,14.9,30.44,NE,40,0.0,0.0,44,0.00,,---,0.00,VWS V14.01,2013-12-12 23:10:00,
2013-12-12 18:11:00,34.9,14.7,30.44,NE,40,1.0,1.0,43,0.00,,---,0.00,VWS V14.01,2013-12-12 23:11:00,
2013-12-12 18:12:00,34.7,14.5,30.44,NE,40,0.0,1.0,43,0.00,,---,0.00,VWS V14.01,2013-12-12 23:12:00,
2013-12-12 18:13:00,34.5,14.9,30.44,NE,40,0.0,1.0,44,0.00,,---,0.00,VWS V14.01,2013-12-12 23:13:00,
2013-12-12 18:14:00,34.3,14.7,30.44,NE,39,1.0,1.0,44,0.00,,---,0.00,VWS V14.01,2013-12-12 23:14:00,
2013-12-12 18:15:00,33.7,15.6,30.45,NE,40,0.0,0.0,47,0.00,,---,0.00,VWS V14.01,2013-12-12 23:15:00,
2013-12-12 18:16:00,34.0,14.9,30.44,NE,40,0.0,1.0,45,0.00,,---,0.00,VWS V14.01,2013-12-12 23:16:00,
2013-12-12 18:17:00,33.8,15.2,30.44,NE,39,0.0,1.0,46,0.00,,---,0.00,VWS V14.01,2013-12-12 23:17:00,
2013-12-12 18:18:00,33.7,15.6,30.44,NE,40,0.0,0.0,47,0.00,,---,0.00,VWS V14.01,2013-12-12 23:18:00,
2013-12-12 18:19:00,33.6,15.5,30.45,NE,40,1.0,1.0,47,0.00,,---,0.00,VWS V14.01,2013-12-12 23:19:00,
2013-12-12 18:20:00,33.1,15.6,30.45,NE,39,0.0,0.0,48,0.00,,---,0.00,VWS V14.01,2013-12-12 23:20:00,
2013-12-12 18:22:00,33.2,15.6,30.45,NE,40,0.0,0.0,48,0.00,,---,0.00,VWS V14.01,2013-12-12 23:22:00,
2013-12-12 18:23:00,33.1,15.6,30.45,NE,40,0.0,0.0,48,0.00,,---,0.00,VWS V14.01,2013-12-12 23:23:00,
2013-12-12 18:24:00,33.0,15.9,30.45,NE,39,0.0,0.0,49,0.00,,---,0.00,VWS V14.01,2013-12-12 23:24:00,
2013-12-12 18:25:00,32.5,15.5,30.45,NE,40,0.0,0.0,49,0.00,,---,0.00,VWS V14.01,2013-12-12 23:25:00,
2013-12-12 18:26:00,32.7,15.7,30.45,NE,39,0.0,0.0,49,0.00,,---,0.00,VWS V14.01,2013-12-12 23:26:00,
2013-12-12 18:27:00,32.6,15.6,30.45,NE,39,0.0,1.0,49,0.00,,---,0.00,VWS V14.01,2013-12-12 23:27:00,
2013-12-12 18:28:00,32.5,15.5,30.45,NE,40,0.0,0.0,49,0.00,,---,0.00,VWS V14.01,2013-12-12 23:28:00,
2013-12-12 18:29:00,32.4,15.4,30.45,NE,39,0.0,0.0,49,0.00,,---,0.00,VWS V14.01,2013-12-12 23:29:00,
2013-12-12 18:30:00,31.9,14.4,30.45,NE,40,0.0,0.0,48,0.00,,---,0.00,VWS V14.01,2013-12-12 23:30:00,
2013-12-12 18:31:00,32.2,15.2,30.45,NE,39,0.0,0.0,49,0.00,,---,0.00,VWS V14.01,2013-12-12 23:31:00,
2013-12-12 18:32:00,32.0,15.0,30.45,NE,40,0.0,0.0,49,0.00,,---,0.00,VWS V14.01,2013-12-12 23:32:00,
2013-12-12 18:33:00,31.9,14.4,30.45,NE,39,0.0,1.0,48,0.00,,---,0.00,VWS V14.01,2013-12-12 23:33:00,
2013-12-12 18:34:00,31.8,14.4,30.45,NE,40,0.0,1.0,48,0.00,,---,0.00,VWS V14.01,2013-12-12 23:34:00,
2013-12-12 18:35:00,31.5,15.0,30.45,NE,39,0.0,0.0,50,0.00,,---,0.00,VWS V14.01,2013-12-12 23:35:00,
2013-12-12 18:36:00,31.6,14.6,30.45,NE,39,0.0,0.0,49,0.00,,---,0.00,VWS V14.01,2013-12-12 23:36:00,
2013-12-12 18:37:00,31.6,14.6,30.45,NE,39,0.0,1.0,49,0.00,,---,0.00,VWS V14.01,2013-12-12 23:37:00,
2013-12-12 18:38:00,31.5,15.0,30.45,NE,39,0.0,0.0,50,0.00,,---,0.00,VWS V14.01,2013-12-12 23:38:00,
2013-12-12 18:39:00,31.5,15.0,30.45,NE,39,0.0,0.0,50,0.00,,---,0.00,VWS V14.01,2013-12-12 23:39:00,
2013-12-12 18:40:00,31.3,14.8,30.45,NE,38,0.0,0.0,50,0.00,,---,0.00,VWS V14.01,2013-12-12 23:40:00,
2013-12-12 18:41:00,31.3,14.8,30.45,NE,38,0.0,0.0,50,0.00,,---,0.00,VWS V14.01,2013-12-12 23:41:00,
2013-12-12 18:42:00,31.3,14.8,30.45,NE,40,0.0,0.0,50,0.00,,---,0.00,VWS V14.01,2013-12-12 23:42:00,
2013-12-12 18:43:00,31.3,14.8,30.45,NE,39,0.0,0.0,50,0.00,,---,0.00,VWS V14.01,2013-12-12 23:43:00,
2013-12-12 18:44:00,31.2,15.2,30.45,NE,38,0.0,0.0,51,0.00,,---,0.00,VWS V14.01,2013-12-12 23:44:00,
2013-12-12 18:45:00,31.1,16.4,30.46,NE,38,0.0,0.0,54,0.00,,---,0.00,VWS V14.01,2013-12-12 23:45:00,
2013-12-12 18:46:00,31.2,16.5,30.45,NE,39,0.0,1.0,54,0.00,,---,0.00,VWS V14.01,2013-12-12 23:46:00,
2013-12-12 18:47:00,31.1,16.4,30.45,NE,38,0.0,0.0,54,0.00,,---,0.00,VWS V14.01,2013-12-12 23:47:00,
2013-12-12 18:48:00,31.1,16.4,30.46,NE,39,0.0,0.0,54,0.00,,---,0.00,VWS V14.01,2013-12-12 23:48:00,
2013-12-12 18:49:00,31.0,16.3,30.45,NE,39,0.0,0.0,54,0.00,,---,0.00,VWS V14.01,2013-12-12 23:49:00,
2013-12-12 18:50:00,30.8,17.4,30.46,NE,39,0.0,0.0,57,0.00,,---,0.00,VWS V14.01,2013-12-12 23:50:00,
2013-12-12 18:51:00,30.9,16.6,30.46,NE,38,0.0,0.0,55,0.00,,---,0.00,VWS V14.01,2013-12-12 23:51:00,
2013-12-12 18:52:00,30.8,17.0,30.46,NE,39,0.0,1.0,56,0.00,,---,0.00,VWS V14.01,2013-12-12 23:52:00,
2013-12-12 18:53:00,30.8,17.4,30.46,NE,39,0.0,0.0,57,0.00,,---,0.00,VWS V14.01,2013-12-12 23:53:00,
2013-12-12 18:54:00,30.5,16.3,30.45,NE,38,0.0,0.0,55,0.00,,---,0.00,VWS V14.01,2013-12-12 23:54:00,
2013-12-12 18:55:00,30.6,16.8,30.45,NE,39,0.0,1.0,56,0.00,,---,0.00,VWS V14.01,2013-12-12 23:55:00,
2013-12-12 18:56:00,30.6,16.4,30.46,NE,38,0.0,1.0,55,0.00,,---,0.00,VWS V14.01,2013-12-12 23:56:00,
2013-12-12 18:57:00,30.6,16.4,30.45,NE,39,0.0,0.0,55,0.00,,---,0.00,VWS V14.01,2013-12-12 23:57:00,
2013-12-12 18:58:00,30.5,16.3,30.45,NE,38,0.0,0.0,55,0.00,,---,0.00,VWS V14.01,2013-12-12 23:58:00,
2013-12-12 18:59:00,30.3,16.9,30.46,NE,39,1.0,1.0,57,0.00,,---,0.00,VWS V14.01,2013-12-12 23:59:00,
2013-12-12 19:00:00,30.4,16.6,30.45,NE,39,0.0,1.0,56,0.00,,---,0.00,VWS V14.01,2013-12-13 00:00:00,
2013-12-12 19:01:00,30.4,16.6,30.45,NE,38,0.0,0.0,56,0.00,,---,0.00,VWS V14.01,2013-12-13 00:01:00,
2013-12-12 19:02:00,30.3,16.9,30.46,NE,39,1.0,1.0,57,0.00,,---,0.00,VWS V14.01,2013-12-13 00:02:00,
2013-12-12 19:03:00,30.3,16.9,30.46,NE,39,1.0,1.0,57,0.00,,---,0.00,VWS V14.01,2013-12-13 00:03:00,
2013-12-12 19:04:00,30.0,15.8,30.46,NE,38,0.0,0.0,55,0.00,,---,0.00,VWS V14.01,2013-12-13 00:04:00,
2013-12-12 19:05:00,30.2,17.2,30.46,NE,38,0.0,0.0,58,0.00,,---,0.00,VWS V14.01,2013-12-13 00:05:00,
2013-12-12 19:06:00,30.1,17.1,30.46,NE,38,0.0,0.0,58,0.00,,---,0.00,VWS V14.01,2013-12-13 00:06:00,
2013-12-12 19:07:00,30.1,16.7,30.46,NE,39,0.0,1.0,57,0.00,,---,0.00,VWS V14.01,2013-12-13 00:07:00,
2013-12-12 19:08:00,30.0,15.8,30.46,NE,38,0.0,0.0,55,0.00,,---,0.00,VWS V14.01,2013-12-13 00:08:00,
2013-12-12 19:09:00,30.2,15.6,30.46,NE,39,0.0,1.0,54,0.00,,---,0.00,VWS V14.01,2013-12-13 00:09:00,
2013-12-12 19:10:00,30.1,15.1,30.46,NNE,33,0.0,0.0,53,0.00,,---,0.00,VWS V14.01,2013-12-13 00:10:00,
2013-12-12 19:11:00,30.1,15.5,30.46,NNE,33,0.0,0.0,54,0.00,,---,0.00,VWS V14.01,2013-12-13 00:11:00,
2013-12-12 19:12:00,30.2,15.6,30.46,NNE,33,0.0,0.0,54,0.00,,---,0.00,VWS V14.01,2013-12-13 00:12:00,
2013-12-12 19:13:00,30.2,15.6,30.47,NE,39,0.0,1.0,54,0.00,,---,0.00,VWS V14.01,2013-12-13 00:13:00,
2013-12-12 19:14:00,30.5,15.4,30.46,NE,38,0.0,0.0,53,0.00,,---,0.00,VWS V14.01,2013-12-13 00:14:00,
2013-12-12 19:15:00,30.4,15.3,30.46,NE,38,0.0,1.0,53,0.00,,---,0.00,VWS V14.01,2013-12-13 00:15:00,
2013-12-12 19:16:00,30.4,14.9,30.46,NE,39,0.0,0.0,52,0.00,,---,0.00,VWS V14.01,2013-12-13 00:16:00,
2013-12-12 19:17:00,30.4,15.3,30.46,NE,38,0.0,1.0,53,0.00,,---,0.00,VWS V14.01,2013-12-13 00:17:00,
2013-12-12 19:18:00,30.5,15.4,30.46,NE,38,0.0,0.0,53,0.00,,---,0.00,VWS V14.01,2013-12-13 00:18:00,
2013-12-12 19:19:00,30.7,14.3,30.46,NE,39,0.0,1.0,50,0.00,,---,0.00,VWS V14.01,2013-12-13 00:19:00,
2013-12-12 19:20:00,30.5,15.0,30.46,NE,38,0.0,0.0,52,0.00,,---,0.00,VWS V14.01,2013-12-13 00:20:00,
2013-12-12 19:21:00,30.5,15.0,30.46,NE,38,0.0,0.0,52,0.00,,---,0.00,VWS V14.01,2013-12-13 00:21:00,
2013-12-12 19:22:00,30.6,14.6,30.46,NE,38,1.0,1.0,51,0.00,,---,0.00,VWS V14.01,2013-12-13 00:22:00,
2013-12-12 19:23:00,30.7,14.3,30.46,NE,38,0.0,1.0,50,0.00,,---,0.00,VWS V14.01,2013-12-13 00:23:00,
2013-12-12 19:24:00,31.0,14.6,30.46,NW,316,0.0,0.0,50,0.00,,---,0.00,VWS V14.01,2013-12-13 00:24:00,
2013-12-12 19:25:00,30.9,14.0,30.46,NW,316,0.0,0.0,49,0.00,,---,0.00,VWS V14.01,2013-12-13 00:25:00,
2013-12-12 19:26:00,31.0,14.6,30.46,NW,316,0.0,0.0,50,0.00,,---,0.00,VWS V14.01,2013-12-13 00:26:00,
2013-12-12 19:27:00,31.0,14.6,30.46,NW,316,0.0,0.0,50,0.00,,---,0.00,VWS V14.01,2013-12-13 00:27:00,
2013-12-12 19:28:00,31.0,14.6,30.46,NW,316,0.0,0.0,50,0.00,,---,0.00,VWS V14.01,2013-12-13 00:28:00,
2013-12-12 19:29:00,30.9,14.0,30.46,West,262,0.0,0.0,49,0.00,,---,0.00,VWS V14.01,2013-12-13 00:29:00,
2013-12-12 19:30:00,31.0,14.6,30.46,NW,316,0.0,0.0,50,0.00,,---,0.00,VWS V14.01,2013-12-13 00:30:00,
2013-12-12 19:31:00,31.0,14.1,30.46,West,263,0.0,1.0,49,0.00,,---,0.00,VWS V14.01,2013-12-13 00:31:00,
2013-12-12 19:32:00,31.0,14.6,30.46,West,263,0.0,0.0,50,0.00,,---,0.00,VWS V14.01,2013-12-13 00:32:00,
2013-12-12 19:33:00,30.9,14.0,30.46,West,262,0.0,0.0,49,0.00,,---,0.00,VWS V14.01,2013-12-13 00:33:00,
2013-12-12 19:34:00,30.8,13.9,30.46,West,274,0.0,0.0,49,0.00,,---,0.00,VWS V14.01,2013-12-13 00:34:00,
2013-12-12 19:35:00,30.9,14.0,30.46,West,262,0.0,1.0,49,0.00,,---,0.00,VWS V14.01,2013-12-13 00:35:00,
2013-12-12 19:36:00,30.9,14.0,30.46,West,262,0.0,0.0,49,0.00,,---,0.00,VWS V14.01,2013-12-13 00:36:00,
2013-12-12 19:37:00,30.8,13.9,30.46,West,274,0.0,0.0,49,0.00,,---,0.00,VWS V14.01,2013-12-13 00:37:00,
2013-12-12 19:38:00,30.8,13.9,30.46,West,274,0.0,0.0,49,0.00,,---,0.00,VWS V14.01,2013-12-13 00:38:00,
2013-12-12 19:39:00,31.0,14.1,30.46,West,278,0.0,0.0,49,0.00,,---,0.00,VWS V14.01,2013-12-13 00:39:00,
2013-12-12 19:40:00,30.9,14.0,30.46,West,278,0.0,1.0,49,0.00,,---,0.00,VWS V14.01,2013-12-13 00:40:00,
2013-12-12 19:41:00,31.0,14.1,30.46,West,278,0.0,1.0,49,0.00,,---,0.00,VWS V14.01,2013-12-13 00:41:00,
2013-12-12 19:42:00,31.0,14.1,30.46,West,278,0.0,1.0,49,0.00,,---,0.00,VWS V14.01,2013-12-13 00:42:00,
2013-12-12 19:43:00,31.0,14.1,30.46,West,278,0.0,0.0,49,0.00,,---,0.00,VWS V14.01,2013-12-13 00:43:00,
2013-12-12 19:44:00,30.9,14.0,30.46,West,278,0.0,0.0,49,0.00,,---,0.00,VWS V14.01,2013-12-13 00:44:00,
2013-12-12 19:45:00,31.0,14.1,30.46,West,278,0.0,1.0,49,0.00,,---,0.00,VWS V14.01,2013-12-13 00:45:00,
2013-12-12 19:46:00,30.9,14.0,30.46,West,278,0.0,0.0,49,0.00,,---,0.00,VWS V14.01,2013-12-13 00:46:00,
2013-12-12 19:47:00,30.9,14.0,30.46,West,278,0.0,0.0,49,0.00,,---,0.00,VWS V14.01,2013-12-13 00:47:00,
2013-12-12 19:48:00,30.9,14.0,30.46,West,278,0.0,0.0,49,0.00,,---,0.00,VWS V14.01,2013-12-13 00:48:00,
2013-12-12 19:49:00,30.6,15.5,30.46,West,278,0.0,1.0,53,0.00,,---,0.00,VWS V14.01,2013-12-13 00:49:00,
2013-12-12 19:50:00,30.7,13.8,30.46,West,278,0.0,0.0,49,0.00,,---,0.00,VWS V14.01,2013-12-13 00:50:00,
2013-12-12 19:51:00,30.7,13.8,30.46,West,278,0.0,1.0,49,0.00,,---,0.00,VWS V14.01,2013-12-13 00:51:00,
2013-12-12 19:52:00,30.6,15.1,30.46,West,278,1.0,1.0,52,0.00,,---,0.00,VWS V14.01,2013-12-13 00:52:00,
2013-12-12 19:53:00,30.6,15.5,30.46,West,278,0.0,1.0,53,0.00,,---,0.00,VWS V14.01,2013-12-13 00:53:00,
2013-12-12 19:54:00,30.1,15.1,30.46,West,278,0.0,0.0,53,0.00,,---,0.00,VWS V14.01,2013-12-13 00:54:00,
2013-12-12 19:55:00,30.4,15.3,30.46,West,278,0.0,0.0,53,0.00,,---,0.00,VWS V14.01,2013-12-13 00:55:00,
2013-12-12 19:56:00,30.3,15.7,30.46,West,278,0.0,0.0,54,0.00,,---,0.00,VWS V14.01,2013-12-13 00:56:00,
2013-12-12 19:57:00,30.2,15.6,30.46,West,278,0.0,0.0,54,0.00,,---,0.00,VWS V14.01,2013-12-13 00:57:00,
2013-12-12 19:58:00,30.1,15.1,30.45,West,278,0.0,0.0,53,0.00,,---,0.00,VWS V14.01,2013-12-13 00:58:00,
2013-12-12 19:59:00,29.9,14.9,30.45,West,278,0.0,0.0,53,0.00,,---,0.00,VWS V14.01,2013-12-13 00:59:00,
2013-12-12 20:00:00,30.0,14.5,30.46,West,278,0.0,0.0,52,0.00,,---,0.00,VWS V14.01,2013-12-13 01:00:00,
2013-12-12 20:01:00,30.0,14.5,30.45,West,278,0.0,0.0,52,0.00,,---,0.00,VWS V14.01,2013-12-13 01:01:00,
2013-12-12 20:02:00,29.9,14.9,30.45,West,278,0.0,0.0,53,0.00,,---,0.00,VWS V14.01,2013-12-13 01:02:00,
2013-12-12 20:03:00,29.9,14.9,30.45,West,278,0.0,0.0,53,0.00,,---,0.00,VWS V14.01,2013-12-13 01:03:00,
2013-12-12 20:04:00,29.6,15.8,30.45,West,278,0.0,0.0,56,0.00,,---,0.00,VWS V14.01,2013-12-13 01:04:00,
2013-12-12 20:05:00,29.8,15.6,30.45,West,278,0.0,0.0,55,0.00,,---,0.00,VWS V14.01,2013-12-13 01:05:00,
2013-12-12 20:06:00,29.7,15.9,30.45,West,278,0.0,0.0,56,0.00,,---,0.00,VWS V14.01,2013-12-13 01:06:00,
2013-12-12 20:07:00,29.7,15.9,30.45,West,278,0.0,0.0,56,0.00,,---,0.00,VWS V14.01,2013-12-13 01:07:00,
2013-12-12 20:08:00,29.6,15.9,30.45,West,278,0.0,0.0,56,0.00,,---,0.00,VWS V14.01,2013-12-13 01:08:00,
2013-12-12 20:09:00,29.1,15.0,30.45,West,278,0.0,0.0,55,0.00,,---,0.00,VWS V14.01,2013-12-13 01:09:00,
2013-12-12 20:10:00,29.4,15.7,30.46,West,278,0.0,0.0,56,0.00,,---,0.00,VWS V14.01,2013-12-13 01:10:00,
2013-12-12 20:11:00,29.3,15.1,30.46,West,278,0.0,0.0,55,0.00,,---,0.00,VWS V14.01,2013-12-13 01:11:00,
2013-12-12 20:12:00,29.2,15.1,30.45,West,278,0.0,0.0,55,0.00,,---,0.00,VWS V14.01,2013-12-13 01:12:00,
2013-12-12 20:13:00,29.1,15.0,30.45,West,278,0.0,0.0,55,0.00,,---,0.00,VWS V14.01,2013-12-13 01:13:00,
2013-12-12 20:14:00,29.0,16.5,30.46,West,278,0.0,0.0,59,0.00,,---,0.00,VWS V14.01,2013-12-13 01:14:00,
2013-12-12 20:15:00,29.0,15.3,30.45,West,278,0.0,1.0,56,0.00,,---,0.00,VWS V14.01,2013-12-13 01:15:00,
2013-12-12 20:16:00,29.0,15.3,30.46,West,278,0.0,1.0,56,0.00,,---,0.00,VWS V14.01,2013-12-13 01:16:00,
2013-12-12 20:17:00,29.0,16.1,30.46,West,278,0.0,0.0,58,0.00,,---,0.00,VWS V14.01,2013-12-13 01:17:00,
2013-12-12 20:18:00,29.0,16.5,30.45,West,278,0.0,0.0,59,0.00,,---,0.00,VWS V14.01,2013-12-13 01:18:00,
2013-12-12 20:19:00,28.8,17.4,30.45,West,278,0.0,0.0,62,0.00,,---,0.00,VWS V14.01,2013-12-13 01:19:00,
2013-12-12 20:20:00,28.9,17.2,30.45,West,278,0.0,0.0,61,0.00,,---,0.00,VWS V14.01,2013-12-13 01:20:00,
2013-12-12 20:21:00,28.9,16.8,30.45,West,278,0.0,1.0,60,0.00,,---,0.00,VWS V14.01,2013-12-13 01:21:00,
2013-12-12 20:22:00,28.8,17.1,30.45,West,278,0.0,0.0,61,0.00,,---,0.00,VWS V14.01,2013-12-13 01:22:00,
2013-12-12 20:23:00,28.8,17.4,30.46,West,278,0.0,0.0,62,0.00,,---,0.00,VWS V14.01,2013-12-13 01:23:00,
2013-12-12 20:24:00,28.6,16.9,30.45,West,278,0.0,0.0,61,0.00,,---,0.00,VWS V14.01,2013-12-13 01:24:00,
2013-12-12 20:25:00,28.7,17.3,30.45,West,278,0.0,1.0,62,0.00,,---,0.00,VWS V14.01,2013-12-13 01:25:00,
2013-12-12 20:26:00,28.7,17.3,30.45,West,278,0.0,0.0,62,0.00,,---,0.00,VWS V14.01,2013-12-13 01:26:00,
2013-12-12 20:27:00,28.7,17.3,30.45,West,278,0.0,0.0,62,0.00,,---,0.00,VWS V14.01,2013-12-13 01:27:00,
2013-12-12 20:28:00,28.6,16.9,30.45,West,278,0.0,0.0,61,0.00,,---,0.00,VWS V14.01,2013-12-13 01:28:00,
2013-12-12 20:29:00,29.0,15.3,30.45,West,278,0.0,0.0,56,0.00,,---,0.00,VWS V14.01,2013-12-13 01:29:00,
2013-12-12 20:30:00,28.7,15.8,30.45,West,278,0.0,0.0,58,0.00,,---,0.00,VWS V14.01,2013-12-13 01:30:00,
2013-12-12 20:31:00,28.7,15.4,30.45,West,278,0.0,0.0,57,0.00,,---,0.00,VWS V14.01,2013-12-13 01:31:00,
2013-12-12 20:32:00,28.9,15.2,30.45,West,278,0.0,0.0,56,0.00,,---,0.00,VWS V14.01,2013-12-13 01:32:00,
2013-12-12 20:33:00,29.0,15.3,30.45,West,278,0.0,0.0,56,0.00,,---,0.00,VWS V14.01,2013-12-13 01:33:00,
2013-12-12 20:34:00,29.2,15.1,30.45,West,278,0.0,0.0,55,0.00,,---,0.00,VWS V14.01,2013-12-13 01:34:00,
2013-12-12 20:35:00,29.2,15.1,30.45,West,278,0.0,0.0,55,0.00,,---,0.00,VWS V14.01,2013-12-13 01:35:00,
2013-12-12 20:36:00,29.3,15.1,30.45,West,278,0.0,1.0,55,0.00,,---,0.00,VWS V14.01,2013-12-13 01:36:00,
2013-12-12 20:37:00,29.2,15.1,30.45,West,278,0.0,1.0,55,0.00,,---,0.00,VWS V14.01,2013-12-13 01:37:00,
2013-12-12 20:38:00,29.2,15.1,30.45,West,278,0.0,0.0,55,0.00,,---,0.00,VWS V14.01,2013-12-13 01:38:00,
2013-12-12 20:39:00,29.0,15.7,30.45,West,278,0.0,0.0,57,0.00,,---,0.00,VWS V14.01,2013-12-13 01:39:00,
2013-12-12 20:40:00,29.2,15.5,30.45,West,278,0.0,0.0,56,0.00,,---,0.00,VWS V14.01,2013-12-13 01:40:00,
2013-12-12 20:41:00,29.1,15.4,30.45,West,278,0.0,0.0,56,0.00,,---,0.00,VWS V14.01,2013-12-13 01:41:00,
2013-12-12 20:42:00,29.1,15.8,30.45,West,278,0.0,0.0,57,0.00,,---,0.00,VWS V14.01,2013-12-13 01:42:00,
2013-12-12 20:43:00,29.0,15.7,30.45,West,278,0.0,0.0,57,0.00,,---,0.00,VWS V14.01,2013-12-13 01:43:00,
2013-12-12 20:44:00,28.9,16.8,30.45,North,360,0.0,1.0,60,0.00,,---,0.00,VWS V14.01,2013-12-13 01:44:00,
2013-12-12 20:45:00,29.0,16.5,30.45,North,360,1.0,1.0,59,0.00,,---,0.00,VWS V14.01,2013-12-13 01:45:00,
2013-12-12 20:46:00,28.9,16.8,30.45,North,359,0.0,1.0,60,0.00,,---,0.00,VWS V14.01,2013-12-13 01:46:00,
2013-12-12 20:47:00,28.9,16.8,30.45,North,360,1.0,1.0,60,0.00,,---,0.00,VWS V14.01,2013-12-13 01:47:00,
2013-12-12 20:48:00,28.9,16.8,30.45,North,360,0.0,1.0,60,0.00,,---,0.00,VWS V14.01,2013-12-13 01:48:00,
2013-12-12 20:49:00,28.6,16.5,30.45,North,360,0.0,0.0,60,0.00,,---,0.00,VWS V14.01,2013-12-13 01:49:00,
2013-12-12 20:50:00,28.8,16.7,30.45,North,360,0.0,1.0,60,0.00,,---,0.00,VWS V14.01,2013-12-13 01:50:00,
2013-12-12 20:51:00,28.8,16.3,30.45,North,360,0.0,0.0,59,0.00,,---,0.00,VWS V14.01,2013-12-13 01:51:00,
2013-12-12 20:52:00,28.7,16.6,30.45,North,360,0.0,0.0,60,0.00,,---,0.00,VWS V14.01,2013-12-13 01:52:00,
2013-12-12 20:53:00,28.6,16.5,30.45,North,360,0.0,0.0,60,0.00,,---,0.00,VWS V14.01,2013-12-13 01:53:00,
2013-12-12 20:54:00,28.3,16.2,30.45,North,360,0.0,0.0,60,0.00,,---,0.00,VWS V14.01,2013-12-13 01:54:00,
2013-12-12 20:55:00,28.5,16.4,30.45,North,360,0.0,0.0,60,0.00,,---,0.00,VWS V14.01,2013-12-13 01:55:00,
2013-12-12 20:56:00,28.4,16.3,30.45,North,360,0.0,0.0,60,0.00,,---,0.00,VWS V14.01,2013-12-13 01:56:00,
2013-12-12 20:57:00,28.3,16.2,30.45,North,360,0.0,0.0,60,0.00,,---,0.00,VWS V14.01,2013-12-13 01:57:00,
2013-12-12 20:58:00,28.3,16.2,30.45,North,360,0.0,0.0,60,0.00,,---,0.00,VWS V14.01,2013-12-13 01:58:00,
2013-12-12 20:59:00,27.9,16.2,30.45,North,360,0.0,0.0,61,0.00,,---,0.00,VWS V14.01,2013-12-13 01:59:00,
2013-12-12 21:00:00,28.1,16.0,30.45,North,360,0.0,0.0,60,0.00,,---,0.00,VWS V14.01,2013-12-13 02:00:00,
2013-12-12 21:01:00,28.0,15.9,30.45,North,359,0.0,0.0,60,0.00,,---,0.00,VWS V14.01,2013-12-13 02:01:00,
2013-12-12 21:02:00,28.0,15.9,30.45,North,360,0.0,0.0,60,0.00,,---,0.00,VWS V14.01,2013-12-13 02:02:00,
2013-12-12 21:03:00,27.9,16.2,30.45,North,360,0.0,0.0,61,0.00,,---,0.00,VWS V14.01,2013-12-13 02:03:00,
2013-12-12 21:04:00,27.6,17.0,30.45,North,360,0.0,0.0,64,0.00,,---,0.00,VWS V14.01,2013-12-13 02:04:00,
2013-12-12 21:05:00,27.8,16.5,30.45,North,360,0.0,0.0,62,0.00,,---,0.00,VWS V14.01,2013-12-13 02:05:00,
2013-12-12 21:06:00,27.7,16.8,30.45,North,360,0.0,0.0,63,0.00,,---,0.00,VWS V14.01,2013-12-13 02:06:00,
2013-12-12 21:07:00,27.7,16.8,30.45,North,359,0.0,0.0,63,0.00,,---,0.00,VWS V14.01,2013-12-13 02:07:00,
2013-12-12 21:08:00,27.6,17.0,30.45,North,359,0.0,0.0,64,0.00,,---,0.00,VWS V14.01,2013-12-13 02:08:00,
2013-12-12 21:09:00,27.3,16.8,30.45,North,359,0.0,0.0,64,0.00,,---,0.00,VWS V14.01,2013-12-13 02:09:00,
2013-12-12 21:10:00,27.5,16.9,30.45,North,359,0.0,0.0,64,0.00,,---,0.00,VWS V14.01,2013-12-13 02:10:00,
2013-12-12 21:11:00,27.4,16.8,30.45,North,359,0.0,0.0,64,0.00,,---,0.00,VWS V14.01,2013-12-13 02:11:00,
2013-12-12 21:12:00,27.4,16.8,30.45,North,360,0.0,1.0,64,0.00,,---,0.00,VWS V14.01,2013-12-13 02:12:00,
2013-12-12 21:13:00,27.3,16.8,30.45,North,359,0.0,0.0,64,0.00,,---,0.00,VWS V14.01,2013-12-13 02:13:00,
2013-12-12 21:14:00,26.9,17.4,30.45,North,360,0.0,0.0,67,0.00,,---,0.00,VWS V14.01,2013-12-13 02:14:00,
2013-12-12 21:15:00,27.1,16.9,30.45,North,359,1.0,1.0,65,0.00,,---,0.00,VWS V14.01,2013-12-13 02:15:00,
2013-12-12 21:16:00,27.1,17.6,30.45,North,360,1.0,1.0,67,0.00,,---,0.00,VWS V14.01,2013-12-13 02:16:00,
2013-12-12 21:17:00,27.0,17.5,30.45,North,360,0.0,1.0,67,0.00,,---,0.00,VWS V14.01,2013-12-13 02:17:00,
2013-12-12 21:18:00,26.9,17.4,30.45,North,360,0.0,0.0,67,0.00,,---,0.00,VWS V14.01,2013-12-13 02:18:00,
2013-12-12 21:19:00,26.6,17.5,30.45,North,359,0.0,0.0,68,0.00,,---,0.00,VWS V14.01,2013-12-13 02:19:00,
2013-12-12 21:20:00,26.8,17.3,30.45,North,360,0.0,0.0,67,0.00,,---,0.00,VWS V14.01,2013-12-13 02:20:00,
2013-12-12 21:21:00,26.7,17.6,30.45,North,360,0.0,0.0,68,0.00,,---,0.00,VWS V14.01,2013-12-13 02:21:00,
2013-12-12 21:22:00,26.7,17.6,30.45,North,360,0.0,0.0,68,0.00,,---,0.00,VWS V14.01,2013-12-13 02:22:00,
2013-12-12 21:23:00,26.6,17.5,30.45,North,360,0.0,0.0,68,0.00,,---,0.00,VWS V14.01,2013-12-13 02:23:00,
2013-12-12 21:24:00,26.4,18.0,30.45,North,359,0.0,0.0,70,0.00,,---,0.00,VWS V14.01,2013-12-13 02:24:00,
2013-12-12 21:25:00,26.5,17.7,30.45,North,360,0.0,0.0,69,0.00,,---,0.00,VWS V14.01,2013-12-13 02:25:00,
2013-12-12 21:26:00,26.5,18.0,30.45,North,360,0.0,1.0,70,0.00,,---,0.00,VWS V14.01,2013-12-13 02:26:00,
2013-12-12 21:27:00,26.5,18.0,30.45,North,360,0.0,0.0,70,0.00,,---,0.00,VWS V14.01,2013-12-13 02:27:00,
2013-12-12 21:28:00,26.4,18.0,30.45,North,360,0.0,0.0,70,0.00,,---,0.00,VWS V14.01,2013-12-13 02:28:00,
2013-12-12 21:29:00,26.1,17.3,30.45,North,360,0.0,0.0,69,0.00,,---,0.00,VWS V14.01,2013-12-13 02:29:00,
2013-12-12 21:30:00,26.3,17.5,30.45,North,359,0.0,0.0,69,0.00,,---,0.00,VWS V14.01,2013-12-13 02:30:00,
2013-12-12 21:31:00,26.2,17.4,30.45,North,360,0.0,0.0,69,0.00,,---,0.00,VWS V14.01,2013-12-13 02:31:00,
2013-12-12 21:32:00,26.1,17.3,30.45,North,360,0.0,0.0,69,0.00,,---,0.00,VWS V14.01,2013-12-13 02:32:00,
2013-12-12 21:33:00,26.1,17.3,30.45,North,360,0.0,0.0,69,0.00,,---,0.00,VWS V14.01,2013-12-13 02:33:00,
2013-12-12 21:34:00,25.8,17.4,30.45,North,360,0.0,0.0,70,0.00,,---,0.00,VWS V14.01,2013-12-13 02:34:00,
2013-12-12 21:35:00,26.0,17.2,30.45,North,360,0.0,0.0,69,0.00,,---,0.00,VWS V14.01,2013-12-13 02:35:00,
2013-12-12 21:36:00,25.9,17.5,30.45,North,360,0.0,0.0,70,0.00,,---,0.00,VWS V14.01,2013-12-13 02:36:00,
2013-12-12 21:37:00,25.9,17.5,30.45,North,359,0.0,0.0,70,0.00,,---,0.00,VWS V14.01,2013-12-13 02:37:00,
2013-12-12 21:38:00,25.8,17.4,30.44,North,360,0.0,0.0,70,0.00,,---,0.00,VWS V14.01,2013-12-13 02:38:00,
2013-12-12 21:39:00,25.5,17.1,30.44,North,360,0.0,0.0,70,0.00,,---,0.00,VWS V14.01,2013-12-13 02:39:00,
2013-12-12 21:40:00,25.7,17.3,30.44,North,359,0.0,0.0,70,0.00,,---,0.00,VWS V14.01,2013-12-13 02:40:00,
2013-12-12 21:41:00,25.6,17.2,30.44,North,359,0.0,0.0,70,0.00,,---,0.00,VWS V14.01,2013-12-13 02:41:00,
2013-12-12 21:42:00,25.6,17.2,30.44,North,359,0.0,0.0,70,0.00,,---,0.00,VWS V14.01,2013-12-13 02:42:00,
2013-12-12 21:43:00,25.5,17.1,30.44,North,360,0.0,0.0,70,0.00,,---,0.00,VWS V14.01,2013-12-13 02:43:00,
2013-12-12 21:44:00,25.2,17.1,30.44,North,360,0.0,0.0,71,0.00,,---,0.00,VWS V14.01,2013-12-13 02:44:00,
2013-12-12 21:45:00,25.3,16.9,30.44,North,360,0.0,0.0,70,0.00,,---,0.00,VWS V14.01,2013-12-13 02:45:00,
2013-12-12 21:46:00,25.3,16.9,30.44,North,360,0.0,0.0,70,0.00,,---,0.00,VWS V14.01,2013-12-13 02:46:00,
2013-12-12 21:47:00,25.3,17.2,30.44,North,360,0.0,0.0,71,0.00,,---,0.00,VWS V14.01,2013-12-13 02:47:00,
2013-12-12 21:48:00,25.2,17.1,30.44,North,360,0.0,0.0,71,0.00,,---,0.00,VWS V14.01,2013-12-13 02:48:00,
2013-12-12 21:49:00,25.0,17.3,30.44,North,360,0.0,0.0,72,0.00,,---,0.00,VWS V14.01,2013-12-13 02:49:00,
2013-12-12 21:50:00,25.1,17.0,30.44,North,359,0.0,0.0,71,0.00,,---,0.00,VWS V14.01,2013-12-13 02:50:00,
2013-12-12 21:51:00,25.1,17.0,30.44,North,359,0.0,0.0,71,0.00,,---,0.00,VWS V14.01,2013-12-13 02:51:00,
2013-12-12 21:52:00,25.0,16.9,30.44,North,360,0.0,0.0,71,0.00,,---,0.00,VWS V14.01,2013-12-13 02:52:00,
2013-12-12 21:53:00,25.0,17.3,30.45,North,360,0.0,0.0,72,0.00,,---,0.00,VWS V14.01,2013-12-13 02:53:00,
2013-12-12 21:54:00,25.0,16.9,30.45,North,360,0.0,0.0,71,0.00,,---,0.00,VWS V14.01,2013-12-13 02:54:00,
2013-12-12 21:55:00,24.9,17.2,30.44,North,360,0.0,1.0,72,0.00,,---,0.00,VWS V14.01,2013-12-13 02:55:00,
2013-12-12 21:56:00,24.9,17.2,30.44,North,360,0.0,0.0,72,0.00,,---,0.00,VWS V14.01,2013-12-13 02:56:00,
2013-12-12 21:57:00,24.9,17.2,30.45,North,360,0.0,0.0,72,0.00,,---,0.00,VWS V14.01,2013-12-13 02:57:00,
2013-12-12 21:58:00,24.9,16.8,30.45,North,359,0.0,0.0,71,0.00,,---,0.00,VWS V14.01,2013-12-13 02:58:00,
2013-12-12 21:59:00,24.8,16.8,30.45,North,360,0.0,0.0,71,0.00,,---,0.00,VWS V14.01,2013-12-13 02:59:00,
2013-12-12 22:00:00,24.9,16.8,30.45,North,360,0.0,0.0,71,0.00,,---,0.00,VWS V14.01,2013-12-13 03:00:00,
2013-12-12 22:01:00,24.8,16.4,30.45,North,360,0.0,0.0,70,0.00,,---,0.00,VWS V14.01,2013-12-13 03:01:00,
2013-12-12 22:02:00,24.8,16.8,30.45,North,360,0.0,0.0,71,0.00,,---,0.00,VWS V14.01,2013-12-13 03:02:00,
2013-12-12 22:03:00,24.8,16.8,30.45,North,360,0.0,0.0,71,0.00,,---,0.00,VWS V14.01,2013-12-13 03:03:00,
2013-12-12 22:04:00,24.8,16.8,30.44,North,359,0.0,0.0,71,0.00,,---,0.00,VWS V14.01,2013-12-13 03:04:00,
2013-12-12 22:05:00,24.8,16.4,30.45,North,360,0.0,0.0,70,0.00,,---,0.00,VWS V14.01,2013-12-13 03:05:00,
2013-12-12 22:06:00,24.8,16.8,30.45,North,360,0.0,0.0,71,0.00,,---,0.00,VWS V14.01,2013-12-13 03:06:00,
2013-12-12 22:07:00,24.8,16.8,30.44,North,359,0.0,0.0,71,0.00,,---,0.00,VWS V14.01,2013-12-13 03:07:00,
2013-12-12 22:08:00,24.9,16.8,30.44,North,359,0.0,0.0,71,0.00,,---,0.00,VWS V14.01,2013-12-13 03:08:00,
2013-12-12 22:09:00,25.0,16.9,30.44,North,360,0.0,0.0,71,0.00,,---,0.00,VWS V14.01,2013-12-13 03:09:00,
2013-12-12 22:10:00,24.9,16.8,30.44,North,360,0.0,0.0,71,0.00,,---,0.00,VWS V14.01,2013-12-13 03:10:00,
2013-12-12 22:11:00,24.9,16.8,30.44,North,360,0.0,0.0,71,0.00,,---,0.00,VWS V14.01,2013-12-13 03:11:00,
2013-12-12 22:12:00,25.0,16.9,30.44,North,359,0.0,0.0,71,0.00,,---,0.00,VWS V14.01,2013-12-13 03:12:00,
2013-12-12 22:13:00,25.0,16.9,30.44,North,359,0.0,0.0,71,0.00,,---,0.00,VWS V14.01,2013-12-13 03:13:00,
2013-12-12 22:14:00,25.0,16.9,30.44,North,360,0.0,0.0,71,0.00,,---,0.00,VWS V14.01,2013-12-13 03:14:00,
2013-12-12 22:15:00,25.0,16.6,30.44,North,359,0.0,0.0,70,0.00,,---,0.00,VWS V14.01,2013-12-13 03:15:00,
2013-12-12 22:16:00,25.0,16.6,30.44,North,359,0.0,0.0,70,0.00,,---,0.00,VWS V14.01,2013-12-13 03:16:00,
2013-12-12 22:17:00,25.0,16.9,30.44,North,360,0.0,0.0,71,0.00,,---,0.00,VWS V14.01,2013-12-13 03:17:00,
2013-12-12 22:18:00,25.0,16.9,30.44,North,360,0.0,0.0,71,0.00,,---,0.00,VWS V14.01,2013-12-13 03:18:00,
2013-12-12 22:19:00,25.0,17.6,30.44,North,360,0.0,0.0,73,0.00,,---,0.00,VWS V14.01,2013-12-13 03:19:00,
2013-12-12 22:20:00,25.0,17.3,30.44,North,360,0.0,0.0,72,0.00,,---,0.00,VWS V14.01,2013-12-13 03:20:00,
2013-12-12 22:21:00,25.0,17.3,30.44,North,359,0.0,0.0,72,0.00,,---,0.00,VWS V14.01,2013-12-13 03:21:00,
2013-12-12 22:22:00,25.0,17.3,30.44,North,360,0.0,0.0,72,0.00,,---,0.00,VWS V14.01,2013-12-13 03:22:00,
2013-12-12 22:23:00,25.0,17.6,30.44,North,360,0.0,0.0,73,0.00,,---,0.00,VWS V14.01,2013-12-13 03:23:00,
2013-12-12 22:24:00,24.8,17.4,30.44,North,360,0.0,0.0,73,0.00,,---,0.00,VWS V14.01,2013-12-13 03:24:00,
2013-12-12 22:25:00,24.9,17.5,30.44,North,360,0.0,0.0,73,0.00,,---,0.00,VWS V14.01,2013-12-13 03:25:00,
2013-12-12 22:26:00,24.9,17.5,30.44,North,360,0.0,0.0,73,0.00,,---,0.00,VWS V14.01,2013-12-13 03:26:00,
2013-12-12 22:27:00,24.9,17.5,30.44,North,360,0.0,0.0,73,0.00,,---,0.00,VWS V14.01,2013-12-13 03:27:00,
2013-12-12 22:28:00,24.8,17.4,30.44,North,360,0.0,0.0,73,0.00,,---,0.00,VWS V14.01,2013-12-13 03:28:00,
2013-12-12 22:29:00,24.7,17.3,30.43,North,360,0.0,0.0,73,0.00,,---,0.00,VWS V14.01,2013-12-13 03:29:00,
2013-12-12 22:32:00,24.8,17.4,30.43,North,360,0.0,0.0,73,0.00,,---,0.00,VWS V14.01,2013-12-13 03:32:00,
2013-12-12 22:33:00,24.7,17.3,30.43,North,360,0.0,0.0,73,0.00,,---,0.00,VWS V14.01,2013-12-13 03:33:00,
2013-12-12 22:34:00,24.8,17.1,30.43,North,360,0.0,0.0,72,0.00,,---,0.00,VWS V14.01,2013-12-13 03:34:00,
2013-12-12 22:35:00,24.8,17.1,30.43,North,359,0.0,0.0,72,0.00,,---,0.00,VWS V14.01,2013-12-13 03:35:00,
2013-12-12 22:36:00,24.8,17.1,30.43,North,360,0.0,0.0,72,0.00,,---,0.00,VWS V14.01,2013-12-13 03:36:00,
2013-12-12 22:37:00,24.7,17.0,30.43,North,360,0.0,0.0,72,0.00,,---,0.00,VWS V14.01,2013-12-13 03:37:00,
2013-12-12 22:38:00,24.7,17.0,30.43,North,360,0.0,0.0,72,0.00,,---,0.00,VWS V14.01,2013-12-13 03:38:00,
2013-12-12 22:39:00,24.7,17.6,30.44,North,360,0.0,0.0,74,0.00,,---,0.00,VWS V14.01,2013-12-13 03:39:00,
2013-12-12 22:40:00,24.7,17.3,30.43,North,360,0.0,1.0,73,0.00,,---,0.00,VWS V14.01,2013-12-13 03:40:00,
2013-12-12 22:41:00,24.7,17.6,30.43,North,360,0.0,0.0,74,0.00,,---,0.00,VWS V14.01,2013-12-13 03:41:00,
2013-12-12 22:42:00,24.7,17.6,30.44,North,360,0.0,0.0,74,0.00,,---,0.00,VWS V14.01,2013-12-13 03:42:00,
2013-12-12 22:43:00,24.7,17.6,30.43,North,360,0.0,0.0,74,0.00,,---,0.00,VWS V14.01,2013-12-13 03:43:00,
2013-12-12 22:44:00,24.5,17.7,30.44,North,359,0.0,0.0,75,0.00,,---,0.00,VWS V14.01,2013-12-13 03:44:00,
2013-12-12 22:45:00,24.6,17.8,30.44,North,360,0.0,0.0,75,0.00,,---,0.00,VWS V14.01,2013-12-13 03:45:00,
2013-12-12 22:46:00,24.6,17.8,30.44,North,360,0.0,0.0,75,0.00,,---,0.00,VWS V14.01,2013-12-13 03:46:00,
2013-12-12 22:47:00,24.5,17.7,30.44,North,360,0.0,0.0,75,0.00,,---,0.00,VWS V14.01,2013-12-13 03:47:00,
2013-12-12 22:48:00,24.4,17.6,30.44,North,360,0.0,0.0,75,0.00,,---,0.00,VWS V14.01,2013-12-13 03:48:00,
2013-12-12 22:49:00,24.5,17.7,30.43,North,360,0.0,0.0,75,0.00,,---,0.00,VWS V14.01,2013-12-13 03:49:00,
2013-12-12 22:50:00,24.4,17.6,30.43,North,360,0.0,0.0,75,0.00,,---,0.00,VWS V14.01,2013-12-13 03:50:00,
2013-12-12 22:51:00,24.4,17.3,30.43,North,360,0.0,0.0,74,0.00,,---,0.00,VWS V14.01,2013-12-13 03:51:00,
2013-12-12 22:52:00,24.4,17.3,30.43,North,360,0.0,1.0,74,0.00,,---,0.00,VWS V14.01,2013-12-13 03:52:00,
2013-12-12 22:53:00,24.4,17.6,30.43,North,360,0.0,0.0,75,0.00,,---,0.00,VWS V14.01,2013-12-13 03:53:00,
2013-12-12 22:54:00,24.4,17.6,30.43,North,360,0.0,0.0,75,0.00,,---,0.00,VWS V14.01,2013-12-13 03:54:00,
2013-12-12 22:55:00,24.4,17.6,30.44,North,360,0.0,1.0,75,0.00,,---,0.00,VWS V14.01,2013-12-13 03:55:00,
2013-12-12 22:56:00,24.5,17.7,30.43,North,360,0.0,0.0,75,0.00,,---,0.00,VWS V14.01,2013-12-13 03:56:00,
2013-12-12 22:57:00,24.4,17.6,30.43,North,360,0.0,0.0,75,0.00,,---,0.00,VWS V14.01,2013-12-13 03:57:00,
2013-12-12 22:58:00,24.4,17.6,30.43,North,360,0.0,0.0,75,0.00,,---,0.00,VWS V14.01,2013-12-13 03:58:00,
2013-12-12 22:59:00,24.4,17.3,30.43,North,360,0.0,0.0,74,0.00,,---,0.00,VWS V14.01,2013-12-13 03:59:00,
2013-12-12 23:00:00,24.4,17.3,30.43,North,360,0.0,0.0,74,0.00,,---,0.00,VWS V14.01,2013-12-13 04:00:00,
2013-12-12 23:01:00,24.4,17.3,30.43,North,360,0.0,0.0,74,0.00,,---,0.00,VWS V14.01,2013-12-13 04:01:00,
2013-12-12 23:02:00,24.4,17.3,30.43,North,359,0.0,0.0,74,0.00,,---,0.00,VWS V14.01,2013-12-13 04:02:00,
2013-12-12 23:03:00,24.4,17.3,30.43,North,360,0.0,0.0,74,0.00,,---,0.00,VWS V14.01,2013-12-13 04:03:00,
2013-12-12 23:04:00,24.3,17.2,30.43,North,359,0.0,0.0,74,0.00,,---,0.00,VWS V14.01,2013-12-13 04:04:00,
2013-12-12 23:05:00,24.4,17.3,30.43,North,360,0.0,0.0,74,0.00,,---,0.00,VWS V14.01,2013-12-13 04:05:00,
2013-12-12 23:06:00,24.4,17.3,30.43,North,360,0.0,0.0,74,0.00,,---,0.00,VWS V14.01,2013-12-13 04:06:00,
2013-12-12 23:07:00,24.4,17.3,30.43,North,360,0.0,0.0,74,0.00,,---,0.00,VWS V14.01,2013-12-13 04:07:00,
2013-12-12 23:08:00,24.3,17.2,30.43,North,360,0.0,0.0,74,0.00,,---,0.00,VWS V14.01,2013-12-13 04:08:00,
2013-12-12 23:09:00,24.2,17.4,30.43,North,360,0.0,0.0,75,0.00,,---,0.00,VWS V14.01,2013-12-13 04:09:00,
2013-12-12 23:10:00,24.3,17.2,30.43,North,360,0.0,0.0,74,0.00,,---,0.00,VWS V14.01,2013-12-13 04:10:00,
2013-12-12 23:11:00,24.2,17.1,30.43,North,360,0.0,0.0,74,0.00,,---,0.00,VWS V14.01,2013-12-13 04:11:00,
2013-12-12 23:12:00,24.2,17.4,30.43,North,360,0.0,0.0,75,0.00,,---,0.00,VWS V14.01,2013-12-13 04:12:00,
2013-12-12 23:13:00,24.2,17.4,30.43,North,360,0.0,0.0,75,0.00,,---,0.00,VWS V14.01,2013-12-13 04:13:00,
2013-12-12 23:14:00,24.2,17.4,30.43,North,360,0.0,0.0,75,0.00,,---,0.00,VWS V14.01,2013-12-13 04:14:00,
2013-12-12 23:15:00,24.2,17.4,30.43,North,360,0.0,0.0,75,0.00,,---,0.00,VWS V14.01,2013-12-13 04:15:00,
2013-12-12 23:16:00,24.2,17.4,30.43,North,360,0.0,0.0,75,0.00,,---,0.00,VWS V14.01,2013-12-13 04:16:00,
2013-12-12 23:17:00,24.3,17.5,30.43,North,360,0.0,0.0,75,0.00,,---,0.00,VWS V14.01,2013-12-13 04:17:00,
2013-12-12 23:18:00,24.2,17.4,30.43,North,359,0.0,0.0,75,0.00,,---,0.00,VWS V14.01,2013-12-13 04:18:00,
2013-12-12 23:19:00,24.2,17.7,30.42,North,360,0.0,0.0,76,0.00,,---,0.00,VWS V14.01,2013-12-13 04:19:00,
2013-12-12 23:20:00,24.2,17.4,30.42,North,360,0.0,0.0,75,0.00,,---,0.00,VWS V14.01,2013-12-13 04:20:00,
2013-12-12 23:21:00,24.2,17.4,30.42,North,360,0.0,0.0,75,0.00,,---,0.00,VWS V14.01,2013-12-13 04:21:00,
2013-12-12 23:22:00,24.2,17.7,30.42,North,360,0.0,0.0,76,0.00,,---,0.00,VWS V14.01,2013-12-13 04:22:00,
2013-12-12 23:23:00,24.2,17.7,30.42,North,360,0.0,0.0,76,0.00,,---,0.00,VWS V14.01,2013-12-13 04:23:00,
2013-12-12 23:24:00,24.0,17.2,30.42,North,360,0.0,0.0,75,0.00,,---,0.00,VWS V14.01,2013-12-13 04:24:00,
2013-12-12 23:25:00,24.1,17.6,30.42,North,360,0.0,0.0,76,0.00,,---,0.00,VWS V14.01,2013-12-13 04:25:00,
2013-12-12 23:26:00,24.1,17.6,30.42,North,360,0.0,0.0,76,0.00,,---,0.00,VWS V14.01,2013-12-13 04:26:00,
2013-12-12 23:27:00,24.0,17.5,30.42,North,359,0.0,0.0,76,0.00,,---,0.00,VWS V14.01,2013-12-13 04:27:00,
2013-12-12 23:28:00,24.0,17.2,30.42,North,360,0.0,0.0,75,0.00,,---,0.00,VWS V14.01,2013-12-13 04:28:00,
2013-12-12 23:29:00,24.0,17.5,30.43,North,360,0.0,0.0,76,0.00,,---,0.00,VWS V14.01,2013-12-13 04:29:00,
2013-12-12 23:30:00,24.0,17.5,30.42,North,360,0.0,0.0,76,0.00,,---,0.00,VWS V14.01,2013-12-13 04:30:00,
2013-12-12 23:31:00,23.9,17.5,30.43,North,360,0.0,0.0,76,0.00,,---,0.00,VWS V14.01,2013-12-13 04:31:00,
2013-12-12 23:32:00,24.0,17.5,30.43,North,360,0.0,0.0,76,0.00,,---,0.00,VWS V14.01,2013-12-13 04:32:00,
2013-12-12 23:33:00,24.0,17.5,30.42,North,360,0.0,0.0,76,0.00,,---,0.00,VWS V14.01,2013-12-13 04:33:00,
2013-12-12 23:34:00,23.9,17.5,30.43,North,360,0.0,0.0,76,0.00,,---,0.00,VWS V14.01,2013-12-13 04:34:00,
2013-12-12 23:35:00,23.9,17.5,30.42,North,360,0.0,0.0,76,0.00,,---,0.00,VWS V14.01,2013-12-13 04:35:00,
2013-12-12 23:36:00,23.9,17.5,30.42,North,360,0.0,0.0,76,0.00,,---,0.00,VWS V14.01,2013-12-13 04:36:00,
2013-12-12 23:37:00,23.9,17.5,30.43,North,360,0.0,0.0,76,0.00,,---,0.00,VWS V14.01,2013-12-13 04:37:00,
2013-12-12 23:38:00,23.9,17.5,30.42,North,360,0.0,0.0,76,0.00,,---,0.00,VWS V14.01,2013-12-13 04:38:00,
2013-12-12 23:39:00,23.8,17.4,30.42,North,360,0.0,0.0,76,0.00,,---,0.00,VWS V14.01,2013-12-13 04:39:00,
2013-12-12 23:40:00,23.9,17.8,30.42,North,359,0.0,0.0,77,0.00,,---,0.00,VWS V14.01,2013-12-13 04:40:00,
2013-12-12 23:41:00,23.8,17.7,30.42,North,360,0.0,0.0,77,0.00,,---,0.00,VWS V14.01,2013-12-13 04:41:00,
2013-12-12 23:42:00,23.8,17.7,30.42,North,360,0.0,0.0,77,0.00,,---,0.00,VWS V14.01,2013-12-13 04:42:00,
2013-12-12 23:43:00,23.8,17.4,30.42,North,359,0.0,0.0,76,0.00,,---,0.00,VWS V14.01,2013-12-13 04:43:00,
2013-12-12 23:44:00,23.8,17.4,30.42,North,360,0.0,0.0,76,0.00,,---,0.00,VWS V14.01,2013-12-13 04:44:00,
2013-12-12 23:45:00,23.8,17.4,30.42,North,360,0.0,0.0,76,0.00,,---,0.00,VWS V14.01,2013-12-13 04:45:00,
2013-12-12 23:46:00,23.8,17.4,30.42,North,360,0.0,0.0,76,0.00,,---,0.00,VWS V14.01,2013-12-13 04:46:00,
2013-12-12 23:47:00,23.8,17.4,30.42,North,360,0.0,0.0,76,0.00,,---,0.00,VWS V14.01,2013-12-13 04:47:00,
2013-12-12 23:48:00,23.8,17.4,30.42,North,360,0.0,0.0,76,0.00,,---,0.00,VWS V14.01,2013-12-13 04:48:00,
2013-12-12 23:49:00,23.7,17.6,30.43,North,360,0.0,0.0,77,0.00,,---,0.00,VWS V14.01,2013-12-13 04:49:00,
2013-12-12 23:50:00,23.7,17.3,30.42,North,360,0.0,0.0,76,0.00,,---,0.00,VWS V14.01,2013-12-13 04:50:00,
2013-12-12 23:51:00,23.7,17.6,30.43,North,360,0.0,0.0,77,0.00,,---,0.00,VWS V14.01,2013-12-13 04:51:00,
2013-12-12 23:52:00,23.7,17.6,30.43,North,360,0.0,0.0,77,0.00,,---,0.00,VWS V14.01,2013-12-13 04:52:00,
2013-12-12 23:53:00,23.7,17.6,30.42,North,359,0.0,0.0,77,0.00,,---,0.00,VWS V14.01,2013-12-13 04:53:00,
2013-12-12 23:54:00,23.5,17.1,30.42,North,360,0.0,0.0,76,0.00,,---,0.00,VWS V14.01,2013-12-13 04:54:00,
2013-12-12 23:55:00,23.6,17.5,30.42,North,359,0.0,0.0,77,0.00,,---,0.00,VWS V14.01,2013-12-13 04:55:00,
2013-12-12 23:56:00,23.6,17.2,30.42,North,360,0.0,0.0,76,0.00,,---,0.00,VWS V14.01,2013-12-13 04:56:00,
2013-12-12 23:57:00,23.5,17.1,30.42,North,359,0.0,0.0,76,0.00,,---,0.00,VWS V14.01,2013-12-13 04:57:00,
2013-12-12 23:58:00,23.5,17.1,30.42,North,360,0.0,0.0,76,0.00,,---,0.00,VWS V14.01,2013-12-13 04:58:00,
2013-12-12 23:59:00,23.3,17.2,30.42,North,360,0.0,0.0,77,0.00,,---,0.00,VWS V14.01,2013-12-13 04:59:00,